[[{"header":{"parameterUnit":"m.s-1","parameterCategory":1,"la1":30.6,"la2":28.766,"lo1":-90.7593,"lo2":-88.6598,"dy":0.0162,"dx":0.0183,"nx":116,"ny":114,"refTime":"2023-09-18T00:00:00:Z","depth":0,"parameterNumber":2,"parameterNumberName":"U-component_of_WINDS"},"data":[0.0,0.0,0.0,0.0,0.0,0.0,0.0,0.0,0.0,0.0,0.0,0.0,0.0,0.0,0.0,0.0,0.0,0.0,0.0,0.0,0.0,0.0,0.0,0.0,0.0,0.0,0.0,0.0,0.0,0.0,0.0,0.0,0.0,0.0,0.0,0.0,0.0,0.0,0.0,0.0,0.0,0.0,0.0,0.0,0.0,0.0,0.0,0.0,0.0,0.0,0.0,0.0,0.0,0.0,0.0,0.0,0.0,0.0,0.0,0.0,0.0,0.0,0.0,0.0,0.0,0.0,0.0,0.0,0.0,0.0,0.0,0.0,0.0,0.0,0.0,0.0,0.0,0.0,0.0,0.0,0.0,0.0,0.0,0.0,0.0,0.0,0.0,0.0,0.0,0.0,0.0,0.0,0.0,0.0,0.0,0.0,0.0,0.0,0.0,0.0,0.0,0.0,0.0,0.0,0.0,0.0,0.0,0.0,0.0,0.0,0.0,0.0,0.0,0.0,0.0,0.0,0.0,0.0,0.0,0.0,0.0,0.0,0.0,0.0,0.0,0.0,0.0,0.0,0.0,0.0,0.0,0.0,0.0,0.0,0.0,0.0,0.0,0.0,0.0,0.0,0.0,0.0,0.0,0.0,0.0,0.0,0.0,0.0,0.0,0.0,0.0,0.0,0.0,0.0,0.0,0.0,0.0,0.0,0.0,0.0,0.0,0.0,0.0,0.0,0.0,0.0,0.0,0.0,0.0,0.0,0.0,0.0,0.0,0.0,0.0,0.0,0.0,0.0,0.0,0.0,0.0,0.0,0.0,0.0,0.0,0.0,0.0,0.0,0.0,0.0,0.0,0.0,0.0,0.0,0.0,0.0,0.0,0.0,0.0,0.0,0.0,0.0,0.0,0.0,0.0,0.0,0.0,0.0,0.0,0.0,0.0,0.0,0.0,0.0,0.0,0.0,0.0,0.0,0.0,0.0,0.0,0.0,0.0,0.0,0.0,0.0,0.0,0.0,0.0,0.0,0.0,0.0,0.0,0.0,0.0,0.0,0.0,0.0,0.0,0.0,0.0,0.0,0.0,0.0,0.0,0.0,0.0,0.0,0.0,0.0,0.0,0.0,0.0,0.0,0.0,0.0,0.0,0.0,0.0,0.0,0.0,0.0,0.0,0.0,0.0,0.0,0.0,0.0,0.0,0.0,0.0,0.0,0.0,0.0,0.0,0.0,0.0,0.0,0.0,0.0,0.0,0.0,0.0,0.0,0.0,0.0,0.0,0.0,0.0,0.0,0.0,0.0,0.0,0.0,0.0,0.0,0.0,0.0,0.0,0.0,0.0,0.0,0.0,0.0,0.0,0.0,0.0,0.0,0.0,0.0,0.0,0.0,0.0,0.0,0.0,0.0,0.0,0.0,0.0,0.0,0.0,0.0,0.0,0.0,0.0,0.0,0.0,0.0,0.0,0.0,0.0,0.0,0.0,0.0,0.0,0.0,0.0,0.0,0.0,0.0,0.0,0.0,0.0,0.0,0.0,0.0,0.0,0.0,0.0,0.0,0.0,0.0,0.0,0.0,0.0,0.0,0.0,0.0,0.0,0.0,0.0,0.0,0.0,0.0,0.0,0.0,0.0,0.0,0.0,0.0,0.0,0.0,0.0,0.0,0.0,0.0,0.0,0.0,0.0,0.0,0.0,0.0,0.0,0.0,0.0,0.0,0.0,0.0,0.0,0.0,0.0,0.0,0.0,0.0,0.0,0.0,0.0,0.0,0.0,0.0,0.0,0.0,0.0,0.0,0.0,0.0,0.0,0.0,0.0,0.0,0.0,0.0,0.0,0.0,0.0,0.0,0.0,0.0,0.0,0.0,0.0,0.0,0.0,0.0,0.0,0.0,0.0,0.0,0.0,0.0,0.0,0.0,0.0,0.0,0.0,0.0,0.0,0.0,0.0,0.0,0.0,0.0,0.0,0.0,0.0,0.0,0.0,0.0,0.0,0.0,0.0,0.0,0.0,0.0,0.0,0.0,0.0,0.0,0.0,0.0,0.0,0.0,0.0,0.0,0.0,0.0,0.0,0.0,0.0,0.0,0.0,0.0,0.0,0.0,0.0,0.0,0.0,0.0,0.0,0.0,0.0,0.0,0.0,0.0,0.0,0.0,0.0,0.0,0.0,0.0,0.0,0.0,0.0,0.0,0.0,0.0,0.0,0.0,0.0,0.0,0.0,0.0,0.0,0.0,0.0,0.0,0.0,0.0,0.0,0.0,0.0,0.0,0.0,0.0,0.0,0.0,0.0,0.0,0.0,0.0,0.0,0.0,0.0,0.0,0.0,0.0,0.0,0.0,0.0,0.0,0.0,0.0,0.0,0.0,0.0,0.0,0.0,0.0,0.0,0.0,0.0,0.0,0.0,0.0,0.0,0.0,0.0,0.0,0.0,0.0,0.0,0.0,0.0,0.0,0.0,0.0,0.0,0.0,0.0,0.0,0.0,0.0,0.0,0.0,0.0,0.0,0.0,0.0,0.0,0.0,0.0,0.0,0.0,0.0,0.0,0.0,0.0,0.0,0.0,0.0,0.0,0.0,0.0,0.0,0.0,0.0,0.0,0.0,0.0,0.0,0.0,0.0,0.0,0.0,0.0,0.0,0.0,0.0,0.0,0.0,0.0,0.0,0.0,0.0,0.0,0.0,0.0,0.0,0.0,0.0,0.0,0.0,0.0,0.0,0.0,0.0,0.0,0.0,0.0,0.0,0.0,0.0,0.0,0.0,0.0,0.0,0.0,0.0,0.0,0.0,0.0,0.0,0.0,0.0,0.0,0.0,0.0,0.0,0.0,0.0,0.0,0.0,0.0,0.0,0.0,0.0,0.0,0.0,0.0,0.0,0.0,0.0,0.0,0.0,0.0,0.0,0.0,0.0,0.0,0.0,0.0,0.0,0.0,0.0,0.0,0.0,0.0,0.0,0.0,0.0,0.0,0.0,0.0,0.0,0.0,0.0,0.0,0.0,0.0,0.0,0.0,0.0,0.0,0.0,0.0,0.0,0.0,0.0,0.0,0.0,0.0,0.0,0.0,0.0,0.0,0.0,0.0,0.0,0.0,0.0,0.0,0.0,0.0,0.0,0.0,0.0,0.0,0.0,0.0,0.0,0.0,0.0,0.0,0.0,0.0,0.0,0.0,0.0,0.0,0.0,0.0,0.0,0.0,0.0,0.0,0.0,0.0,0.0,0.0,0.0,0.0,0.0,0.0,0.0,0.0,0.0,0.0,0.0,0.0,0.0,0.0,0.0,0.0,0.0,0.0,0.0,0.0,0.0,0.0,0.0,0.0,0.0,0.0,0.0,0.0,0.0,0.0,0.0,0.0,0.0,0.0,0.0,0.0,0.0,0.0,0.0,0.0,0.0,0.0,0.0,0.0,0.0,0.0,0.0,0.0,0.0,0.0,0.0,0.0,0.0,0.0,0.0,0.0,0.0,0.0,0.0,0.0,0.0,0.0,0.0,0.0,0.0,0.0,0.0,0.0,0.0,0.0,0.0,0.0,0.0,0.0,0.0,0.0,0.0,0.0,0.0,0.0,0.0,0.0,0.0,0.0,0.0,0.0,0.0,0.0,0.0,0.0,0.0,0.0,0.0,0.0,0.0,0.0,0.0,0.0,0.0,0.0,0.0,0.0,0.0,0.0,0.0,0.0,0.0,0.0,0.0,0.0,0.0,0.0,0.0,0.0,0.0,0.0,0.0,0.0,0.0,0.0,0.0,0.0,0.0,0.0,0.0,0.0,0.0,0.0,0.0,0.0,0.0,0.0,0.0,0.0,0.0,0.0,0.0,0.0,0.0,0.0,0.0,0.0,0.0,0.0,0.0,0.0,0.0,0.0,0.0,0.0,0.0,0.0,0.0,0.0,0.0,0.0,0.0,0.0,0.0,0.0,0.0,0.0,0.0,0.0,0.0,0.0,0.0,0.0,0.0,0.0,0.0,0.0,0.0,0.0,0.0,0.0,0.0,0.0,0.0,0.0,0.0,0.0,0.0,0.0,0.0,0.0,0.0,0.0,0.0,0.0,0.0,0.0,0.0,0.0,0.0,0.0,0.0,0.0,0.0,0.0,0.0,0.0,0.0,0.0,0.0,0.0,0.0,0.0,0.0,0.0,0.0,0.0,0.0,0.0,0.0,0.0,0.0,0.0,0.0,0.0,0.0,0.0,0.0,0.0,0.0,0.0,0.0,0.0,0.0,0.0,0.0,0.0,0.0,0.0,0.0,0.0,0.0,0.0,0.0,0.0,0.0,0.0,0.0,0.0,0.0,0.0,0.0,0.0,0.0,0.0,0.0,0.0,0.0,0.0,0.0,0.0,0.0,0.0,0.0,0.0,0.0,0.0,0.0,0.0,0.0,0.0,0.0,0.0,0.0,0.0,0.0,0.0,0.0,0.0,0.0,0.0,0.0,0.0,0.0,0.0,0.0,0.0,0.0,0.0,0.0,0.0,0.0,0.0,0.0,0.0,0.0,0.0,0.0,0.0,0.0,0.0,0.0,0.0,0.0,0.0,0.0,0.0,0.0,0.0,0.0,0.0,0.0,0.0,0.0,0.0,0.0,0.0,0.0,0.0,0.0,0.0,0.0,0.0,0.0,0.0,0.0,0.0,0.0,0.0,0.0,0.0,0.0,0.0,0.0,0.0,0.0,0.0,0.0,0.0,0.0,0.0,0.0,0.0,0.0,0.0,0.0,0.0,0.0,0.0,0.0,0.0,0.0,0.0,0.0,0.0,0.0,0.0,0.0,0.0,0.0,0.0,0.0,0.0,0.0,0.0,0.0,0.0,0.0,0.0,0.0,0.0,0.0,0.0,0.0,0.0,0.0,0.0,0.0,0.0,0.0,0.0,0.0,0.0,0.0,0.0,0.0,0.0,0.0,0.0,0.0,0.0,0.0,0.0,0.0,0.0,0.0,0.0,0.0,0.0,0.0,0.0,0.0,0.0,0.0,0.0,0.0,0.0,0.0,0.0,0.0,0.0,0.0,0.0,0.0,0.0,0.0,0.0,0.0,0.0,0.0,0.0,0.0,0.0,0.0,0.0,0.0,0.0,0.0,0.0,0.0,0.0,0.0,0.0,0.0,0.0,0.0,0.0,0.0,0.0,0.0,0.0,0.0,0.0,0.0,0.0,0.0,0.0,0.0,0.0,0.0,0.0,0.0,0.0,0.0,0.0,0.0,0.0,0.0,0.0,0.0,0.0,0.0,0.0,0.0,0.0,0.0,0.0,0.0,0.0,0.0,0.0,0.0,0.0,0.0,0.0,0.0,0.0,0.0,0.0,0.0,0.0,0.0,0.0,0.0,0.0,0.0,0.0,0.0,0.0,0.0,0.0,0.0,0.0,0.0,0.0,0.0,0.0,0.0,0.0,0.0,0.0,0.0,0.0,0.0,0.0,0.0,0.0,0.0,0.0,0.0,0.0,0.0,0.0,0.0,0.0,0.0,0.0,0.0,0.0,0.0,0.0,0.0,0.0,0.0,0.0,0.0,0.0,0.0,0.0,0.0,0.0,0.0,0.0,0.0,0.0,0.0,0.0,0.0,0.0,0.0,0.0,0.0,0.0,0.0,0.0,0.0,0.0,0.0,0.0,0.0,0.0,0.0,0.0,0.0,0.0,0.0,0.0,0.0,0.0,0.0,0.0,0.0,0.0,0.0,0.0,0.0,0.0,0.0,0.0,0.0,0.0,0.0,0.0,0.0,0.0,0.0,0.0,0.0,0.0,0.0,0.0,0.0,0.0,0.0,0.0,0.0,0.0,0.0,0.0,0.0,0.0,0.0,0.0,0.0,0.0,0.0,0.0,0.0,0.0,0.0,0.0,0.0,0.0,0.0,0.0,0.0,0.0,0.0,0.0,0.0,0.0,0.0,0.0,0.0,0.0,0.0,0.0,0.0,0.0,0.0,0.0,0.0,0.0,0.0,0.0,0.0,0.0,0.0,0.0,0.0,0.0,0.0,0.0,0.0,0.0,0.0,0.0,0.0,0.0,0.0,0.0,0.0,0.0,0.0,0.0,0.0,0.0,0.0,0.0,0.0,0.0,0.0,0.0,0.0,0.0,0.0,0.0,0.0,-1.3977,-1.3705,0.0,0.0,0.0,0.0,0.0,0.0,0.0,0.0,0.0,0.0,0.0,0.0,0.0,0.0,0.0,0.0,0.0,0.0,0.0,0.0,0.0,0.0,0.0,0.0,0.0,0.0,0.0,0.0,0.0,0.0,0.0,0.0,0.0,0.0,0.0,0.0,0.0,0.0,-2.105,-2.0585,-2.0057,-2.053,-2.0395,-1.9826,0.0,0.0,0.0,0.0,0.0,0.0,0.0,0.0,0.0,0.0,0.0,0.0,0.0,0.0,0.0,0.0,0.0,0.0,0.0,0.0,0.0,0.0,0.0,0.0,0.0,0.0,0.0,0.0,0.0,0.0,0.0,0.0,0.0,0.0,0.0,0.0,0.0,0.0,0.0,0.0,0.0,0.0,0.0,0.0,0.0,0.0,0.0,0.0,0.0,0.0,0.0,0.0,0.0,0.0,0.0,0.0,0.0,0.0,0.0,0.0,0.0,0.0,0.0,0.0,0.0,0.0,0.0,0.0,0.0,0.0,-1.5204,-1.4682,0.0,0.0,0.0,0.0,0.0,0.0,0.0,0.0,0.0,0.0,0.0,0.0,0.0,0.0,0.0,0.0,0.0,0.0,0.0,0.0,0.0,0.0,0.0,0.0,-2.0684,-2.0684,-2.0801,0.0,0.0,0.0,0.0,0.0,0.0,0.0,0.0,-2.1346,-2.1304,-2.1045,-2.0209,-1.9904,-2.0062,-1.936,-1.8643,-1.7943,-1.9005,0.0,0.0,0.0,0.0,0.0,0.0,0.0,0.0,0.0,0.0,0.0,0.0,0.0,0.0,0.0,0.0,0.0,0.0,0.0,0.0,0.0,0.0,0.0,0.0,0.0,0.0,0.0,0.0,0.0,0.0,0.0,0.0,0.0,0.0,0.0,0.0,0.0,0.0,0.0,0.0,0.0,0.0,0.0,0.0,0.0,0.0,0.0,0.0,0.0,0.0,0.0,0.0,0.0,0.0,0.0,0.0,0.0,0.0,0.0,0.0,0.0,0.0,0.0,-1.775,-1.8039,-1.7984,-1.8039,-1.7989,-1.7871,-1.7076,-1.6391,-1.5739,-1.5364,0.0,0.0,0.0,0.0,0.0,0.0,0.0,0.0,0.0,0.0,0.0,0.0,0.0,0.0,0.0,0.0,0.0,0.0,0.0,0.0,0.0,-2.0661,-2.0933,-2.1112,-2.1484,-2.1738,0.0,0.0,0.0,0.0,0.0,0.0,-2.119,-2.1912,-2.1729,-2.0513,-1.9766,-1.9508,-1.9669,-1.9838,-1.949,-1.8636,-1.8072,-1.8398,-1.9277,0.0,0.0,0.0,0.0,0.0,0.0,0.0,0.0,0.0,0.0,0.0,0.0,0.0,0.0,0.0,0.0,0.0,0.0,0.0,0.0,0.0,0.0,0.0,0.0,0.0,0.0,0.0,0.0,0.0,0.0,0.0,0.0,0.0,0.0,0.0,0.0,0.0,0.0,0.0,0.0,0.0,-1.3631,-1.3365,0.0,0.0,0.0,0.0,0.0,0.0,0.0,0.0,0.0,0.0,0.0,0.0,0.0,-1.7285,-1.7596,-1.8196,-1.8279,-1.7849,-1.8776,-1.9058,-1.876,-1.9072,-1.9269,-1.9497,-1.935,0.0,-1.6443,-1.5882,0.0,0.0,0.0,0.0,0.0,0.0,0.0,0.0,0.0,0.0,0.0,0.0,0.0,0.0,0.0,0.0,0.0,0.0,0.0,0.0,0.0,-2.1053,-2.153,-2.1863,-2.2662,-2.3076,-2.2746,0.0,0.0,0.0,0.0,-2.119,-2.119,-2.1561,-2.1349,-2.0534,-2.0214,-2.0043,-1.9963,-2.0491,-2.0619,-2.0384,-1.9849,-1.9145,-1.8348,-1.7781,0.0,0.0,0.0,0.0,0.0,0.0,0.0,0.0,0.0,0.0,0.0,0.0,0.0,0.0,0.0,0.0,0.0,0.0,0.0,0.0,0.0,0.0,0.0,0.0,0.0,0.0,0.0,0.0,0.0,0.0,0.0,0.0,0.0,0.0,0.0,0.0,0.0,0.0,0.0,-1.3982,-1.4238,-1.4112,-1.4601,-1.4782,0.0,0.0,0.0,0.0,0.0,0.0,0.0,0.0,0.0,-1.7506,-1.7832,-1.8266,-1.8751,-1.9287,-1.9537,-1.9519,-2.0315,-2.0596,-2.0401,-2.0596,-2.073,-2.0775,-2.0615,-1.9819,-1.8534,-1.7673,-1.6941,-1.6423,0.0,0.0,0.0,0.0,-1.5904,-1.6041,0.0,0.0,0.0,0.0,0.0,0.0,0.0,0.0,0.0,0.0,0.0,0.0,-2.0709,-2.1612,-2.2466,-2.3089,-2.3994,-2.4373,-2.3954,-2.3305,0.0,0.0,0.0,-2.0953,-2.111,-2.1036,-2.0873,-2.0523,-2.0652,-2.0717,-2.0683,-2.1365,-2.1817,-2.2064,-2.1889,-2.0536,-1.8423,-1.8174,-1.7472,-1.6506,0.0,0.0,0.0,0.0,0.0,0.0,0.0,0.0,0.0,0.0,0.0,0.0,0.0,0.0,0.0,0.0,0.0,0.0,0.0,0.0,0.0,0.0,0.0,0.0,0.0,0.0,0.0,0.0,0.0,0.0,0.0,0.0,0.0,0.0,0.0,0.0,0.0,-1.4504,-1.4904,-1.4669,-1.5493,-1.5723,0.0,0.0,0.0,0.0,0.0,0.0,-1.6941,-1.7582,-1.825,-1.8918,-1.9225,-1.9666,-2.0315,-2.0695,-2.0975,-2.1122,-2.1563,-2.1777,-2.1777,-2.1777,-2.1882,-2.1936,-2.1657,-2.1229,-2.0575,-1.9252,-1.8143,-1.7235,-1.678,-1.6567,-1.6513,-1.658,-1.671,-1.6767,0.0,0.0,0.0,0.0,0.0,0.0,0.0,0.0,0.0,0.0,0.0,-1.9832,-2.12,-2.2471,-2.3756,-2.5151,-2.5371,-2.5409,-2.5421,-2.3172,-2.1873,-2.1835,-2.0642,-2.0269,-2.091,-2.0671,-2.0457,-2.0332,-2.0562,-2.1117,-2.2019,-2.2672,-2.3005,-2.307,-2.3278,-2.2644,-2.1364,-1.952,-1.8525,-1.8072,-1.6843,0.0,0.0,0.0,0.0,0.0,0.0,0.0,0.0,0.0,0.0,0.0,0.0,0.0,0.0,0.0,0.0,0.0,0.0,0.0,0.0,0.0,0.0,0.0,0.0,0.0,0.0,0.0,0.0,0.0,0.0,0.0,0.0,0.0,0.0,0.0,0.0,0.0,0.0,-1.4603,-1.6295,0.0,0.0,0.0,0.0,-1.662,-1.7689,-1.849,-1.8771,-1.9613,-2.0481,-2.1413,-2.1657,-2.2098,-2.2753,-2.2712,-2.2592,-2.2325,-2.2365,-2.2378,-2.2378,-2.2378,-2.2525,-2.2792,-2.2847,-2.2445,-2.1764,-2.004,-1.9118,-1.8731,-1.7849,-1.7862,-1.829,-1.7729,-1.7689,-1.7889,0.0,0.0,0.0,0.0,0.0,0.0,0.0,0.0,-1.9292,-1.9292,-1.9751,-2.0649,-2.218,-2.3956,-2.5537,-2.6809,-2.7456,-2.7382,-2.6483,-2.4578,-2.3345,-2.2957,-2.1773,-2.1404,-2.2046,-2.0883,-2.0819,-2.2034,-2.1675,-2.1962,-2.2666,-2.3105,-2.3383,-2.3365,-2.3478,-2.3176,-2.2432,-2.1145,-1.9736,-1.8289,-1.7614,-1.6708,0.0,0.0,0.0,0.0,0.0,0.0,0.0,0.0,0.0,0.0,0.0,0.0,0.0,0.0,0.0,0.0,0.0,0.0,0.0,0.0,0.0,0.0,0.0,0.0,0.0,0.0,0.0,0.0,0.0,0.0,0.0,0.0,0.0,0.0,0.0,0.0,0.0,-1.7609,-1.8784,0.0,-1.8317,-1.8611,-1.8811,-1.8704,-1.9613,-2.0388,-2.0869,-2.155,-2.2338,-2.3233,-2.318,-2.3327,-2.3728,-2.3541,-2.3394,-2.3287,-2.3287,-2.3287,-2.3287,-2.3086,-2.2953,-2.2914,-2.2659,-2.2352,-2.1924,-2.1172,-2.0374,-1.972,-1.9212,-1.9025,-1.9025,-1.8867,-1.8798,-1.8865,0.0,0.0,0.0,0.0,0.0,0.0,0.0,0.0,-1.9347,-1.9494,-2.0338,-2.1614,-2.3565,-2.5454,-2.727,-2.8847,-2.8865,-2.8391,-2.7475,-2.5348,-2.3929,-2.3402,-2.2474,-2.2043,-2.213,-2.1418,-2.1525,-2.251,-2.237,-2.2641,-2.3303,-2.3535,-2.3688,-2.3761,-2.3761,-2.3595,-2.3248,-2.2524,-2.0948,-1.8968,-1.8368,-1.7589,-1.6664,0.0,0.0,0.0,0.0,0.0,0.0,0.0,0.0,0.0,0.0,0.0,0.0,0.0,0.0,0.0,0.0,0.0,0.0,0.0,0.0,0.0,0.0,0.0,0.0,0.0,0.0,0.0,0.0,0.0,0.0,0.0,0.0,0.0,0.0,-1.7716,-1.8945,-1.9452,-2.0548,-2.0962,-2.0174,-2.0548,-2.0788,-2.0695,-2.1603,-2.2325,-2.2712,-2.3287,-2.3888,-2.4476,-2.4409,-2.4449,-2.4649,-2.4356,-2.4168,-2.4062,-2.3968,-2.3861,-2.3754,-2.346,-2.3207,-2.3006,-2.2699,-2.2405,-2.2111,-2.1817,-2.1296,-2.0641,-2.0254,-2.004,-1.9947,-1.984,-1.9872,-1.9786,0.0,0.0,0.0,0.0,0.0,0.0,0.0,-1.9152,-1.9457,-1.9838,-2.0973,-2.2722,-2.5142,-2.694,-2.8828,-3.1231,-2.9599,-2.8425,-2.8388,-2.5362,-2.3352,-2.2957,-2.2571,-2.1991,-2.1106,-2.2275,-2.2476,-2.1681,-2.251,-2.3229,-2.3872,-2.3914,-2.4039,-2.4266,-2.4266,-2.4102,-2.3802,-2.3515,-2.2236,-2.0211,-1.9236,-1.8652,-1.8099,0.0,0.0,0.0,0.0,0.0,0.0,0.0,0.0,0.0,0.0,0.0,0.0,0.0,0.0,0.0,0.0,0.0,0.0,0.0,0.0,0.0,0.0,0.0,0.0,0.0,0.0,0.0,0.0,0.0,0.0,0.0,0.0,0.0,-1.734,-1.9011,-2.0214,-1.996,-2.1443,-2.2044,-2.0922,-2.2111,-2.2819,-2.2525,-2.3594,-2.4262,-2.4262,-2.4796,-2.5117,-2.5117,-2.5384,-2.5518,-2.5518,-2.5224,-2.493,-2.4636,-2.4356,-2.4075,-2.3794,-2.3487,-2.3354,-2.3327,-2.3006,-2.2712,-2.2405,-2.2124,-2.183,-2.1574,-2.0922,-2.0855,-2.1082,-2.0788,-2.0681,-2.0588,0.0,0.0,0.0,0.0,0.0,0.0,0.0,-1.9033,-1.9257,-1.9838,-2.1705,-2.381,-2.6023,-2.848,-3.0479,-3.1744,-3.0259,-2.9012,-2.8425,-2.5619,-2.3723,-2.3151,-2.2564,-2.243,-2.2874,-2.2454,-2.2537,-2.3236,-2.3467,-2.3614,-2.3846,-2.3836,-2.389,-2.391,-2.391,-2.387,-2.3789,-2.3708,-2.3105,-2.1997,-2.0437,-1.9237,-1.8247,0.0,0.0,0.0,0.0,0.0,0.0,0.0,0.0,0.0,0.0,0.0,0.0,0.0,0.0,0.0,0.0,0.0,0.0,0.0,0.0,0.0,0.0,0.0,0.0,0.0,0.0,0.0,0.0,0.0,0.0,0.0,-1.8637,-1.972,-1.9426,-2.0788,-2.2111,-2.2899,-2.3607,-2.3981,-2.3875,-2.4422,-2.4663,-2.4369,-2.505,-2.5478,-2.5478,-2.5625,-2.5812,-2.6026,-2.5905,-2.5732,-2.5518,-2.5224,-2.493,-2.4636,-2.4556,-2.4476,-2.4382,-2.4102,-2.3848,-2.3634,-2.3327,-2.302,-2.2712,-2.2418,-2.2124,-2.1804,-2.1216,-2.1042,-2.1096,-2.1015,-2.0722,-2.0307,0.0,0.0,0.0,0.0,0.0,0.0,0.0,-1.8971,-1.929,-2.0058,-2.2089,-2.4267,-2.6371,-2.8352,-2.9984,-3.1139,-2.9287,-2.7856,-2.7398,-2.5727,-2.4615,-2.4368,-2.3934,-2.3961,-2.4516,-2.3456,-2.326,-2.3955,-2.4075,-2.4195,-2.4315,-2.4315,-2.4315,-2.4315,-2.4315,-2.4249,-2.4128,-2.4008,-2.3754,-2.333,-2.1774,-2.055,-1.9564,-1.8115,-1.7469,-1.7168,-1.6348,-1.6006,-1.5901,-1.5335,0.0,0.0,0.0,0.0,0.0,0.0,0.0,0.0,0.0,0.0,0.0,0.0,0.0,0.0,0.0,0.0,0.0,0.0,0.0,0.0,0.0,0.0,0.0,0.0,-2.012,-2.1376,-2.183,-2.2739,-2.3647,-2.4476,-2.4823,-2.5117,-2.5424,-2.5598,-2.5678,-2.5638,-2.6052,-2.6213,-2.605,-2.6186,-2.6279,-2.6213,-2.6159,-2.6052,-2.5879,-2.5598,-2.5358,-2.5184,-2.4943,-2.4823,-2.481,-2.4396,-2.4115,-2.3928,-2.3514,-2.33,-2.3193,-2.2645,-2.2392,-2.2285,0.0,0.0,0.0,0.0,-2.0815,-2.0401,0.0,0.0,0.0,0.0,0.0,0.0,0.0,-1.8812,-1.9282,-2.0327,-2.2236,-2.4212,-2.6169,-2.727,-2.8352,-2.98,-2.7453,-2.5929,-2.5892,-2.5635,-2.5658,-2.6172,-2.6127,-2.5975,-2.5856,-2.5002,-2.4407,-2.4302,-2.4596,-2.4877,-2.513,-2.513,-2.513,-2.513,-2.509,-2.4957,-2.4716,-2.4396,-2.4249,-2.4155,-2.302,-2.2164,-2.14,-1.9426,-1.8771,-1.8704,-1.7341,-1.6526,-1.6011,-1.5878,0.0,0.0,0.0,0.0,0.0,0.0,0.0,0.0,0.0,0.0,0.0,0.0,0.0,0.0,0.0,0.0,0.0,0.0,0.0,0.0,0.0,0.0,0.0,0.0,-2.1496,-2.2779,-2.4195,-2.4649,-2.4917,-2.5157,-2.5464,-2.5745,-2.5985,-2.6092,-2.6226,-2.6426,-2.6707,-2.6627,-2.6079,-2.6507,0.0,0.0,0.0,-2.6373,-2.6346,-2.6052,-2.5892,-2.5929,-2.5291,-2.5024,-2.501,-2.4489,-2.4235,-2.4168,-2.3621,-2.3514,-2.3661,-2.2819,-2.2605,-2.2726,-2.1949,-2.1376,-2.1109,-2.1109,-2.0922,-2.0681,0.0,0.0,0.0,0.0,0.0,0.0,0.0,-1.8474,-1.8917,-2.0093,-2.2025,-2.3772,-2.5014,-2.6774,-2.795,-2.8263,-2.6609,-2.5396,-2.5032,-2.5598,-2.6298,-2.715,-2.752,-2.7263,-2.6349,-2.6401,-2.5901,-2.4917,-2.5197,-2.5371,-2.5424,-2.5424,-2.5424,-2.5424,-2.5184,-2.517,-2.5304,-2.477,-2.4556,-2.4489,-2.3794,-2.2726,-2.1494,-2.0321,-1.9345,-1.8504,-1.7983,-1.7662,-1.7423,-1.6513,-1.6393,-1.6522,-1.5524,0.0,0.0,0.0,0.0,0.0,0.0,0.0,0.0,0.0,0.0,0.0,0.0,0.0,0.0,0.0,0.0,0.0,0.0,0.0,0.0,-2.179,-2.3193,-2.4476,-2.5478,-2.5865,-2.5985,-2.5812,-2.6253,-2.6493,-2.6319,-2.6947,-2.7188,-2.6774,-2.7014,-2.7028,-2.668,-2.6547,-2.6426,-2.6306,-2.636,-2.6279,-2.6039,-2.5436,-2.5172,-2.5251,-2.4517,0.0,-2.4716,-2.4609,-2.4422,-2.4182,-2.3834,-2.3581,-2.338,-2.2953,-2.2672,-2.2445,-2.1804,-2.1376,-2.1109,-2.1109,-2.0922,-2.0681,0.0,0.0,0.0,0.0,0.0,0.0,0.0,-1.8271,-1.8725,-1.9615,-2.0988,-2.2319,-2.3553,-2.4422,-2.5112,-2.5619,-2.4537,-2.4024,-2.4496,-2.5111,-2.6044,-2.7166,-2.6906,-2.6553,-2.6179,-2.5754,-2.5433,-2.5077,-2.5371,-2.5585,-2.5732,-2.5879,-2.5879,-2.5732,-2.5585,-2.5438,-2.5277,-2.4983,-2.477,-2.4583,-2.4008,-2.3209,-2.2177,-2.1229,-2.0254,-1.9319,-1.9025,-1.8488,-1.7929,-1.7528,-1.7181,-1.682,-1.6233,-1.5752,-1.5337,0.0,0.0,0.0,0.0,0.0,0.0,0.0,0.0,0.0,0.0,0.0,0.0,0.0,0.0,-1.9452,-1.9733,0.0,-2.2392,-2.3554,-2.4502,-2.5384,-2.6266,-2.652,-2.6547,-2.6413,-2.652,-2.664,-2.6703,-2.6716,-2.6701,-2.66,-2.6483,-2.6339,-2.6196,-2.628,-2.6135,-2.5766,-2.599,-2.5859,-2.5322,-2.5088,-2.4959,-2.4892,-2.4378,-2.4248,-2.4462,-2.4175,-2.3966,-2.381,-2.3379,-2.3197,-2.3158,-2.2714,-2.2408,-2.211,-2.1674,-2.1461,-2.1309,-2.1162,-2.1015,-2.0895,0.0,0.0,0.0,0.0,0.0,0.0,0.0,0.0,-1.8446,-1.9165,-1.9922,-2.081,-2.1987,-2.1925,-2.2107,-2.2858,-2.2602,-2.2866,-2.3872,-2.4639,-2.5645,-2.6806,-2.6238,-2.6002,-2.6047,-2.5308,-2.4972,-2.5157,-2.5518,-2.5812,-2.6052,-2.6279,-2.6239,-2.6037,-2.6037,-2.5692,-2.5251,-2.5184,-2.4997,-2.4676,-2.4088,-2.342,-2.2699,-2.199,-2.1056,-2.0187,-1.984,-1.8998,-1.8009,-1.8183,-1.7582,-1.678,-1.6727,-1.6339,-1.5858,-1.5565,-1.5231,0.0,0.0,0.0,0.0,0.0,0.0,0.0,0.0,0.0,-1.841,-1.9185,-2.0134,-2.1069,-2.1909,-2.2831,-2.3864,-2.4927,-2.5315,-2.5726,-2.6559,-2.6612,-2.6586,-2.6586,-2.6507,-2.6479,-2.6661,-2.6232,-2.6005,-2.6255,-2.5855,-2.5613,-2.5549,-2.5809,-2.5667,-2.5142,-2.5384,-2.5321,-2.4697,-2.4746,-2.4682,-2.4519,-2.4175,-2.4036,-2.41,-2.3655,-2.3339,-2.3263,-2.2777,-2.2637,-2.2752,-2.2281,-2.2005,-2.1787,-2.1434,-2.1346,-2.1381,-2.1152,-2.1109,-2.1109,0.0,0.0,0.0,0.0,0.0,0.0,0.0,0.0,0.0,-1.89,-1.9565,-2.0079,-2.0436,-2.0898,-2.1101,-2.0888,-2.2053,-2.2852,-2.2929,-2.4539,-2.5894,-2.6681,-2.7451,-2.7447,-2.644,-2.7055,-2.6735,-2.5464,-2.6026,-2.6306,-2.6346,-2.6373,-2.6239,-2.6037,-2.6037,-2.5996,-2.5916,-2.5571,-2.5291,-2.4983,-2.4396,-2.3474,-2.2432,-2.2071,-2.1229,-2.016,-1.9613,-1.8824,-1.7916,-1.7475,-1.7259,-1.7099,-1.6794,-1.6486,-1.6166,-1.5872,0.0,-1.5062,-1.5284,-1.5565,-1.6064,-1.7409,-1.7475,-1.7943,0.0,0.0,-2.0722,-2.2084,-2.2699,-2.3086,-2.346,-2.3971,-2.4488,-2.5204,-2.5371,-2.5605,-2.5937,-2.5783,-2.5711,-2.5711,-2.6216,-2.6258,-2.5388,-2.5937,-2.6153,-2.5758,-2.5816,-2.5816,-2.5562,-2.5388,-2.5168,-2.513,-2.4954,-2.4801,-2.4685,-2.3932,-2.3681,-2.396,-2.338,-2.3242,-2.354,-2.3402,-2.3237,-2.3044,-2.2472,-2.2103,-2.1899,-2.1836,-2.1701,-2.1395,-2.1101,-2.0833,-2.0682,-2.0961,-2.1109,-2.1109,0.0,0.0,0.0,0.0,0.0,0.0,0.0,0.0,0.0,0.0,-1.8516,-1.897,-1.9448,-1.9943,-2.0231,-2.0149,-2.1394,-2.2375,-2.2757,-2.3809,-2.463,-2.51,-2.5251,-2.5313,-2.5166,-2.5496,-2.5656,-2.5518,-2.5758,-2.5972,-2.6146,-2.6306,-2.6319,-2.6213,-2.6213,-2.6119,-2.601,-2.5638,-2.5344,-2.4997,-2.4062,-2.3287,-2.2579,-2.159,-2.0494,-1.9381,-1.9199,-1.8424,0.0,0.0,-1.6887,-1.6874,-1.674,-1.662,-1.6473,-1.6166,-1.5912,0.0,-1.6335,-1.6887,-1.7609,-1.8571,-1.9132,-1.9893,-2.1603,-2.183,-2.2017,-2.3153,-2.3901,-2.4309,-2.4209,-2.4652,-2.5075,-2.5422,-2.5558,-2.5702,-2.6134,-2.5677,-2.5088,-2.4535,-2.4465,-2.4566,-2.4907,-2.5062,-2.5013,-2.503,-2.4857,-2.477,-2.4807,-2.4721,-2.4652,-2.4332,-2.4527,-2.4315,-2.3757,-2.354,-2.3344,-2.3177,-2.2914,-2.2865,-2.3004,-2.2682,-2.2312,-2.1879,-2.1645,-2.1398,-2.1151,-2.1151,-2.1127,-2.0989,-2.0714,-2.057,-2.0488,-2.0528,-2.0552,-2.0552,0.0,0.0,0.0,0.0,0.0,0.0,0.0,0.0,0.0,0.0,-1.7814,-1.8193,-1.8836,-1.9222,-1.9507,-1.9647,-2.0461,-2.1274,-2.1828,-2.2371,-2.2872,-2.3171,-2.3215,-2.3474,-2.4075,-2.4235,-2.4676,-2.5398,-2.5478,-2.5625,-2.5838,-2.6052,-2.6106,-2.6026,-2.6106,-2.5985,-2.5705,-2.5571,-2.5251,-2.4756,-2.3821,-2.302,-2.2231,-2.0935,-1.9653,-1.8544,-1.8464,-1.7675,0.0,0.0,-1.6233,-1.6233,-1.6326,-1.6393,-1.6433,-1.6313,-1.6442,-1.6656,-1.7085,-1.7983,-1.8905,-1.9666,-2.0668,-2.1683,-2.2525,-2.2873,-2.326,-2.4075,-2.4616,-2.4851,-2.455,-2.4661,-2.4893,-2.5139,-2.5143,-2.5276,-2.574,-2.5087,-2.4281,-2.3424,-2.2744,-2.2781,-2.3852,-2.3864,-2.3915,-2.4251,-2.4021,-2.3844,-2.4118,-2.419,-2.4172,-2.384,-2.4025,-2.3756,-2.3121,-2.3104,-2.2935,-2.2624,-2.2624,-2.2624,-2.26,-2.2078,-2.1619,-2.1244,-2.1159,-2.0977,-2.0665,-2.0593,-2.0537,-2.0539,-2.0269,-2.0129,-2.0115,-1.9927,-1.9915,-2.0106,0.0,0.0,0.0,0.0,0.0,0.0,0.0,0.0,0.0,0.0,0.0,0.0,0.0,-1.8909,-1.9011,-1.9011,-1.9193,-1.9323,-1.9408,-2.0202,-2.0857,-2.1195,-2.2325,-2.3153,-2.3768,-2.4342,-2.4783,-2.509,-2.5371,-2.5518,-2.5531,-2.5531,-2.5384,-2.513,-2.5411,-2.5384,-2.5117,-2.5398,-2.501,-2.4209,-2.3888,-2.2712,-2.1069,-2.0174,-1.8905,-1.7582,-1.7353,0.0,0.0,-1.5156,-1.5062,-1.5115,-1.5351,-1.5631,0.0,-1.6192,-1.6723,-1.7179,-1.7192,-1.8278,-1.9613,-2.0762,-2.1724,-2.2766,-2.4222,-2.4569,-2.4743,-2.5331,-2.4948,-2.4475,-2.4475,-2.3883,-2.354,-2.4074,-2.4001,-2.3949,-2.4226,-2.3654,-2.2951,-2.2418,-2.1655,-2.1292,-2.1607,-2.2539,-2.3254,-2.3387,-2.3628,-2.3772,-2.3772,-2.3852,-2.384,-2.376,-2.3333,-2.3133,-2.3121,-2.2624,-2.237,-2.2271,-2.2271,-2.2271,-2.2259,-2.1993,-2.1728,-2.145,-2.1172,-2.0977,-2.0653,-2.04,-2.0134,-1.9869,-1.9657,-1.9378,-1.9148,-1.9148,-1.9532,-2.0106,0.0,0.0,0.0,0.0,0.0,0.0,0.0,0.0,0.0,0.0,0.0,0.0,0.0,0.0,0.0,0.0,-1.9199,-1.9073,-1.8801,-1.9553,-1.9876,-1.9671,-2.1162,-2.2244,-2.2579,-2.3367,-2.3915,-2.4209,-2.4502,-2.4649,-2.4649,-2.4836,-2.4877,-2.4796,-2.489,-2.4877,-2.4783,-2.4676,-2.4356,-2.3821,-2.2807,-2.1817,-2.0909,-1.9038,-1.7782,-1.6887,0.0,0.0,-1.5075,-1.4593,-1.4509,-1.4683,-1.4776,-1.515,-1.5671,-1.6366,-1.7128,-1.7916,-1.8691,-1.9987,-2.139,-2.2579,-2.3394,-2.4168,-2.5264,-2.5358,-2.5202,-2.5172,-2.4363,-2.3424,-2.2548,-2.2187,-2.2149,-2.2582,-2.3064,-2.3466,-2.3913,-2.3744,-2.3056,-2.1704,-2.1619,-2.1354,-2.0738,-2.1486,-2.2259,-2.2874,-2.3164,-2.3393,-2.3495,-2.3664,-2.376,-2.376,-2.3671,-2.3406,-2.3121,-2.2939,-2.2685,-2.2334,-2.2334,-2.2078,-2.174,-2.1655,-2.1366,-2.0931,-2.0834,-2.075,-2.0653,-2.0388,-2.0122,-1.9857,-1.9579,-1.9366,-1.9072,-1.9072,-1.9264,-1.9468,0.0,0.0,0.0,0.0,0.0,0.0,0.0,0.0,0.0,0.0,0.0,0.0,0.0,0.0,0.0,0.0,0.0,-1.7797,-1.7735,-1.8096,-1.8276,-1.8318,-1.9586,-2.0481,-2.0882,-2.1456,-2.1897,-2.2205,-2.2592,-2.2792,-2.2792,-2.3193,-2.338,-2.338,-2.338,-2.338,-2.3367,-2.318,-2.2873,-2.2405,-2.1243,-2.0401,-1.9639,-1.7689,-1.6593,0.0,0.0,0.0,-1.4633,-1.4215,-1.4215,-1.4389,-1.4482,-1.507,-1.5885,-1.6767,-1.7809,-1.8931,-2.0107,-2.1496,-2.2886,-2.3752,-2.4454,-2.4948,-2.5438,-2.5255,-2.4927,-2.4295,-2.315,-2.1974,-2.0939,-2.0315,-2.019,-2.0917,-2.151,-2.2114,-2.314,-2.3031,-2.2549,-2.1728,-2.168,-2.1354,0.0,-2.1172,-2.1764,-2.2539,-2.2915,-2.3164,-2.3363,-2.3616,-2.376,-2.376,-2.3676,-2.3538,-2.32,-2.3072,-2.277,-2.2334,-2.2334,-2.2042,-2.1619,-2.1619,-2.1317,-2.081,-2.081,-2.0762,-2.0641,-2.0279,-2.0038,-1.9845,-1.947,-1.9229,-1.9072,-1.9072,-1.9072,-1.9072,0.0,0.0,0.0,0.0,0.0,0.0,0.0,0.0,0.0,0.0,0.0,0.0,0.0,0.0,0.0,0.0,0.0,0.0,-1.6228,-1.5952,-1.6166,-1.7045,-1.7635,-1.8182,-1.8798,-1.8851,-1.9011,-1.935,-1.9867,-2.0087,-2.016,-2.0722,-2.0975,-2.0975,-2.0975,-2.0975,-2.0975,-2.0975,-2.0641,-2.0067,-1.9492,-1.8571,-1.7408,-1.6233,0.0,0.0,0.0,0.0,-1.4095,-1.4108,-1.4148,-1.4255,-1.4492,-1.5431,-1.654,-1.7435,-1.8744,-2.0174,-2.1349,-2.2752,-2.3944,-2.4318,-2.4867,-2.5179,-2.4737,-2.4418,-2.3871,-2.2798,-2.1364,-2.021,-1.961,-1.8447,-1.7913,-1.9229,-1.9543,-2.0311,-2.2066,-2.1704,-2.1667,0.0,0.0,0.0,0.0,0.0,-2.1752,-2.2247,-2.2818,-2.3152,-2.3363,-2.3616,-2.376,-2.376,-2.3519,-2.3387,-2.3351,-2.2899,-2.2588,-2.2334,-2.2334,-2.2114,-2.1848,-2.1848,-2.1619,-2.111,-2.111,-2.0965,-2.0605,-2.0098,-1.9881,-1.9808,-1.9277,-1.9072,-1.9072,-1.9072,-1.9072,-1.9072,0.0,0.0,0.0,0.0,0.0,0.0,0.0,0.0,0.0,0.0,0.0,0.0,0.0,0.0,0.0,0.0,0.0,0.0,-1.5628,-1.5376,-1.533,-1.5558,-1.65,-1.7114,-1.7275,-1.7876,-1.8249,-1.8357,-1.8744,-1.8931,-1.8931,-1.9092,-1.9158,-1.9158,-1.9158,-1.9158,-1.9158,-1.9158,-1.8945,-1.8488,0.0,-1.7447,-1.6807,0.0,0.0,0.0,0.0,0.0,-1.3642,-1.4206,-1.481,-1.5447,-1.5735,-1.6454,-1.7475,-1.8848,-2.0281,-2.1618,-2.2461,-2.3752,-2.4879,-2.4932,-2.5071,-2.4929,-2.4304,-2.3602,-2.265,-2.1112,-1.95,-1.8168,-1.7334,-1.7332,-1.7853,-1.8988,-2.0509,0.0,-2.2995,-2.3478,0.0,-2.3084,0.0,-2.2633,-2.2114,-2.2309,-2.2479,-2.2612,-2.2745,-2.2959,-2.3351,-2.3616,-2.376,-2.376,-2.37,-2.355,-2.3152,-2.2621,-2.2406,-2.2334,-2.2334,-2.2017,-2.1583,-2.1583,-2.1281,-2.0774,-2.0774,-2.0617,-2.0352,-2.0026,-1.976,-1.9543,-1.9205,-1.9072,-1.9072,-1.9072,-1.9072,-1.9072,0.0,0.0,0.0,0.0,0.0,0.0,0.0,0.0,0.0,0.0,0.0,0.0,0.0,0.0,0.0,0.0,0.0,0.0,0.0,-1.4608,-1.462,-1.462,-1.5204,-1.5551,-1.5551,-1.6046,-1.6299,-1.6286,-1.6727,-1.6941,-1.6954,-1.7208,-1.7328,-1.7328,-1.7328,-1.7328,-1.7328,-1.7328,0.0,0.0,0.0,0.0,0.0,0.0,0.0,0.0,0.0,0.0,0.0,0.0,0.0,-1.6292,-1.6989,-1.7708,-1.8654,-1.9996,-2.1293,-2.2397,-2.3323,-2.4405,-2.4992,-2.3939,-2.3568,-2.3122,-2.1802,-2.0589,-1.9597,-1.8935,-1.7418,-1.6153,-1.5976,-1.632,-1.696,0.0,0.0,0.0,-2.273,-2.3406,-2.3804,0.0,-2.3852,0.0,-2.3164,-2.3261,-2.3297,-2.3188,-2.3068,-2.314,-2.3363,-2.3616,-2.376,-2.376,-2.376,-2.3587,-2.3121,-2.2709,-2.2455,-2.2334,-2.2138,-2.1873,-2.1474,-2.1354,-2.1064,-2.0665,-2.0665,-2.0581,-2.0424,-2.0038,-1.9796,-1.9615,-1.9229,-1.9072,-1.9072,-1.9072,-1.9072,-1.9072,0.0,0.0,0.0,0.0,0.0,0.0,0.0,0.0,0.0,0.0,0.0,0.0,0.0,0.0,0.0,0.0,0.0,0.0,0.0,0.0,-1.4082,-1.4082,-1.4082,-1.4082,-1.4082,-1.4082,-1.4082,-1.4039,-1.4546,-1.4799,-1.4812,-1.5272,-1.5498,-1.5498,-1.5498,0.0,0.0,0.0,0.0,0.0,0.0,0.0,0.0,0.0,0.0,0.0,0.0,0.0,0.0,0.0,-1.5596,-1.6514,-1.8059,-1.8945,-1.9693,-2.0823,-2.1948,-2.2923,-2.3678,-2.4485,-2.4529,-2.2406,-2.158,-2.0769,-1.8867,-1.7093,-1.6049,-1.6727,-1.5427,-1.442,-1.5172,-1.5427,-1.5873,-1.7008,0.0,-1.9929,-2.2066,-2.2697,-2.3369,-2.4866,-2.4601,-2.4299,-2.4335,-2.4275,-2.4142,-2.3832,-2.3568,-2.3423,-2.3423,-2.364,-2.376,-2.376,-2.378,-2.3514,-2.3121,-2.283,-2.2564,-2.2334,-2.1993,-2.1728,-2.1474,-2.1185,-2.0919,-2.0665,-2.0665,-2.0629,-2.0533,-2.0074,-1.9845,-1.9736,-1.9265,-1.9072,-1.9072,-1.9072,-1.9072,-1.9072,0.0,0.0,0.0,0.0,0.0,0.0,0.0,0.0,0.0,0.0,0.0,0.0,0.0,0.0,0.0,0.0,0.0,0.0,0.0,0.0,0.0,-1.4082,-1.4082,-1.4082,-1.4082,-1.4082,-1.3997,-1.3773,-1.3877,-1.3844,-1.3673,-1.3775,-1.3814,-1.3814,-1.3814,0.0,0.0,0.0,0.0,0.0,0.0,0.0,0.0,0.0,0.0,0.0,0.0,0.0,0.0,0.0,-1.379,-1.5173,-1.8608,-1.9582,-1.9607,-2.0751,-2.2377,-2.3703,-2.2728,-2.3677,-2.4409,-2.2189,-2.1195,-2.0243,-1.8265,-1.6247,0.0,-1.5662,-1.447,-1.354,-1.435,-1.5052,-1.5994,-1.7491,-1.8867,-2.0484,-2.2685,-2.3333,-2.3985,0.0,-2.4758,-2.4649,-2.4795,-2.4504,-2.4214,-2.4166,-2.3844,-2.37,-2.37,-2.3736,-2.376,-2.376,-2.3418,-2.3218,-2.3121,-2.2648,-2.2382,-2.2334,-2.1993,-2.1728,-2.1474,-2.1185,-2.0919,-2.0665,-2.0665,-2.0424,-2.0014,-1.9929,-1.9615,-1.9205,-1.9108,-1.9072,-1.9072,-1.9072,-1.9072,-1.9072,0.0,0.0,0.0,0.0,0.0,0.0,0.0,0.0,0.0,0.0,-1.1238,0.0,0.0,0.0,0.0,0.0,0.0,0.0,0.0,0.0,0.0,0.0,0.0,0.0,-1.4082,-1.4082,-1.4039,-1.3913,0.0,-1.387,-1.3743,-1.3603,-1.3616,-1.3743,-1.3519,-1.3476,-1.3561,0.0,0.0,0.0,0.0,0.0,0.0,0.0,0.0,0.0,0.0,0.0,0.0,0.0,-1.1991,-1.2388,-1.6665,-1.8685,-1.9572,-2.0594,-2.0979,-2.1241,-2.1812,-2.1926,-2.1397,-1.9288,-1.8223,-1.7159,-1.5307,0.0,0.0,-1.3091,-1.2204,-1.1727,-1.3195,-1.3673,-1.4587,-1.6705,-1.7621,-1.8975,-2.1716,-2.2476,-2.3321,-2.4673,-2.4709,-2.4733,-2.4939,-2.4673,-2.4383,-2.4251,-2.4118,-2.3985,-2.3772,-2.364,-2.3575,-2.343,-2.3043,-2.2854,-2.2721,-2.2467,-2.2273,-2.2054,-2.1788,-2.1595,-2.1462,-2.104,-2.0786,-2.0665,-2.0665,-2.0521,-2.0267,-2.0002,-1.9736,-1.947,-1.9181,-1.9072,-1.9072,-1.9072,-1.9072,-1.9072,0.0,0.0,0.0,0.0,0.0,0.0,0.0,-1.1105,-1.1105,-1.1105,-1.1273,-1.1321,-1.1129,-1.1321,0.0,0.0,0.0,0.0,0.0,0.0,0.0,0.0,0.0,0.0,0.0,0.0,0.0,-1.3955,-1.3913,0.0,0.0,0.0,0.0,0.0,-1.3392,-1.3349,-1.3476,-1.3307,-1.3137,0.0,0.0,-1.1499,0.0,0.0,0.0,0.0,0.0,0.0,0.0,0.0,-1.0546,-1.0521,-1.3636,-1.6333,-1.8484,-1.9315,-1.8917,-1.8627,-2.038,-1.9981,-1.8753,-1.6793,-1.5518,-1.4326,-1.2681,-1.0772,0.0,-1.0966,-1.0337,-1.019,-1.2047,-1.2435,-1.3236,0.0,-1.6138,-1.7341,-2.0343,-2.1353,-2.2367,0.0,-2.4468,0.0,-2.4927,-2.4745,-2.4456,-2.4251,-2.4178,-2.4033,-2.37,-2.3483,-2.3333,-2.3133,-2.2866,-2.26,-2.2259,-2.2211,-2.2042,-2.1788,-2.151,-2.139,-2.1378,-2.0895,-2.0665,-2.0665,-2.0665,-2.0641,-2.0545,-2.0074,-1.9857,-1.9748,-1.9265,-1.9072,-1.9072,-1.9072,-1.9072,-1.9072,0.0,0.0,0.0,0.0,0.0,0.0,0.0,-1.1105,-1.1105,-1.1105,-1.1129,-1.1141,-1.1117,-1.1321,0.0,0.0,0.0,0.0,0.0,0.0,0.0,0.0,0.0,0.0,0.0,0.0,0.0,-1.3476,-1.3264,0.0,0.0,0.0,0.0,0.0,0.0,-1.2796,-1.2784,-1.2796,0.0,0.0,0.0,0.0,0.0,0.0,0.0,0.0,0.0,0.0,0.0,0.0,0.0,-1.1405,-1.0019,-1.1941,-1.477,-1.5268,0.0,0.0,-1.7621,-1.8411,-1.9041,-1.7069,-1.5507,-1.4096,-1.2626,0.0,-0.9388,-1.0902,-1.0337,-0.9953,-1.1121,-1.205,-1.3075,-1.4296,-1.5491,-1.705,-1.9314,-2.0553,-2.174,-2.3291,0.0,0.0,-2.4915,-2.4576,-2.4263,-2.4238,-2.3928,-2.3688,-2.3423,-2.3387,-2.3333,-2.3133,-2.2866,-2.26,-2.2259,-2.2029,-2.1776,-2.151,-2.1233,-2.1171,-2.1159,-2.0798,-2.0665,-2.0665,-2.0665,-2.0533,-2.0291,-2.0002,-1.9736,-1.9536,-1.9193,-1.9072,-1.9072,-1.9072,-1.9072,-1.9072,0.0,0.0,0.0,0.0,0.0,0.0,0.0,-1.1009,-1.1105,-1.1105,-1.1224,-1.1298,-1.1129,-1.1321,0.0,0.0,0.0,0.0,0.0,0.0,0.0,0.0,0.0,0.0,0.0,0.0,-1.2052,-1.1475,-1.1393,0.0,0.0,0.0,0.0,0.0,0.0,-1.0985,-1.1059,0.0,0.0,0.0,0.0,0.0,0.0,0.0,0.0,0.0,0.0,0.0,-0.7606,0.0,0.0,0.0,-0.8259,-0.9273,0.0,0.0,-1.4457,-1.5057,-1.6196,-1.6393,-1.6112,-1.506,-1.3777,-1.2538,-1.143,0.0,-0.8869,-0.9187,-0.8924,-0.8973,-1.0051,-1.0583,-1.1222,-1.2495,0.0,0.0,-1.6583,-1.7931,-1.9567,-2.1981,-2.2585,-2.3273,-2.4444,-2.4214,-2.3916,-2.3916,-2.382,-2.3659,-2.3225,-2.3212,-2.2935,-2.243,-2.2235,-2.1969,-2.1619,-2.1607,-2.1498,-2.1292,-2.1183,-2.1135,-2.1122,-2.0786,-2.0665,-2.0665,-2.0665,-2.0605,-2.0496,-2.0231,-2.0062,-1.9905,-1.9483,-1.9314,-1.9289,-1.9132,-1.9072,-1.9072,0.0,0.0,0.0,0.0,0.0,0.0,-1.0683,-1.0876,-1.1021,-1.1105,-1.1248,-1.1297,-1.1129,-1.1248,-1.1323,-1.1129,0.0,0.0,0.0,0.0,0.0,0.0,0.0,0.0,0.0,0.0,-1.0899,-1.008,-1.007,-1.0089,0.0,0.0,-0.9998,-1.0198,0.0,0.0,0.0,0.0,0.0,0.0,0.0,0.0,0.0,0.0,0.0,0.0,0.0,0.0,0.0,0.0,0.0,0.0,0.0,0.0,0.0,0.0,-1.2103,-1.2282,-1.4367,-1.4354,-1.3749,-1.3383,-1.2393,-1.1301,0.0,0.0,-0.8479,-0.8062,-0.7988,-0.8237,-0.8973,-0.9361,-0.9896,-1.0861,0.0,-1.2951,-1.4647,-1.5898,-1.7635,-2.0472,-2.1076,-2.1909,-2.3502,-2.3768,-2.376,-2.376,-2.376,-2.3611,-2.3145,-2.3121,-2.2757,-2.1897,-2.1873,-2.1607,-2.1135,-2.1257,-2.1221,-2.1013,-2.1013,-2.1013,-2.1013,-2.082,-2.0665,-2.0665,-2.0665,-2.0596,-2.0515,-2.0251,-2.0075,-1.9959,-1.9507,-1.9215,-1.9131,-1.9025,-1.8942,-1.887,0.0,0.0,0.0,0.0,0.0,0.0,0.0,-1.0683,-1.0816,-1.1081,-1.1117,-1.1117,-1.1105,-1.1117,-1.1117,-1.1105,0.0,0.0,0.0,0.0,0.0,0.0,0.0,0.0,0.0,0.0,-1.0606,-0.9796,-0.9724,-0.9714,-0.9714,-0.9714,-0.9714,-0.9704,0.0,0.0,0.0,0.0,0.0,0.0,0.0,0.0,0.0,0.0,0.0,0.0,0.0,0.0,0.0,0.0,0.0,0.0,0.0,0.0,0.0,0.0,-0.9978,-1.09,-1.1647,-1.2284,-1.2712,-1.2556,-1.1613,-1.0616,-1.0092,-0.913,-0.8228,-0.8022,-0.7988,-0.7988,-0.8038,-0.8874,-0.9608,-0.9608,-1.0744,0.0,-1.4051,-1.4997,-1.638,0.0,-1.9579,-2.0533,-2.2126,-2.3237,-2.376,-2.376,-2.376,-2.3611,-2.3145,-2.3121,-2.2757,-2.1897,-2.1873,-2.1607,-2.1135,-2.1135,-2.1001,-2.0665,-2.0665,-2.0665,-2.0665,-2.0665,-2.0665,-2.0665,-2.0665,-2.0457,-2.0098,-1.9839,-1.9529,-1.9153,-1.889,-1.865,-1.8456,-1.8707,-1.8639,-1.8433,0.0,0.0,0.0,0.0,0.0,0.0,0.0,-1.031,-1.0442,-1.0527,-1.0539,-1.0539,-1.0539,-1.0731,-1.084,-1.084,0.0,0.0,0.0,0.0,0.0,0.0,0.0,0.0,0.0,0.0,-0.823,-0.7415,-0.7467,-0.7566,-0.7639,-0.7639,-0.7639,-0.7632,-0.7504,-0.7459,0.0,0.0,0.0,0.0,0.0,0.0,0.0,0.0,0.0,0.0,0.0,0.0,0.0,0.0,0.0,0.0,0.0,0.0,0.0,-0.7842,-0.8825,0.0,-1.0466,-1.1124,-1.1599,-1.1348,-1.069,-0.9992,-0.9537,-0.8832,-0.8228,-0.8022,-0.7988,-0.7988,-0.7988,-0.8874,-0.9401,-0.883,-1.034,0.0,0.0,0.0,-1.438,-1.6145,-1.9,-2.099,-2.1525,-2.2908,-2.3688,-2.3507,-2.3495,-2.3345,-2.2879,-2.2854,-2.2491,-2.1631,-2.1607,-2.1341,-2.0798,-2.0868,-2.075,-2.0665,-2.0665,-2.0527,-2.0318,-2.0128,-1.9908,-1.9702,-1.9702,-1.9472,-1.9265,-1.945,-1.9393,-1.9164,-1.9084,-1.9004,-1.8901,-1.865,-1.8604,-1.8661,0.0,0.0,0.0,0.0,0.0,0.0,0.0,-1.0045,-1.019,-1.0286,-1.0298,-1.0298,-1.0298,-1.0278,-1.0239,-1.0239,0.0,0.0,0.0,0.0,0.0,0.0,0.0,0.0,0.0,-0.7614,-0.7134,-0.6381,-0.6546,-0.6695,-0.679,-0.6844,-0.681,-0.6695,-0.6539,-0.6484,0.0,0.0,0.0,0.0,0.0,0.0,-0.6896,0.0,0.0,0.0,0.0,0.0,0.0,0.0,0.0,0.0,0.0,0.0,0.0,0.0,-0.7916,-0.8743,0.0,-1.0005,-1.0521,-1.0276,-0.9849,0.0,-0.9062,-0.8567,-0.8153,-0.8008,-0.7988,-0.7988,-0.7988,-0.8528,-0.8805,-0.8268,-0.9361,-1.0262,-1.0269,-1.1393,-1.2906,-1.475,-1.811,-2.0302,-2.0465,-2.2324,-2.3478,-2.3309,-2.3297,-2.3104,-2.2745,-2.2636,-2.2261,-2.1498,-2.1474,-2.1221,-2.0747,-2.0527,-2.0409,-2.0383,-2.0245,-1.9979,-1.961,-1.9516,-1.9356,-1.9175,-1.9175,-1.9073,0.0,-1.9207,-1.9172,-1.8899,-1.8899,-1.8787,-1.8597,-1.8396,-1.8351,-1.8373,0.0,0.0,0.0,0.0,0.0,0.0,0.0,0.0,0.0,0.0,0.0,-1.0169,-1.0134,-0.9699,0.0,0.0,0.0,0.0,0.0,0.0,0.0,0.0,0.0,0.0,0.0,-0.7518,-0.7095,-0.6497,-0.6776,-0.6883,-0.6889,-0.7031,-0.6943,-0.6709,-0.6546,-0.6429,0.0,0.0,0.0,0.0,0.0,0.0,0.0,0.0,0.0,0.0,0.0,0.0,0.0,0.0,0.0,0.0,0.0,0.0,0.0,0.0,0.0,0.0,0.0,-0.8927,-0.9435,-0.93,-0.9062,-0.877,-0.8689,-0.8285,0.0,-0.7988,-0.7988,-0.7995,-0.8002,-0.7995,-0.7995,-0.8015,-0.8035,-0.8605,-1.0158,-1.0811,-1.1996,-1.4314,-1.6972,-1.8686,-1.8863,-2.1345,-2.2942,-2.2906,-2.2983,-2.2939,-2.2661,-2.2331,-2.1969,-2.1462,-2.1378,-2.1125,-2.0678,-2.0306,-1.9957,-1.9778,-1.9357,-1.9027,-1.8731,-1.872,-1.8834,-1.905,-1.905,-1.898,-1.8916,-1.8927,-1.8659,-1.832,-1.8401,-1.8132,-1.7755,-1.8003,-1.7938,-1.7723,0.0,0.0,0.0,0.0,0.0,0.0,0.0,0.0,0.0,0.0,0.0,-0.8755,-0.836,-0.8379,0.0,0.0,0.0,0.0,0.0,0.0,0.0,0.0,0.0,0.0,0.0,-0.6602,-0.6507,-0.6347,-0.6722,-0.6883,-0.6889,-0.7031,-0.7004,-0.6865,-0.6593,-0.6429,-0.63,0.0,0.0,0.0,0.0,0.0,0.0,0.0,0.0,0.0,-0.697,-0.7004,0.0,0.0,0.0,0.0,0.0,0.0,0.0,0.0,-0.7251,-0.7453,-0.763,0.0,-0.8092,-0.816,-0.8126,-0.8099,0.0,-0.8062,-0.7988,-0.7988,-0.7988,-0.8022,-0.8194,-0.8119,-0.8062,-0.8343,-0.8574,-0.8818,-0.9194,-1.0389,-1.1511,-1.238,-1.4784,-1.6293,-1.6048,-1.9208,-2.1002,-2.0624,-2.1749,-2.2321,-2.1776,-2.1461,-2.1065,-2.0746,-2.0449,-2.0226,-2.0261,-1.9979,-1.9712,-1.9312,-1.9049,-1.8721,-1.8385,-1.8195,-1.8017,-1.7806,-1.7806,-1.7839,-1.7771,-1.7955,-1.7952,-1.7906,-1.8099,-1.7992,-1.7755,-1.8003,-1.7938,-1.7723,0.0,0.0,0.0,0.0,0.0,0.0,0.0,0.0,0.0,0.0,0.0,0.0,0.0,0.0,0.0,0.0,0.0,0.0,0.0,0.0,0.0,0.0,0.0,0.0,-0.6447,-0.6338,-0.6368,-0.6504,-0.6776,-0.6916,-0.6984,-0.7177,-0.7095,-0.681,-0.6512,-0.6375,-0.63,-0.63,-0.6334,0.0,-0.6409,0.0,0.0,0.0,0.0,0.0,-0.7011,-0.7031,0.0,-0.7098,-0.7098,-0.7098,0.0,0.0,0.0,0.0,-0.7197,-0.7278,-0.7398,-0.7529,-0.7719,-0.7794,-0.7862,-0.7887,-0.7968,-0.7988,-0.7988,-0.7988,-0.7988,-0.8015,-0.8147,-0.8099,-0.8062,-0.835,-0.8581,-0.892,-0.9476,-1.0426,-1.1307,-1.1965,-1.3915,-1.5184,-1.5151,-1.7566,-1.9208,-1.9393,-2.0195,-2.078,-2.0908,-2.0507,-2.025,-2.011,-1.9669,-1.9473,-1.9657,-1.9381,-1.905,-1.862,-1.8295,-1.7973,-1.7708,-1.7522,-1.7456,-1.7378,-1.7378,-1.7443,-1.754,-1.7669,-1.7723,-1.7733,-1.7873,-1.7776,-1.7593,-1.783,-1.7766,-1.7583,0.0,0.0,0.0,0.0,0.0,0.0,0.0,0.0,0.0,0.0,0.0,0.0,0.0,0.0,0.0,0.0,0.0,0.0,0.0,0.0,0.0,0.0,0.0,-0.6563,-0.6563,-0.6377,-0.6436,-0.6668,-0.6865,-0.6991,-0.7132,-0.7333,-0.7156,-0.6688,-0.6457,-0.632,-0.63,-0.63,-0.6381,0.0,-0.6381,0.0,0.0,0.0,0.0,0.0,0.0,0.0,0.0,-0.7054,-0.7054,-0.7054,-0.7054,0.0,0.0,0.0,0.0,0.0,-0.736,-0.7604,-0.7814,-0.7814,-0.7909,-0.7961,-0.7982,-0.7988,-0.7988,-0.7988,-0.7988,-0.7945,-0.8022,-0.7972,-0.8032,-0.8309,-0.8533,-0.9089,-1.0249,-1.0785,-1.1341,-1.2128,-1.34,-1.4373,-1.4609,-1.5965,-1.7171,-1.7941,-1.8198,-1.8801,-1.9703,-1.936,-1.9183,-1.9427,-1.888,-1.8744,-1.8925,-1.8653,-1.8238,-1.7829,-1.7467,-1.7206,-1.7001,-1.7001,-1.712,-1.7324,-1.7324,-1.7453,-1.7669,-1.7626,-1.7636,-1.7669,-1.7669,-1.7529,-1.7356,-1.7615,-1.755,-1.7346,0.0,0.0,0.0,0.0,0.0,0.0,0.0,0.0,0.0,0.0,0.0,0.0,0.0,0.0,0.0,0.0,0.0,0.0,0.0,0.0,0.0,0.0,-0.6416,-0.6338,-0.6338,-0.63,-0.6381,-0.6545,-0.6912,-0.7183,-0.7339,-0.7495,-0.7258,-0.6695,-0.6559,-0.6416,-0.63,-0.63,-0.6381,-0.6511,-0.6491,0.0,0.0,0.0,0.0,0.0,0.0,0.0,0.0,-0.684,-0.684,-0.684,-0.684,0.0,0.0,0.0,0.0,0.0,-0.7489,-0.7685,-0.7814,-0.7814,-0.7828,-0.7882,-0.7961,-0.7988,-0.7988,-0.7988,-0.7846,-0.7785,-0.8157,-0.782,-0.775,-0.8488,-0.9191,-0.9944,-1.0894,-1.1307,-1.1613,-1.187,-1.2161,-1.2226,-1.2025,-1.3288,-1.4101,-1.4003,-1.5164,-1.6358,-1.7385,-1.7105,-1.7396,-1.844,-1.8092,-1.7781,-1.7685,-1.7873,-1.784,-1.7444,-1.7163,-1.7044,-1.7001,-1.7001,-1.7023,-1.7066,-1.7066,-1.7206,-1.741,-1.7206,-1.7238,-1.7432,-1.7432,-1.7281,-1.712,-1.7561,-1.7443,-1.7066,0.0,0.0,0.0,0.0,0.0,0.0,0.0,0.0,0.0,0.0,0.0,0.0,0.0,0.0,0.0,0.0,0.0,0.0,0.0,0.0,0.0,-0.63,-0.63,-0.6334,-0.6416,-0.6416,-0.6566,-0.6831,-0.6997,-0.7217,-0.7366,-0.6745,-0.6313,-0.606,-0.5811,-0.5686,-0.5744,-0.6218,-0.6512,-0.6667,0.0,0.0,0.0,0.0,0.0,0.0,0.0,0.0,0.0,0.0,-0.6567,-0.6567,-0.6567,0.0,0.0,0.0,0.0,0.0,-0.7047,-0.7208,-0.7283,-0.7408,-0.774,-0.8008,-0.7846,-0.7796,-0.7766,-0.7693,-0.7554,-0.7598,-0.7898,-0.7834,-0.8005,-0.8805,-0.9226,-0.9774,-1.0474,-1.0703,-1.0844,-1.1139,-1.1195,-1.1214,-1.1096,-1.1733,-1.2305,-1.2662,-1.3287,-1.4085,-1.5144,-1.4868,-1.4919,-1.5558,-1.5985,-1.6151,-1.605,-1.6967,-1.7369,-1.7173,-1.7055,-1.7001,-1.7001,-1.7001,-1.7001,-1.7001,-1.7001,-1.7066,-1.7163,-1.7055,-1.7077,-1.7173,-1.7173,-1.7109,-1.7044,-1.74,-1.7475,-1.7378,0.0,0.0,0.0,0.0,0.0,0.0,0.0,0.0,0.0,0.0,0.0,0.0,0.0,0.0,0.0,0.0,0.0,0.0,0.0,0.0,-0.6641,-0.63,-0.6334,-0.6402,-0.6511,-0.6545,-0.6709,-0.7045,-0.7119,-0.7117,-0.7041,-0.5843,-0.5241,-0.5142,-0.4889,-0.4803,-0.4904,-0.5577,-0.6013,-0.6184,0.0,0.0,0.0,0.0,0.0,0.0,0.0,0.0,0.0,0.0,0.0,0.0,0.0,0.0,0.0,-0.6384,-0.6384,-0.6459,-0.6645,-0.674,-0.6875,-0.7051,-0.7564,-0.796,-0.7693,-0.7642,-0.7648,-0.7638,-0.7551,-0.7498,-0.7677,-0.7907,-0.8314,-0.8899,-0.9202,-0.9576,-1.0153,-1.0201,-1.0364,-1.0596,-1.0558,-1.0601,-1.0709,-1.0586,-1.0872,-1.163,-1.1521,-1.1917,-1.3013,-1.2814,-1.2791,-1.3077,-1.3936,-1.4381,-1.4381,-1.5824,-1.6678,-1.7001,-1.7001,-1.7001,-1.7001,-1.7001,-1.7001,-1.7001,-1.7001,-1.7001,-1.7001,-1.7001,-1.7001,-1.7001,-1.7001,-1.7033,-1.7109,-1.7238,-1.7432,-1.7604,0.0,0.0,0.0,0.0,0.0,0.0,0.0,0.0,0.0,0.0,0.0,0.0,0.0,0.0,0.0,0.0,0.0,0.0,0.0,0.0,-0.6338,-0.63,-0.6429,-0.6504,-0.6511,-0.6614,-0.677,-0.6903,-0.7217,-0.6898,-0.5979,-0.5037,-0.4402,-0.411,-0.4093,-0.4002,-0.3895,-0.3977,-0.4113,-0.429,-0.4196,0.0,0.0,0.0,0.0,0.0,0.0,0.0,0.0,0.0,0.0,0.0,0.0,0.0,-0.6384,-0.6384,-0.6384,-0.6459,-0.6645,-0.6787,-0.6922,-0.7051,-0.7193,-0.7345,-0.7712,-0.7797,-0.7853,-0.8184,-0.7938,-0.7764,-0.7925,-0.8187,-0.8449,-0.8623,-0.939,-1.0101,-1.04,-1.0651,-1.0816,-1.0847,-1.0554,-1.0329,-1.0341,-0.9759,-0.9468,-0.9535,-0.9318,-0.9676,-1.1036,-1.1077,-1.1598,-1.2824,-1.2931,-1.2931,-1.2931,-1.4381,-1.5694,-1.7001,-1.7001,-1.7001,-1.7001,-1.7001,-1.7001,-1.7001,-1.7001,-1.7001,-1.7001,-1.7001,-1.7001,-1.7001,-1.7001,-1.7141,-1.7324,-1.7109,-1.7184,-1.7367,0.0,0.0,0.0,0.0,0.0,0.0,0.0,0.0,0.0,0.0,0.0,0.0,0.0,0.0,0.0,0.0,0.0,0.0,0.0,0.0,-0.6563,-0.63,-0.6354,-0.6463,-0.6614,-0.6763,-0.6651,-0.6299,-0.5804,-0.539,-0.5018,-0.392,-0.3393,-0.3254,-0.3163,-0.3154,-0.3215,-0.3755,-0.4074,-0.415,-0.3405,-0.3155,0.0,0.0,0.0,0.0,0.0,0.0,0.0,0.0,-0.5863,-0.5863,-0.5863,-0.5908,-0.5952,-0.5952,-0.5952,-0.5964,-0.6054,-0.6219,-0.6431,-0.6471,-0.6588,-0.6833,-0.7428,-0.757,-0.7572,-0.7789,-0.7721,-0.7749,-0.7889,-0.8102,-0.8307,-0.8688,-0.9024,-0.9507,-0.9917,-0.9991,-0.9968,-0.9888,-0.9809,-0.9602,-0.9452,-0.921,-0.9084,-0.9084,-0.8932,-0.9092,-0.9585,-0.9502,-0.9698,-1.0167,-1.1028,-1.149,-1.149,-1.2865,-1.4315,-1.5694,-1.6613,-1.7001,-1.7001,-1.7001,-1.7001,-1.7001,-1.7001,-1.7001,-1.6936,-1.6084,-1.5694,-1.5694,-1.5694,-1.5833,-1.6211,-1.6931,-1.7303,-1.7367,0.0,0.0,0.0,0.0,0.0,0.0,0.0,0.0,0.0,0.0,0.0,0.0,0.0,0.0,0.0,0.0,0.0,0.0,0.0,-0.6788,-0.6602,-0.63,-0.6067,-0.6026,-0.621,-0.6099,-0.5987,-0.5833,-0.4608,-0.3975,-0.3972,-0.2867,-0.2343,-0.2341,-0.2264,-0.2266,-0.2387,-0.3014,-0.3266,-0.3218,-0.2372,-0.2016,0.0,0.0,0.0,0.0,0.0,0.0,0.0,0.0,-0.5691,-0.5691,-0.5691,-0.5691,-0.5691,-0.5691,-0.5691,-0.5691,-0.5691,-0.5877,-0.604,-0.6078,-0.629,-0.6611,-0.727,-0.7426,-0.7511,-0.7818,-0.7834,-0.785,-0.7964,-0.7992,-0.8218,-0.8633,-0.8878,-0.9139,-0.9503,-0.9481,-0.9383,-0.9264,-0.9215,-0.9128,-0.8895,-0.8847,-0.8894,-0.8894,-0.878,-0.8715,-0.8715,-0.8633,-0.859,-0.859,-0.9516,-1.0041,-1.0041,-1.1417,-1.2602,-1.3595,-1.5033,-1.6148,-1.7001,-1.6548,-1.6353,-1.6278,-1.5889,-1.5684,-1.5619,-1.4642,-1.425,-1.425,-1.425,-1.4367,-1.4739,-1.5612,-1.5972,-1.6155,0.0,0.0,0.0,0.0,0.0,0.0,0.0,0.0,0.0,0.0,0.0,0.0,0.0,0.0,0.0,0.0,0.0,0.0,-0.6903,-0.6525,-0.63,-0.63,-0.5604,-0.5186,-0.5186,-0.4526,-0.4676,-0.5675,-0.3805,-0.2867,-0.2867,-0.1887,-0.1391,-0.1391,-0.1391,-0.1391,-0.1392,-0.1377,-0.1301,-0.1122,-0.1077,-0.0941,-0.0672,0.0,0.0,0.0,0.0,0.0,0.0,0.0,-0.5691,-0.5691,-0.5691,-0.5691,-0.5691,-0.5691,-0.5691,-0.5691,-0.5691,-0.5817,-0.5931,-0.6056,-0.6355,-0.6779,-0.7383,-0.7519,-0.7725,-0.8437,-0.8307,-0.8095,-0.8214,-0.804,-0.8035,-0.8508,-0.8894,-0.9171,-0.9285,-0.9302,-0.9258,-0.9144,-0.8954,-0.8879,-0.8879,-0.884,-0.8769,-0.8769,-0.8655,-0.859,-0.859,-0.859,-0.859,-0.859,-0.8584,-0.8584,-0.859,-0.9975,-1.0704,-1.0704,-1.2142,-1.4241,-1.6936,-1.5499,-1.4912,-1.4782,-1.339,-1.28,-1.28,-1.28,-1.28,-1.2734,-1.28,-1.2913,-1.3118,-1.2865,-1.2979,-1.3386,0.0,0.0,0.0,0.0,0.0,0.0,0.0,0.0,0.0,0.0,0.0,0.0,0.0,0.0,0.0,0.0,0.0,0.0,-0.6903,-0.6641,-0.6447,-0.63,-0.5509,-0.5137,-0.5259,-0.3925,-0.3372,-0.3715,-0.2464,-0.1837,-0.1837,-0.156,-0.1422,-0.1422,-0.1422,-0.1422,-0.1377,-0.1387,-0.1301,-0.1077,-0.0896,-0.0672,-0.0448,0.0,0.0,0.0,0.0,0.0,0.0,0.0,0.0,0.0,-0.5691,-0.5691,-0.5691,-0.5691,-0.5691,-0.5707,-0.5833,-0.5877,-0.5969,-0.6263,-0.654,-0.6883,-0.7399,-0.7584,-0.7828,-0.8459,-0.8437,-0.8323,-0.8356,-0.8307,-0.8301,-0.8443,-0.8698,-0.8921,-0.9041,-0.8987,-0.9014,-0.8894,-0.8845,-0.8791,-0.8704,-0.8666,-0.8644,-0.8644,-0.8606,-0.859,-0.859,-0.859,-0.859,-0.859,-0.8508,-0.8508,-0.8584,-0.8904,-0.9623,-1.0704,-1.1094,-1.2274,-1.4045,-1.3587,-1.339,-1.339,-1.2997,-1.28,-1.2734,-1.1747,-1.0763,-0.9968,-1.0962,-1.1387,-1.1556,-1.2487,-1.2832,-1.2939,0.0,0.0,0.0,0.0,0.0,0.0,0.0,0.0,0.0,0.0,0.0,0.0,0.0,0.0,0.0,0.0,0.0,0.0,0.0,0.0,-0.6281,-0.5792,-0.4954,-0.4295,-0.3771,-0.2755,-0.2281,-0.2285,-0.169,-0.1379,-0.1391,-0.1391,-0.1391,-0.1391,-0.1391,-0.1391,-0.1391,-0.1301,-0.1166,-0.0941,-0.0672,-0.0449,-0.0224,0.0,0.0,0.0,0.0,0.0,0.0,0.0,0.0,0.0,-0.5691,-0.5691,-0.5691,-0.5691,-0.5691,-0.5712,-0.5871,-0.5975,-0.6121,-0.6431,-0.6801,-0.7214,-0.7693,-0.7932,-0.8171,-0.8579,-0.853,-0.8448,-0.8541,-0.8443,-0.8394,-0.8535,-0.8677,-0.8812,-0.8863,-0.891,-0.8851,-0.878,-0.8725,-0.8671,-0.8595,-0.859,-0.8568,-0.8524,-0.8519,-0.8497,-0.8448,-0.8448,-0.8448,-0.8448,-0.8383,-0.8399,-0.8519,-0.8454,-0.8864,-0.9842,-0.9842,-1.03,-1.1153,-1.1681,-1.1944,-1.1944,-1.1351,-1.1153,-1.1087,-1.024,-0.9383,-0.8651,-0.9516,-0.9842,-0.9975,-1.0829,-1.1153,-1.1219,0.0,0.0,0.0,0.0,0.0,0.0,0.0,0.0,0.0,0.0,0.0,0.0,0.0,0.0,0.0,0.0,0.0,0.0,0.0,0.0,-0.5813,-0.4934,-0.4106,-0.2953,-0.1433,-0.1391,-0.1406,-0.1391,-0.1408,-0.1408,-0.1391,-0.1391,-0.1391,-0.1391,-0.1391,-0.1391,-0.1346,-0.1166,-0.0941,-0.0672,-0.0493,-0.0224,0.0,0.0,0.0,0.0,0.0,0.0,0.0,0.0,0.0,0.0,-0.5691,-0.5691,-0.5691,-0.5691,-0.5691,-0.5718,-0.5888,-0.6089,-0.6328,-0.6589,-0.7116,-0.7693,-0.816,-0.8432,-0.8617,-0.8731,-0.859,-0.8513,-0.8731,-0.8492,-0.8372,-0.8704,-0.8753,-0.8791,-0.8836,-0.8823,-0.8753,-0.8753,-0.8644,-0.8573,-0.8573,-0.8562,-0.8513,-0.841,-0.8399,-0.8356,-0.8178,-0.8172,-0.8172,-0.8172,-0.8225,-0.828,-0.8399,-0.8388,-0.8443,-0.8557,-0.8557,-0.8557,-0.8623,-0.9902,-1.0505,-1.0439,-0.9183,-0.859,-0.859,-0.859,-0.859,-0.859,-0.859,-0.859,-0.859,-0.859,-0.859,-0.8784,0.0,0.0,0.0,0.0,0.0,0.0,0.0,0.0,0.0,0.0,0.0,0.0,0.0,0.0,0.0,0.0,0.0,0.0,0.0,0.0,-0.4899,-0.4085,-0.327,-0.2406,-0.1433,-0.1391,-0.1406,-0.1391,-0.1384,-0.1384,-0.1391,-0.1391,-0.1391,-0.1391,-0.1391,-0.1301,-0.1166,-0.1122,-0.0852,-0.0448,-0.0403,-0.0224,0.0,0.0,0.0,0.0,0.0,0.0,0.0,0.0,0.0,0.0,-0.5691,-0.5691,-0.5691,-0.5691,-0.5691,-0.5734,-0.5991,-0.6154,-0.6421,-0.6801,-0.7426,-0.804,-0.8426,-0.8552,-0.8595,-0.8622,-0.8666,-0.8709,-0.8758,-0.8628,-0.8535,-0.8611,-0.8628,-0.8638,-0.866,-0.8644,-0.8628,-0.8628,-0.8524,-0.8454,-0.8454,-0.8367,-0.8301,-0.8274,-0.8274,-0.8199,-0.8172,-0.8172,-0.8172,-0.8172,-0.8144,-0.8149,-0.8274,-0.8182,-0.8193,-0.8312,-0.8312,-0.8312,-0.8318,-0.8832,-0.905,-0.905,-0.8717,-0.859,-0.859,-0.859,-0.859,-0.859,-0.859,-0.859,-0.859,-0.859,-0.859,-0.8651,0.0,0.0,0.0,0.0,0.0,0.0,0.0,0.0,0.0,0.0,0.0,0.0,0.0,0.0,0.0,0.0,0.0,0.0,0.0,0.0,0.0,-0.3289,-0.2454,-0.1808,-0.1411,-0.1411,-0.1419,-0.1391,-0.1391,0.0,0.0,0.0,0.0,-0.1391,0.0,-0.1301,-0.1077,-0.0941,-0.0717,-0.0403,-0.0269,-0.0135,0.0,0.0,0.0,-0.0269,-0.2195,0.0,0.0,0.0,0.0,0.0,0.0,0.0,-0.5691,-0.5691,-0.5691,-0.5729,-0.5953,-0.617,-0.6518,-0.723,-0.778,-0.822,-0.8519,-0.859,-0.859,-0.859,-0.8638,-0.8682,-0.8682,-0.8633,-0.859,-0.859,-0.8541,-0.8508,-0.8508,-0.8454,-0.8416,-0.8416,-0.8367,-0.8329,-0.8329,-0.8274,-0.8209,-0.8155,-0.8149,-0.8122,-0.8062,-0.8062,-0.8062,-0.8062,-0.7997,-0.8024,-0.8149,-0.8084,-0.8117,-0.8172,-0.8172,-0.8172,-0.8178,-0.8361,-0.8481,-0.8584,-0.853,-0.8535,-0.859,-0.859,-0.859,-0.859,-0.859,-0.859,-0.859,-0.859,-0.859,-0.859,0.0,0.0,0.0,0.0,0.0,0.0,0.0,0.0,0.0,0.0,0.0,0.0,0.0,0.0,0.0,0.0,0.0,0.0,0.0,0.0,0.0,0.0,-0.1757,-0.1391,-0.1391,-0.1391,-0.1391,-0.1391,0.0,0.0,0.0,0.0,0.0,-0.1391,0.0,-0.1301,-0.1077,-0.0807,-0.0583,-0.0359,-0.009,0.0,0.0,0.0,-0.009,-0.0449,-0.2061,-0.2195,-0.2061,-0.4612,0.0,0.0,0.0,0.0,-0.5691,-0.5691,-0.5691,-0.5712,-0.5871,-0.6192,-0.6714,-0.7616,-0.8008,-0.8242,-0.8497,-0.8541,-0.853,-0.8552,-0.8557,-0.8562,-0.8584,-0.8552,-0.8535,-0.8557,-0.8459,-0.8388,-0.8388,-0.8296,-0.8172,-0.8172,-0.8214,-0.8204,-0.8204,-0.8187,-0.8127,-0.8092,-0.8065,-0.801,-0.7845,-0.7823,-0.7812,-0.7812,-0.7812,-0.7872,-0.8054,-0.8032,-0.803,-0.8171,-0.8171,-0.8182,-0.8204,-0.8182,-0.8312,-0.8552,-0.8459,-0.8481,-0.859,-0.859,-0.859,-0.859,-0.859,-0.859,-0.859,-0.859,-0.859,-0.859,0.0,0.0,0.0,0.0,0.0,0.0,0.0,0.0,0.0,0.0,0.0,0.0,0.0,0.0,0.0,0.0,0.0,0.0,-0.3285,0.0,0.0,-0.1555,-0.1461,-0.1391,-0.1391,-0.1391,-0.1391,-0.1391,0.0,0.0,0.0,0.0,0.0,-0.1391,0.0,0.0,-0.1077,-0.0807,-0.0583,-0.0359,-0.009,0.0,0.0,0.0,-0.0494,-0.1256,-0.1525,-0.2061,-0.2867,-0.4076,-0.4389,0.0,0.0,0.0,-0.5691,-0.5691,-0.5691,-0.5712,-0.5871,-0.6317,-0.691,-0.7562,-0.7823,-0.8013,-0.8361,-0.8361,-0.8312,-0.8416,-0.8443,-0.847,-0.8568,-0.8421,-0.8318,-0.8421,-0.8339,-0.8258,-0.8258,-0.8183,-0.8172,-0.8172,-0.8144,-0.8141,-0.8141,-0.7981,-0.7915,-0.7955,-0.7807,-0.7741,-0.7725,-0.7622,-0.7568,-0.7568,-0.7568,-0.7622,-0.7747,-0.7644,-0.7698,-0.7921,-0.7921,-0.7975,-0.8136,-0.797,-0.8111,-0.8437,-0.8426,-0.8481,-0.859,-0.859,-0.859,-0.859,-0.859,-0.859,-0.859,-0.859,-0.859,-0.859,0.0,0.0,0.0,0.0,0.0,0.0,0.0,0.0,0.0,0.0,0.0,0.0,0.0,0.0,0.0,-0.5506,-0.5196,-0.4399,-0.2792,-0.1837,-0.1377,-0.1389,-0.1419,-0.1391,-0.1391,-0.1391,-0.1391,0.0,0.0,0.0,0.0,-0.1467,-0.147,0.0,0.0,0.0,0.0,-0.1396,-0.1388,-0.1164,-0.0897,-0.0763,0.0,0.0,0.0,0.0,0.0,0.0,-0.1525,-0.3001,-0.3492,-0.3671,-0.4612,0.0,0.0,0.0,-0.5691,-0.5745,-0.604,-0.6344,-0.6741,-0.7345,-0.7638,-0.785,-0.8149,-0.8225,-0.8188,-0.8301,-0.8263,-0.8253,-0.8367,-0.8307,-0.8188,-0.8307,-0.8214,-0.8133,-0.8133,-0.8073,-0.803,-0.803,-0.7981,-0.8015,-0.8015,-0.796,-0.7845,-0.778,-0.7731,-0.7671,-0.7606,-0.7546,-0.7519,-0.7519,-0.7519,-0.7546,-0.76,-0.7546,-0.7606,-0.7774,-0.7774,-0.7839,-0.801,-0.7955,-0.8035,-0.8318,-0.8318,-0.8383,-0.8497,-0.8562,-0.8552,-0.8497,-0.8562,-0.8546,-0.8497,-0.8562,-0.859,-0.859,0.0,0.0,0.0,0.0,0.0,0.0,0.0,0.0,0.0,0.0,0.0,0.0,0.0,0.0,0.0,0.0,-0.4851,-0.4019,-0.2391,-0.1748,-0.1393,-0.1401,-0.1379,-0.1391,-0.1391,-0.1397,0.0,0.0,0.0,0.0,-0.1493,-0.1485,-0.1642,0.0,-0.1928,0.0,0.0,0.0,0.0,0.0,0.0,0.0,0.0,0.0,0.0,0.0,0.0,0.0,0.0,0.0,-0.2732,-0.2777,-0.421,-0.4968,0.0,0.0,0.0,-0.5756,-0.6094,-0.6285,-0.6518,-0.6969,-0.7339,-0.7589,-0.7856,-0.7964,-0.7973,-0.8122,-0.8046,-0.8002,-0.8122,-0.8144,-0.8155,-0.8182,-0.8089,-0.807,-0.807,-0.7988,-0.7872,-0.7872,-0.7872,-0.7861,-0.7828,-0.7828,-0.778,-0.7665,-0.7627,-0.7568,-0.7475,-0.7442,-0.7426,-0.7426,-0.7426,-0.7442,-0.747,-0.7502,-0.7568,-0.7655,-0.7687,-0.7763,-0.7872,-0.7872,-0.7986,-0.8193,-0.822,-0.8301,-0.8426,-0.8541,-0.8535,-0.847,-0.8557,-0.8535,-0.847,-0.8557,-0.859,-0.859,0.0,0.0,0.0,0.0,0.0,0.0,0.0,0.0,0.0,0.0,0.0,0.0,-0.7724,-0.7748,-0.7082,-0.5534,-0.4955,-0.3787,-0.1598,-0.1431,-0.1403,-0.1387,-0.1389,0.0,-0.1391,-0.1464,0.0,0.0,0.0,0.0,-0.1523,-0.1494,-0.2077,-0.3125,-0.3065,-0.2867,-0.268,0.0,0.0,0.0,0.0,0.0,0.0,0.0,0.0,0.0,0.0,0.0,0.0,0.0,0.0,0.0,0.0,-0.5062,-0.4567,0.0,0.0,0.0,-0.5888,-0.6094,-0.6339,-0.6594,-0.6839,-0.7116,-0.7464,-0.7459,-0.7481,-0.7818,-0.7801,-0.7758,-0.7872,-0.7888,-0.7926,-0.8108,-0.8021,-0.7883,-0.7883,-0.7877,-0.7872,-0.7872,-0.7872,-0.7828,-0.772,-0.7709,-0.766,-0.7535,-0.7421,-0.7293,-0.7288,-0.7236,-0.7232,-0.7232,-0.7232,-0.723,-0.7288,-0.7459,-0.7524,-0.7529,-0.7649,-0.7763,-0.7872,-0.7872,-0.8004,-0.813,-0.8187,-0.8301,-0.8426,-0.8541,-0.8584,-0.8579,-0.8584,-0.8584,-0.8579,-0.8584,-0.859,-0.859,0.0,0.0,0.0,0.0,0.0,0.0,0.0,0.0,0.0,0.0,0.0,0.0,0.0,-0.7193,-0.6593,-0.5391,-0.4155,-0.2878,-0.1476,-0.1408,-0.1379,-0.1391,-0.1391,-0.1391,-0.1391,-0.1466,0.0,0.0,0.0,-0.1497,-0.1478,-0.1495,-0.205,-0.3022,-0.3083,-0.3337,-0.383,-0.4433,0.0,0.0,0.0,0.0,0.0,0.0,0.0,0.0,0.0,0.0,0.0,0.0,0.0,0.0,0.0,0.0,0.0,0.0,-0.5691,-0.5712,-0.5871,-0.5969,-0.6089,-0.6333,-0.6573,-0.6806,-0.7013,-0.7143,-0.7279,-0.7486,-0.7497,-0.7502,-0.7622,-0.7709,-0.7774,-0.7818,-0.779,-0.7736,-0.7655,-0.7714,-0.7731,-0.7655,-0.7644,-0.7627,-0.7589,-0.7584,-0.7535,-0.741,-0.7304,-0.7301,-0.7225,-0.7232,-0.721,-0.721,-0.721,-0.7232,-0.722,-0.7263,-0.7323,-0.7342,-0.7448,-0.7573,-0.7763,-0.7763,-0.7823,-0.801,-0.8149,-0.8301,-0.8426,-0.8541,-0.8546,-0.8486,-0.8557,-0.8541,-0.8486,-0.8562,-0.859,-0.859,0.0,0.0,0.0,0.0,0.0,0.0,0.0,0.0,0.0,0.0,0.0,0.0,0.0,0.0,-0.6538,-0.5129,-0.3819,-0.2588,-0.1493,-0.138,-0.1391,-0.1391,-0.1391,-0.1391,-0.1391,0.0,0.0,0.0,0.0,0.0,0.0,-0.171,-0.2387,-0.3328,-0.3325,-0.3664,0.0,0.0,0.0,-0.3448,0.0,0.0,-0.2961,0.0,0.0,0.0,0.0,0.0,0.0,0.0,0.0,0.0,0.0,0.0,0.0,0.0,0.0,0.0,-0.5871,-0.5904,-0.5964,-0.6257,-0.6388,-0.6545,-0.6703,-0.6861,-0.7018,-0.7182,-0.722,-0.7252,-0.7372,-0.7432,-0.7502,-0.7622,-0.7638,-0.7611,-0.7529,-0.7589,-0.7611,-0.7529,-0.7519,-0.7502,-0.7459,-0.7459,-0.7404,-0.7285,-0.7274,-0.7225,-0.7161,-0.7155,-0.7155,-0.7155,-0.7155,-0.7172,-0.721,-0.721,-0.7214,-0.7277,-0.7277,-0.7442,-0.7638,-0.7638,-0.7725,-0.7877,-0.804,-0.8204,-0.8367,-0.8524,-0.8546,-0.8481,-0.8557,-0.8541,-0.8486,-0.8557,-0.859,-0.859,0.0,0.0,0.0,0.0,0.0,0.0,0.0,0.0,0.0,0.0,0.0,0.0,0.0,0.0,0.0,-0.4727,-0.3935,-0.2953,-0.148,-0.1391,-0.1391,-0.1391,-0.1391,-0.1391,-0.1391,0.0,0.0,0.0,0.0,0.0,0.0,0.0,-0.3077,-0.4108,-0.3924,-0.3828,-0.3901,0.0,-0.5329,-0.3424,0.0,-0.4853,-0.3182,0.0,0.0,0.0,-0.3349,-0.3277,0.0,-0.4307,0.0,0.0,0.0,0.0,0.0,0.0,0.0,0.0,0.0,0.0,0.0,-0.6251,-0.6317,-0.6328,-0.6556,-0.6611,-0.6681,-0.6926,-0.6975,-0.7008,-0.7177,-0.7111,-0.7095,-0.7442,-0.7502,-0.7508,-0.7497,-0.7502,-0.7502,-0.7497,-0.7502,-0.7459,-0.7282,-0.7271,-0.7279,-0.7215,-0.7204,-0.7155,-0.6986,-0.6986,-0.6986,-0.6986,-0.6986,-0.7046,-0.721,-0.721,-0.7214,-0.7271,-0.7271,-0.7394,-0.7513,-0.7519,-0.7644,-0.7867,-0.7872,-0.8013,-0.8247,-0.8486,-0.8584,-0.859,-0.859,-0.859,-0.859,-0.859,-0.859,-0.859,0.0,0.0,0.0,0.0,0.0,0.0,0.0,0.0,0.0,0.0,0.0,0.0,0.0,-0.7206,-0.572,-0.3578,-0.3179,-0.2598,-0.148,-0.1391,-0.1391,-0.1391,-0.1391,-0.1391,-0.1391,0.0,0.0,0.0,0.0,0.0,0.0,0.0,0.0,0.0,-0.3987,-0.4073,-0.3443,-0.4818,0.0,-0.443,-0.5501,-0.527,0.0,0.0,0.0,0.0,0.0,-0.4883,-0.4253,0.0,-0.403,-0.3436,0.0,0.0,0.0,0.0,0.0,0.0,-0.6029,0.0,0.0,0.0,0.0,0.0,-0.635,-0.6426,-0.6478,-0.6687,-0.6719,-0.6757,-0.6877,-0.6872,-0.6883,-0.6986,-0.7143,-0.7198,-0.7024,-0.7149,-0.7192,-0.7024,-0.7078,-0.7122,-0.7084,-0.7154,-0.7154,-0.704,-0.7029,-0.698,-0.6861,-0.6937,-0.6986,-0.6986,-0.7117,-0.7177,-0.721,-0.721,-0.7226,-0.7203,-0.7203,-0.7269,-0.7331,-0.7475,-0.7606,-0.7758,-0.7988,-0.8103,-0.8122,-0.8367,-0.8513,-0.859,-0.859,-0.859,-0.859,-0.859,-0.859,-0.859,0.0,0.0,0.0,0.0,0.0,0.0,0.0,0.0,0.0,0.0,0.0,0.0,0.0,0.0,-0.5847,-0.4206,-0.4069,-0.3492,-0.2106,-0.2016,-0.1837,-0.1436,-0.1391,-0.1391,-0.1391,0.0,0.0,0.0,0.0,0.0,0.0,0.0,0.0,0.0,0.0,0.0,0.0,0.0,0.0,0.0,-0.5754,0.0,0.0,-0.5916,-0.5694,0.0,0.0,0.0,-0.4905,-0.5273,-0.5023,0.0,0.0,0.0,0.0,0.0,0.0,0.0,0.0,0.0,0.0,0.0,0.0,0.0,-0.6181,-0.6289,-0.6403,-0.6478,-0.6495,-0.6562,-0.6638,-0.6649,-0.6649,-0.6649,-0.6806,-0.6899,-0.6817,-0.6921,-0.6953,-0.6817,-0.6866,-0.691,-0.691,-0.697,-0.698,-0.6915,-0.691,-0.6855,-0.673,-0.6747,-0.6779,-0.6828,-0.6948,-0.7084,-0.7139,-0.7188,-0.721,-0.721,-0.721,-0.7248,-0.7263,-0.7388,-0.7508,-0.7633,-0.7823,-0.8026,-0.813,-0.8209,-0.8367,-0.8519,-0.8519,-0.8546,-0.859,-0.859,-0.859,-0.859,0.0,0.0,0.0,0.0,0.0,0.0,0.0,0.0,0.0,0.0,0.0,0.0,0.0,0.0,0.0,0.0,-0.5547,-0.483,-0.3179,-0.2956,-0.2509,-0.1615,-0.1483,-0.1395,0.0,0.0,0.0,0.0,0.0,0.0,0.0,0.0,0.0,0.0,0.0,0.0,0.0,0.0,0.0,-0.4935,-0.5971,-0.5836,0.0,0.0,-0.5309,-0.3844,-0.5859,-0.5987,-0.5304,-0.6103,-0.6372,0.0,0.0,0.0,0.0,0.0,-0.6127,0.0,0.0,0.0,0.0,0.0,0.0,0.0,-0.6016,-0.6137,-0.6337,-0.6337,-0.6387,-0.6387,-0.6387,-0.6387,-0.6387,-0.6387,-0.6478,-0.6638,-0.6747,-0.6774,-0.6779,-0.6763,-0.6774,-0.6785,-0.6785,-0.6796,-0.6796,-0.6785,-0.6768,-0.6714,-0.6605,-0.6457,-0.6457,-0.6616,-0.6741,-0.6861,-0.6986,-0.7139,-0.7199,-0.721,-0.721,-0.721,-0.7215,-0.7279,-0.7347,-0.7524,-0.7649,-0.7828,-0.8097,-0.8097,-0.8176,-0.8399,-0.841,-0.8481,-0.8568,-0.8584,-0.859,-0.859,0.0,0.0,0.0,0.0,0.0,0.0,0.0,0.0,0.0,0.0,0.0,0.0,0.0,0.0,0.0,0.0,-0.4647,-0.4425,-0.4069,-0.3314,-0.2822,-0.2598,-0.1869,-0.1472,-0.1472,0.0,0.0,0.0,0.0,0.0,0.0,0.0,0.0,0.0,0.0,0.0,0.0,0.0,0.0,-0.5841,-0.6203,0.0,-0.6246,-0.6406,-0.6183,-0.584,-0.6279,-0.6284,-0.6143,-0.6353,-0.6371,-0.6404,0.0,0.0,0.0,-0.6317,0.0,0.0,0.0,0.0,0.0,0.0,0.0,0.0,-0.5682,-0.5887,-0.6092,-0.6092,-0.6237,-0.6387,-0.6387,-0.6387,-0.6387,-0.6387,-0.6403,-0.643,-0.6452,-0.6594,-0.6616,-0.6468,-0.6594,-0.6654,-0.6654,-0.6747,-0.6763,-0.6665,-0.6562,-0.6446,-0.6425,-0.6495,-0.6594,-0.6616,-0.6741,-0.6861,-0.6986,-0.7008,-0.7117,-0.721,-0.721,-0.721,-0.7215,-0.7279,-0.7347,-0.7524,-0.7649,-0.778,-0.7966,-0.7966,-0.8051,-0.828,-0.8378,-0.8432,-0.8459,-0.8552,-0.859,-0.859,0.0,0.0,0.0,0.0,0.0,0.0,0.0,0.0,0.0,0.0,0.0,0.0,0.0,0.0,0.0,0.0,0.0,0.0,0.0,0.0,-0.4104,-0.3046,-0.2565,-0.2065,-0.1504,-0.1504,0.0,0.0,0.0,0.0,0.0,0.0,0.0,0.0,0.0,0.0,0.0,0.0,-0.6176,-0.6187,-0.6306,0.0,-0.6468,-0.6408,-0.6387,-0.6387,-0.6387,-0.6387,-0.6398,-0.6457,-0.6435,0.0,-0.6387,-0.6387,-0.6287,0.0,-0.5586,-0.5486,0.0,0.0,0.0,-0.5035,0.0,0.0,0.0,-0.5586,-0.5787,-0.5787,-0.5887,-0.5987,-0.5987,-0.5987,-0.5987,-0.5987,-0.6137,-0.6137,-0.6037,-0.629,-0.6457,-0.6392,-0.6441,-0.6478,-0.6478,-0.6584,-0.6594,-0.6478,-0.6419,-0.6387,-0.6387,-0.6441,-0.6478,-0.6478,-0.6649,-0.6768,-0.6893,-0.6953,-0.704,-0.721,-0.721,-0.721,-0.7215,-0.7279,-0.7315,-0.7437,-0.7622,-0.7736,-0.779,-0.7845,-0.7943,-0.8073,-0.8253,-0.8399,-0.8508,-0.8568,-0.859,-0.859,0.0,0.0,0.0,0.0,0.0,0.0,0.0,0.0,0.0,0.0,0.0,0.0,0.0,0.0,0.0,0.0,0.0,0.0,0.0,0.0,0.0,0.0,-0.3337,-0.2726,-0.1869,-0.1583,0.0,0.0,0.0,0.0,0.0,0.0,0.0,0.0,0.0,0.0,0.0,0.0,0.0,-0.6328,0.0,-0.6387,-0.6387,-0.6387,-0.6387,-0.6387,-0.6387,-0.6387,-0.6403,-0.6551,-0.6468,-0.6387,-0.6387,-0.6387,0.0,0.0,0.0,0.0,0.0,0.0,0.0,0.0,0.0,-0.5386,0.0,0.0,0.0,-0.5536,-0.5586,-0.5586,-0.5586,-0.5586,-0.5577,-0.5558,-0.5777,-0.5832,-0.5608,-0.5972,-0.6287,-0.6337,-0.6387,-0.6387,-0.6387,-0.6387,-0.6387,-0.6387,-0.6387,-0.6387,-0.6387,-0.6387,-0.6387,-0.6387,-0.6505,-0.6676,-0.6801,-0.6921,-0.704,-0.721,-0.721,-0.721,-0.7215,-0.7258,-0.7312,-0.7293,-0.7573,-0.7682,-0.7709,-0.7823,-0.7883,-0.7926,-0.8149,-0.835,-0.8524,-0.8568,-0.859,-0.859,-0.8612,-0.8612,0.0,0.0,0.0,0.0,0.0,0.0,0.0,0.0,0.0,0.0,0.0,0.0,0.0,0.0,0.0,0.0,-0.7629,0.0,0.0,0.0,0.0,0.0,-0.3025,-0.1858,-0.1222,0.0,0.0,0.0,0.0,0.0,0.0,0.0,-0.2948,0.0,0.0,0.0,-0.6317,0.0,-0.6393,-0.6387,0.0,-0.6387,-0.6387,-0.6387,-0.6387,-0.6387,-0.6387,0.0,-0.6398,-0.6387,0.0,-0.6387,-0.6387,-0.6237,0.0,0.0,0.0,0.0,0.0,0.0,-0.4433,0.0,0.0,0.0,-0.524,-0.524,0.0,-0.5586,-0.5586,0.0,0.0,-0.5517,-0.5579,-0.5603,-0.5517,-0.5629,-0.5787,-0.6042,-0.6237,-0.6387,-0.6387,-0.6387,-0.6387,-0.6387,-0.6387,-0.6387,-0.6387,-0.6387,-0.6387,-0.6387,-0.6505,-0.6676,-0.6801,-0.6921,-0.704,-0.721,-0.721,-0.721,-0.721,-0.7226,-0.7236,-0.7288,-0.7481,-0.76,-0.7709,-0.7823,-0.7999,-0.8108,-0.8182,-0.8188,-0.8301,-0.8508,-0.859,-0.859,0.0,-0.8612,0.0,0.0,0.0,0.0,0.0,0.0,0.0,0.0,0.0,0.0,0.0,0.0,0.0,0.0,0.0,-0.7848,0.0,0.0,0.0,0.0,0.0,0.0,0.0,-0.1547,0.0,0.0,-0.0579,0.0,0.0,0.0,0.0,0.0,-0.3088,0.0,-0.6198,0.0,-0.6366,0.0,0.0,0.0,0.0,-0.6387,-0.6387,-0.6387,-0.6387,-0.6387,-0.6387,0.0,-0.6387,0.0,0.0,0.0,0.0,-0.5486,0.0,0.0,0.0,0.0,0.0,0.0,0.0,0.0,-0.4834,0.0,-0.4985,0.0,0.0,0.0,0.0,0.0,0.0,0.0,-0.5263,-0.5322,-0.5133,-0.5409,-0.5636,-0.5737,-0.5887,-0.5987,-0.6142,-0.6287,-0.6387,-0.6387,-0.6387,-0.6387,-0.6387,-0.6387,-0.6387,-0.6387,-0.6505,-0.6676,-0.6801,-0.6921,-0.704,-0.721,-0.721,-0.721,-0.721,-0.721,-0.722,-0.7288,-0.7464,-0.7589,-0.7709,-0.7823,-0.796,-0.8021,-0.8084,-0.8214,-0.8356,-0.8454,-0.853,-0.859,0.0,0.0,0.0,0.0,0.0,0.0,-0.8114,-0.8049,-0.7948,-0.7889,0.0,0.0,-0.8526,-0.8615,0.0,0.0,-0.8777,-0.8282,0.0,0.0,-0.625,0.0,0.0,0.0,0.0,0.0,0.0,0.0,0.0,0.0,0.0,0.0,0.0,0.0,0.0,-0.4663,-0.6323,0.0,-0.6387,-0.6387,-0.6387,-0.6387,-0.6387,-0.6387,-0.6387,-0.6387,-0.6387,-0.6387,-0.6387,-0.6387,-0.6387,-0.6387,-0.6387,-0.5887,-0.5236,0.0,0.0,0.0,-0.3374,0.0,0.0,0.0,0.0,0.0,0.0,0.0,0.0,0.0,0.0,0.0,0.0,0.0,0.0,0.0,0.0,-0.5031,-0.4802,-0.5118,-0.5386,-0.5486,-0.5536,-0.5687,-0.5892,-0.6087,-0.6187,-0.6287,-0.6287,-0.6337,-0.6387,-0.6387,-0.6387,-0.6387,-0.6505,-0.6676,-0.6801,-0.6921,-0.704,-0.721,-0.721,-0.721,-0.721,-0.721,-0.7203,-0.729,-0.7415,-0.754,-0.766,-0.7774,-0.7845,-0.7939,-0.8032,-0.8155,-0.8372,-0.8405,-0.8492,-0.859,-0.8373,-0.8139,0.0,0.0,0.0,0.0,-0.8192,-0.8083,-0.7988,-0.7982,0.0,0.0,0.0,0.0,0.0,0.0,0.0,-0.9069,-0.8871,0.0,-0.8233,0.0,0.0,-0.4726,0.0,0.0,0.0,0.0,0.0,0.0,0.0,0.0,0.0,0.0,0.0,-0.534,-0.6381,-0.6387,-0.6387,-0.6387,-0.6387,-0.6387,-0.6387,0.0,-0.6387,-0.6387,-0.6387,-0.6387,-0.6387,-0.6387,-0.6387,-0.6387,-0.6387,-0.6387,-0.6337,0.0,0.0,0.0,0.0,-0.3776,-0.4078,-0.2773,-0.3075,0.0,0.0,0.0,-0.4941,0.0,0.0,0.0,0.0,0.0,0.0,0.0,0.0,0.0,0.0,-0.4781,-0.4935,-0.519,-0.5436,-0.5586,-0.5636,-0.5636,-0.5737,-0.5992,-0.5992,-0.6142,-0.6387,-0.6387,-0.6387,-0.6387,-0.6505,-0.6676,-0.6801,-0.6921,-0.704,-0.721,-0.721,-0.721,-0.721,-0.721,-0.7215,-0.7221,-0.729,-0.7352,-0.7535,-0.7655,-0.7774,-0.7872,-0.7877,-0.8024,-0.8188,-0.8372,-0.8492,-0.859,0.0,0.0,0.0,0.0,0.0,-0.7994,-0.807,-0.8011,-0.8214,0.0,-0.8784,0.0,0.0,-0.9598,-0.9639,0.0,0.0,-0.911,-0.7893,-0.7731,0.0,0.0,0.0,-0.3817,0.0,0.0,0.0,0.0,0.0,0.0,0.0,0.0,0.0,0.0,0.0,-0.5404,0.0,0.0,0.0,0.0,0.0,-0.6435,-0.65,0.0,-0.6387,-0.6387,-0.6387,-0.6387,-0.6387,-0.6387,-0.6387,-0.6387,-0.6387,-0.5937,-0.5486,-0.6187,-0.5887,-0.5336,-0.5331,-0.5532,-0.5381,-0.4078,-0.4329,-0.458,-0.3224,0.0,0.0,0.0,0.0,0.0,0.0,0.0,0.0,0.0,0.0,0.0,0.0,-0.4768,-0.4834,-0.4935,-0.519,-0.534,-0.534,-0.5486,-0.5687,-0.5992,-0.5992,-0.6142,-0.6387,-0.6387,-0.6387,-0.6387,-0.6505,-0.6676,-0.6801,-0.6921,-0.704,-0.721,-0.721,-0.721,-0.721,-0.721,-0.7198,-0.7279,-0.7317,-0.7404,-0.7529,-0.7649,-0.7725,-0.7774,-0.7993,-0.8089,-0.8178,-0.828,-0.8421,-0.859,-0.7887,0.0,0.0,0.0,0.0,-0.7897,-0.8004,-0.8123,0.0,0.0,-0.9211,0.0,-1.0066,0.0,-1.012,0.0,-1.0107,-0.9531,-0.8162,-0.8063,0.0,-0.6375,-0.5243,0.0,0.0,0.0,0.0,0.0,0.0,-0.1167,0.0,0.0,0.0,0.0,0.0,-0.5737,-0.6387,-0.6387,-0.6387,0.0,0.0,-0.6435,0.0,-0.6414,-0.6414,-0.6446,-0.6403,-0.6387,-0.6387,-0.6387,-0.6387,-0.6387,-0.6387,-0.5937,-0.5486,-0.6187,-0.5887,-0.5436,-0.5737,-0.5837,-0.5586,-0.463,-0.478,-0.473,-0.2972,-0.2987,-0.3349,0.0,0.0,0.0,0.0,0.0,0.0,0.0,0.0,0.0,0.0,-0.4784,-0.4784,-0.4784,-0.4935,-0.5039,-0.5039,-0.5236,-0.5436,-0.5691,-0.5792,-0.5987,-0.6237,-0.6337,-0.6387,-0.6387,-0.6462,-0.6632,-0.6801,-0.6883,-0.6997,-0.721,-0.721,-0.721,-0.721,-0.721,-0.7198,-0.7274,-0.7274,-0.7366,-0.7524,-0.7606,-0.7687,-0.778,-0.8037,-0.8127,-0.8178,-0.8285,-0.8421,-0.859,0.0,0.0,0.0,0.0,-0.774,0.0,0.0,0.0,-0.8838,0.0,-0.9585,-0.9978,-1.0297,-1.0575,-1.067,-1.0514,-1.0636,-1.0351,-0.9469,-0.9415,0.0,0.0,-0.7385,-0.6735,-0.6657,0.0,0.0,0.0,0.0,0.0,0.0,0.0,0.0,0.0,-0.5937,0.0,-0.6387,-0.6387,-0.6387,-0.6387,-0.6387,-0.6392,-0.6392,-0.6387,-0.6462,-0.6605,-0.643,-0.6387,-0.6387,-0.6387,-0.6387,-0.6387,-0.6387,-0.6387,-0.6387,-0.6387,-0.6387,-0.6187,-0.5135,-0.4885,-0.4784,-0.4479,-0.4429,-0.4329,-0.3676,-0.3675,-0.3699,-0.3285,0.0,0.0,0.0,0.0,0.0,0.0,0.0,0.0,0.0,0.0,-0.4784,-0.4784,-0.4784,-0.4784,-0.4784,-0.4784,-0.4935,-0.519,-0.5436,-0.5687,-0.5992,-0.6237,-0.6387,-0.6387,-0.6387,-0.6556,-0.6801,-0.6801,-0.6921,-0.721,-0.721,-0.721,-0.721,-0.721,-0.7215,-0.7221,-0.7215,-0.7296,-0.7519,-0.7519,-0.7655,-0.7877,-0.8065,-0.8133,-0.8194,-0.8383,-0.8492,-0.859,-0.7952,-0.8047,-0.814,0.0,-0.8031,-0.8056,0.0,0.0,0.0,0.0,-1.0181,-1.0521,-1.105,-1.0975,-1.0759,-1.0677,-1.0697,0.0,0.0,0.0,0.0,-0.9064,-0.7881,-0.697,-0.6405,-0.5026,0.0,-0.372,0.0,0.0,-0.3224,0.0,0.0,0.0,0.0,0.0,-0.6387,-0.6387,-0.6387,-0.6387,-0.6387,-0.6441,-0.6562,-0.6419,-0.6462,-0.6605,-0.643,-0.6387,-0.6387,-0.6387,-0.6387,-0.6387,-0.6387,-0.6387,-0.6387,-0.6387,-0.6387,-0.6337,-0.6087,-0.5987,-0.5787,-0.4935,-0.5135,-0.5135,-0.3425,-0.3487,-0.3846,-0.3578,-0.3288,-0.3192,-0.3528,-0.2519,0.0,0.0,0.0,0.0,0.0,0.0,0.0,-0.4784,-0.4784,-0.4784,-0.4784,-0.4784,-0.4935,-0.519,-0.524,-0.5491,-0.5992,-0.6042,-0.6187,-0.6387,-0.6387,-0.6556,-0.6801,-0.6801,-0.6921,-0.721,-0.721,-0.721,-0.721,-0.721,-0.7203,-0.7285,-0.7248,-0.7296,-0.7519,-0.7519,-0.7611,-0.7763,-0.8037,-0.8182,-0.8383,-0.8503,-0.8562,-0.859,-0.8047,0.0,0.0,-0.8465,0.0,0.0,-0.8954,-0.9022,0.0,-1.0168,-1.046,0.0,-1.1063,-1.1124,-1.1029,-1.0744,-1.0717,0.0,-1.0017,0.0,0.0,-0.933,-0.8502,-0.7786,-0.7263,-0.6285,0.0,-0.5177,0.0,0.0,-0.463,0.0,0.0,0.0,0.0,-0.6387,-0.6387,-0.6387,-0.6387,-0.6387,-0.6387,-0.6425,0.0,-0.6414,-0.643,-0.6478,-0.6414,-0.6387,-0.6387,-0.6387,-0.6387,-0.6387,-0.6387,-0.6387,-0.6387,-0.6387,-0.6387,-0.6387,-0.6387,-0.6387,-0.6237,-0.5636,-0.5837,-0.5687,-0.3927,-0.3823,-0.4078,-0.3827,-0.3324,-0.3123,-0.3927,-0.2318,0.0,0.0,0.0,0.0,0.0,0.0,0.0,0.0,-0.4784,-0.4784,-0.4784,-0.4784,-0.4885,-0.5039,-0.514,-0.534,-0.5641,-0.5892,-0.6092,-0.6237,-0.6438,-0.6665,-0.6801,-0.6904,-0.7078,-0.721,-0.721,-0.721,-0.721,-0.721,-0.722,-0.7277,-0.7263,-0.7372,-0.76,-0.76,-0.7665,-0.7801,-0.804,-0.8247,-0.8432,-0.8546,-0.859,-0.859,-0.8269,0.0,0.0,0.0,0.0,0.0,0.0,-0.9432,0.0,-1.0249,0.0,-1.0799,-1.0778,-1.1111,-1.1165,-1.0758,0.0,-1.0493,-1.0044,-0.9937,-0.972,-0.9422,-0.9144,-0.8777,-0.844,-0.7908,-0.7464,0.0,0.0,0.0,0.0,0.0,0.0,0.0,0.0,0.0,0.0,-0.6387,-0.6387,-0.6387,-0.6387,-0.6387,-0.6387,-0.6387,-0.6387,-0.6387,-0.6387,-0.6387,-0.6387,-0.6387,-0.6387,-0.6387,-0.6387,-0.6387,-0.6387,-0.6387,-0.6387,-0.6387,-0.6387,-0.6387,-0.6387,-0.6387,-0.6387,-0.6087,-0.4931,-0.468,-0.458,-0.4329,-0.3318,-0.302,-0.4684,-0.2366,0.0,0.0,0.0,0.0,0.0,0.0,0.0,0.0,0.0,0.0,-0.4784,-0.4784,-0.4784,-0.4784,-0.5039,-0.519,-0.524,-0.5691,-0.5992,-0.6042,-0.6505,-0.6796,-0.6828,-0.7084,-0.7204,-0.7232,-0.7215,-0.721,-0.721,-0.7226,-0.7247,-0.7304,-0.7304,-0.7497,-0.7725,-0.7709,-0.7769,-0.7894,-0.8138,-0.8301,-0.841,-0.8541,-0.8579,-0.8568,0.0,0.0,0.0,0.0,0.0,-0.9476,-0.9808,-1.0019,-1.0215,-1.0595,-1.1009,-1.1226,-1.1097,-1.105,-1.0941,-1.0738,-1.05,0.0,0.0,0.0,0.0,-0.9585,-0.9401,-0.8937,-0.8184,-0.7861,-0.7413,0.0,0.0,0.0,0.0,0.0,0.0,0.0,0.0,0.0,-0.6387,-0.6387,0.0,-0.6387,-0.6387,-0.6387,-0.6387,-0.6387,-0.6387,-0.6387,-0.6387,-0.6387,-0.6387,-0.6387,-0.6387,-0.6387,-0.6387,-0.6387,-0.6387,-0.6387,-0.6387,-0.6387,-0.6387,-0.6387,-0.6387,-0.6387,-0.6387,-0.6337,-0.6087,-0.6037,-0.5987,-0.5687,-0.5486,-0.4985,-0.4081,-0.2469,-0.1361,0.0,0.0,0.0,0.0,0.0,0.0,0.0,0.0,-0.4784,-0.4784,-0.4784,-0.4784,-0.4784,-0.4834,-0.5085,-0.5486,-0.5636,-0.5887,-0.6337,-0.6527,-0.6747,-0.6953,-0.6991,-0.7111,-0.7301,-0.7203,-0.721,-0.7215,-0.7258,-0.7372,-0.7486,-0.7486,-0.7622,-0.7834,-0.7741,-0.7769,-0.7894,-0.8138,-0.8183,-0.8291,-0.8508,-0.853,-0.8459,0.0,0.0,0.0,0.0,0.0,0.0,0.0,-1.0412,-1.0527,-1.0595,-1.0792,-1.0867,-1.0724,-1.0778,-1.0765,-1.0616,-1.0331,-1.0195,-1.0276,-1.0059,-0.9836,-0.9618,-0.9462,-0.899,-0.8131,-0.7861,-0.7413,-0.6792,0.0,0.0,0.0,0.0,0.0,0.0,0.0,-0.6387,0.0,0.0,-0.6387,-0.6387,-0.6387,-0.6387,-0.6387,-0.6387,-0.6387,-0.6387,-0.6387,-0.6387,-0.6387,-0.6387,-0.6387,-0.6387,-0.6387,-0.6387,-0.6387,-0.6387,-0.6387,-0.6387,-0.6387,-0.6387,-0.6387,-0.6387,-0.6387,-0.6387,-0.6387,-0.6387,-0.6387,-0.6237,-0.6092,-0.5486,-0.388,-0.2519,-0.1764,-0.2318,-0.1462,0.0,0.0,0.0,0.0,0.0,0.0,0.0,0.0,-0.4784,-0.4784,-0.4784,-0.4784,-0.4935,-0.5186,-0.5436,-0.5737,-0.5987,-0.652,-0.6834,-0.6888,-0.7073,-0.7192,-0.7241,-0.7237,-0.721,-0.7215,-0.7279,-0.7347,-0.7524,-0.7584,-0.7709,-0.7872,-0.7883,-0.7915,-0.8054,-0.8236,-0.8329,-0.835,-0.8524,-0.8552,-0.8513,0.0,-0.9273,0.0,0.0,-0.9903,-1.0175,-1.0412,-1.0602,-1.069,-1.0602,-1.0561,-1.0487,-1.0337,-1.0534,-1.0609,-1.046,-1.0202,-1.01,-1.0222,-0.9971,-0.9741,-0.9571,-0.9449,-0.9004,-0.807,-0.7821,-0.7373,0.0,0.0,-0.6387,-0.6387,0.0,0.0,0.0,0.0,0.0,-0.6387,-0.6387,-0.6387,-0.6387,-0.6387,-0.6387,-0.6387,-0.6387,-0.6387,-0.6387,-0.6387,-0.6387,-0.6387,-0.6387,-0.6387,-0.6387,-0.6387,-0.6387,-0.6387,-0.6387,-0.6387,-0.6387,-0.6387,-0.6387,-0.6387,-0.6387,-0.6387,-0.6387,-0.6387,-0.6387,-0.6387,-0.6387,-0.6187,-0.5486,-0.3729,-0.2821,-0.2418,-0.2569,-0.0806,-0.0504,0.0,0.0,0.0,0.0,0.0,0.0,-0.4332,-0.4483,-0.4533,-0.4784,-0.4784,-0.4834,-0.4885,-0.5286,-0.5536,-0.5586,-0.6453,-0.6856,-0.6733,-0.7088,-0.7263,-0.7248,-0.7221,-0.7226,-0.7198,-0.7317,-0.7442,-0.7562,-0.7687,-0.7785,-0.7883,-0.8065,-0.8114,-0.8141,-0.8323,-0.8416,-0.8432,-0.8546,-0.8573,-0.8557,0.0,0.0,0.0,0.0,0.0,-1.027,-1.0297,-1.0541,-1.0765,-1.082,-1.0785,-1.0643,-1.0487,-1.0493,-1.046,-1.031,-1.0148,-0.999,-1.0011,-0.9917,-0.9693,-0.9415,-0.9388,-0.8937,-0.7942,-0.7765,-0.7368,0.0,0.0,-0.6387,-0.6387,0.0,0.0,-0.6387,-0.6387,-0.6387,-0.6387,-0.6387,-0.6387,-0.6387,-0.6387,-0.6387,-0.6387,-0.6387,-0.6387,-0.6387,-0.6387,-0.6387,-0.6387,-0.6387,-0.6387,-0.6387,-0.6387,-0.6387,-0.6387,-0.6387,-0.6387,-0.6387,-0.6387,-0.6387,-0.6387,-0.6387,-0.6387,-0.6387,-0.6387,-0.6387,-0.6387,-0.6387,-0.6187,-0.5336,-0.3274,-0.3977,-0.3927,-0.1108,-0.1813,-0.2569,0.0,0.0,-0.1562,-0.1865,0.0,0.0,-0.3224,-0.3374,-0.3776,-0.4734,-0.4784,-0.4885,-0.514,-0.519,-0.534,-0.5586,-0.6162,-0.6488,-0.6634,-0.699,-0.722,-0.7317,-0.7209,-0.7214,-0.7323,-0.7448,-0.7568,-0.7693,-0.7807,-0.7861,-0.7883,-0.8065,-0.8114,-0.8141,-0.8323,-0.8416,-0.8432,-0.8546,-0.8524,-0.8448,0.0,0.0,-0.9951,-1.0181,-1.0256,-1.0337,-1.0521,-1.0643,-1.0744,-1.0806,-1.0758,-1.0697,-1.0636,-1.0548,-1.0466,-1.0412,-1.0188,-0.9984,-0.9984,-0.9829,-0.9486,-0.9104,-0.9005,-0.857,-0.7636,-0.7446,-0.716,0.0,0.0,0.0,-0.6387,-0.6462,-0.6457,-0.6387,-0.6387,-0.6387,-0.6387,-0.6387,-0.6387,-0.6387,-0.6387,-0.6387,-0.6387,-0.6387,-0.6387,-0.6387,-0.6387,-0.6387,-0.6387,-0.6387,-0.6387,-0.6387,-0.6387,-0.6387,-0.6387,-0.6387,-0.6387,-0.6387,-0.6387,-0.6387,-0.6387,-0.6387,-0.6387,-0.6387,-0.6387,-0.6387,-0.6387,-0.6387,-0.6187,-0.5536,-0.4028,-0.4028,-0.3629,-0.1663,-0.131,-0.136,-0.1562,0.0,0.0,-0.1462,0.0,-0.1309,-0.3022,-0.3224,-0.3695,-0.481,-0.4867,-0.4834,-0.4935,-0.509,-0.524,-0.534,-0.6049,-0.6447,-0.6493,-0.6947,-0.7232,-0.7225,-0.7252,-0.729,-0.7288,-0.754,-0.7693,-0.7807,-0.785,-0.7977,-0.8054,-0.8111,-0.8204,-0.8291,-0.8454,-0.8519,-0.8524,-0.8568,-0.8557,-0.8524,-1.0175,-1.0181,-1.0263,-1.0514,-1.0473,-1.048,-1.069,-1.0717,-1.0717,-1.0717,-1.0717,-1.0704,-1.0656,-1.0555,-1.0493,-1.0493,-1.0263,-1.0051,-0.9926,-0.9674,-0.9242,-0.8748,-0.8667,0.0,-0.7471,-0.7344,-0.707,-0.6725,-0.6654,-0.6578,-0.6441,-0.6489,-0.6468,-0.6387,-0.6387,-0.6387,-0.6387,-0.6387,-0.6387,-0.6387,-0.6387,-0.6387,-0.6387,-0.6387,-0.6387,-0.6387,-0.6387,-0.6387,-0.6387,-0.6387,-0.6387,-0.6387,-0.6387,-0.6387,-0.6387,-0.6387,-0.6387,-0.6387,-0.6387,-0.6387,-0.6387,-0.6387,-0.6387,-0.6387,-0.6387,-0.6387,-0.6337,-0.5987,-0.5787,-0.5336,-0.4228,-0.3676,-0.3022,-0.1917,-0.0857,-0.0252,-0.0706,0.0606,0.0,-0.0454,0.0,-0.0353,-0.2519,-0.272,-0.3344,-0.4822,-0.4871,-0.4796,-0.4875,-0.5002,-0.5153,-0.5234,-0.5912,-0.6336,-0.6478,-0.6979,-0.7209,-0.7209,-0.7334,-0.7352,-0.7448,-0.7655,-0.7796,-0.7872,-0.7971,-0.8037,-0.813,-0.8225,-0.8339,-0.8432,-0.8546,-0.859,-0.859,-0.859,-0.859,-0.859,-1.046,-1.0487,-1.0534,-1.069,-1.0717,-1.0717,-1.0717,-1.0717,-1.0717,-1.0717,-1.0717,-1.0663,-1.0514,-1.0493,-1.0493,-1.0493,-1.0358,-1.0143,-0.9818,-0.9416,-0.894,-0.8445,-0.8323,-0.8076,-0.761,-0.7477,-0.7251,-0.698,0.0,-0.6616,-0.6616,-0.6441,-0.6387,-0.6387,-0.6387,-0.6387,-0.6387,-0.6387,-0.6387,-0.6387,-0.6387,-0.6387,-0.6387,-0.6387,-0.6387,-0.6387,-0.6387,-0.6387,-0.6387,-0.6387,-0.6387,-0.6387,-0.6387,-0.6387,-0.6387,-0.6387,-0.6387,-0.6387,-0.6387,-0.6387,-0.6387,-0.6387,-0.6387,-0.6387,-0.6387,-0.6387,-0.6087,-0.5035,-0.4834,-0.4483,-0.3425,-0.2972,-0.2467,-0.1361,-0.0756,-0.005,0.101,0.1415,0.0,0.1566,0.1566,0.0757,-0.1412,-0.1613,-0.2519,-0.4634,-0.4784,-0.4875,-0.4965,-0.4883,-0.4976,-0.5386,-0.5793,-0.6216,-0.6596,-0.7046,-0.7277,-0.7277,-0.7459,-0.7578,-0.7703,-0.7818,-0.7872,-0.7877,-0.8059,-0.8114,-0.8136,-0.8318,-0.8416,-0.8432,-0.8546,-0.859,-0.859,-0.859,-0.859,-0.859,-1.0636,-1.0649,-1.0663,-1.0711,-1.0717,-1.0717,-1.0717,-1.0717,-1.0717,-1.0717,-1.0717,-1.0704,-1.0656,-1.0649,-1.0518,-1.032,-1.0096,-0.9825,-0.9506,-0.9056,-0.8628,-0.829,-0.8077,-0.7772,-0.7392,-0.7194,-0.7094,-0.6986,-0.6904,-0.6828,-0.6741,-0.6484,-0.6387,-0.6387,-0.6387,-0.6387,-0.6387,-0.6387,-0.6387,-0.6387,-0.6387,-0.6387,-0.6387,-0.6387,-0.6387,-0.6387,-0.6387,-0.6387,-0.6387,-0.6387,-0.6387,-0.6387,-0.6387,-0.6387,-0.6387,-0.6387,-0.6387,-0.6387,-0.6387,-0.6387,-0.6387,-0.6387,-0.6387,-0.6408,-0.6489,-0.6562,-0.646,-0.6103,-0.5941,-0.5586,-0.4479,-0.4078,-0.3321,-0.1512,-0.0907,-0.0302,0.0757,0.1162,0.1314,0.1314,0.1465,0.106,-0.0353,-0.1159,-0.1925,-0.2613,-0.4004,-0.4796,-0.4875,-0.5065,-0.5252,-0.5386,-0.6076,-0.6492,-0.6714,-0.7089,-0.732,-0.7464,-0.7584,-0.7703,-0.7818,-0.7856,-0.7977,-0.8059,-0.8097,-0.8149,-0.8307,-0.8388,-0.8465,-0.8535,-0.8573,-0.859,-0.859,-0.859,-0.859,-0.859,-1.0717,-1.0717,-1.0717,-1.0717,-1.0717,-1.0717,-1.0717,-1.0717,-1.0717,-1.0717,-1.0717,-1.0651,-1.0518,-1.0525,-1.0452,-1.0193,-0.9864,-0.9443,-0.9124,-0.8689,-0.8295,-0.7997,-0.7754,-0.7504,-0.7277,-0.7149,-0.7051,-0.7051,-0.7008,-0.6921,-0.6801,-0.6643,-0.65,-0.6457,-0.6457,-0.643,-0.6387,-0.6387,-0.6387,-0.6387,-0.6387,-0.6387,-0.6387,-0.6387,-0.6387,-0.6387,-0.6387,-0.6414,-0.6446,-0.6403,-0.6419,-0.6446,-0.6398,-0.6387,-0.6387,-0.6387,-0.6387,-0.6387,-0.6387,-0.6419,-0.6457,-0.6457,-0.6489,-0.6594,-0.6671,-0.6687,-0.6567,-0.6107,-0.594,-0.5528,-0.4386,-0.3726,-0.2922,-0.1562,-0.0806,-0.0101,0.0555,0.0858,0.1061,0.1061,0.1263,0.101,-0.005,-0.0655,-0.1367,-0.22,-0.3621,-0.4579,-0.4989,-0.5252,-0.5507,-0.5751,-0.6383,-0.6774,-0.7001,-0.7273,-0.7513,-0.7589,-0.7758,-0.7872,-0.8004,-0.7986,-0.8051,-0.8127,-0.8171,-0.8274,-0.8421,-0.8465,-0.8524,-0.859,-0.859,-0.859,-0.859,-0.859,-0.859,-0.859,-1.0717,-1.0717,-1.0717,-1.0717,-1.0717,-1.0717,-1.0717,-1.0717,-1.0717,-1.0717,-1.0651,-1.0518,-1.0259,-1.018,-1.0107,-1.0107,-0.9599,-0.9118,-0.8794,-0.8389,-0.8068,-0.7703,-0.7475,-0.7288,-0.7277,-0.722,-0.721,-0.721,-0.704,-0.6926,-0.6817,-0.6806,-0.6741,-0.6632,-0.6632,-0.6567,-0.6414,-0.6414,-0.6408,-0.6398,-0.6398,-0.6392,-0.6387,-0.6398,-0.6392,-0.6387,-0.6398,-0.6473,-0.66,-0.6435,-0.6478,-0.6611,-0.6435,-0.6403,-0.6408,-0.6392,-0.6387,-0.6387,-0.6398,-0.6478,-0.6622,-0.6632,-0.6725,-0.6817,-0.6817,-0.6817,-0.6516,-0.5365,-0.5081,-0.4637,-0.3543,-0.2372,-0.1615,-0.1614,-0.0504,0.0353,0.0353,0.0606,0.0757,0.0757,0.1011,0.0809,-0.0202,-0.0151,-0.0808,-0.273,-0.3485,-0.4243,-0.5188,-0.5413,-0.577,-0.6394,-0.6668,-0.7006,-0.7304,-0.7589,-0.7703,-0.7714,-0.7999,-0.8108,-0.8119,-0.8171,-0.8231,-0.8188,-0.8367,-0.8421,-0.8437,-0.8546,-0.859,-0.859,-0.859,-0.859,-0.859,-0.859,-0.859,-0.859,-1.0717,-1.0717,-1.0717,-1.0717,-1.0717,-1.0717,-1.0717,-1.0717,-1.0717,-1.0717,-1.0452,-1.0259,-1.0193,-0.9635,-0.9181,-0.9181,-0.9027,-0.8701,-0.8289,-0.8055,-0.7911,-0.7703,-0.7557,-0.7432,-0.7282,-0.722,-0.721,-0.721,-0.704,-0.697,-0.6942,-0.6844,-0.6785,-0.6757,-0.6757,-0.6741,-0.6714,-0.6714,-0.666,-0.6578,-0.6578,-0.6468,-0.6398,-0.6489,-0.6468,-0.6398,-0.6489,-0.6594,-0.6616,-0.6584,-0.666,-0.6736,-0.6616,-0.6638,-0.6676,-0.6441,-0.6387,-0.6408,-0.6551,-0.6594,-0.6643,-0.6736,-0.685,-0.6942,-0.6942,-0.6942,-0.6878,-0.6577,-0.57,-0.4934,-0.4637,-0.2932,-0.1589,-0.1617,-0.0656,0.0101,0.0101,0.0303,0.0505,0.0505,0.0972,0.1187,0.0928,0.0155,-0.0155,0.021,-0.2446,-0.3953,-0.3587,-0.5418,-0.6553,-0.6688,-0.6995,-0.7342,-0.7611,-0.7671,-0.7747,-0.7834,-0.7888,-0.8026,-0.8119,-0.8147,-0.8198,-0.8378,-0.8405,-0.847,-0.8552,-0.8579,-0.859,-0.859,-0.859,-0.859,-0.859,-0.859,-0.859,-0.859,-1.0717,-1.0717,-1.0717,-1.0717,-1.0717,-1.0717,-1.0717,-1.0717,-1.0651,-1.0518,-1.0326,-1.0054,-0.9721,-0.921,-0.8785,-0.8593,-0.8539,-0.8374,-0.8119,-0.7999,-0.7818,-0.7709,-0.7584,-0.7459,-0.7282,-0.722,-0.721,-0.721,-0.715,-0.7117,-0.7117,-0.6991,-0.6937,-0.6883,-0.6883,-0.6855,-0.6801,-0.6801,-0.6763,-0.6703,-0.6703,-0.6627,-0.6478,-0.6594,-0.6578,-0.6478,-0.6594,-0.6692,-0.6779,-0.6719,-0.6785,-0.6866,-0.6741,-0.6709,-0.6703,-0.6627,-0.6562,-0.6545,-0.6671,-0.6703,-0.6747,-0.6921,-0.6632,-0.6294,-0.6294,-0.6294,-0.6115,-0.546,-0.5194,-0.4759,-0.3625,-0.2448,-0.1447,-0.0972,-0.0355,0.0,0.0,0.0101,0.0203,0.0204,0.0619,0.0886,0.0893,0.042,0.0211,0.032,-0.2176,-0.3793,-0.3911,-0.5908,-0.699,-0.6993,-0.7325,-0.7568,-0.7698,-0.7752,-0.7839,-0.8015,-0.8013,-0.81,-0.822,-0.8274,-0.8372,-0.8497,-0.8497,-0.853,-0.859,-0.859,-0.859,-0.859,-0.859,-0.859,-0.859,-0.859,-0.859,-0.859,-1.0717,-1.0717,-1.0717,-1.0717,-1.0717,-1.0717,-1.0717,-1.0651,-1.0525,-1.0259,-1.0127,-0.9788,-0.9183,-0.8924,-0.8604,-0.8242,-0.8106,-0.8086,-0.8086,-0.7988,-0.7818,-0.7709,-0.7584,-0.7459,-0.7282,-0.722,-0.721,-0.721,-0.721,-0.721,-0.721,-0.721,-0.7161,-0.7013,-0.7013,-0.6953,-0.6855,-0.6855,-0.6844,-0.6828,-0.6828,-0.6757,-0.6649,-0.6649,-0.6649,-0.6649,-0.6649,-0.679,-0.697,-0.6866,-0.691,-0.6991,-0.6866,-0.6768,-0.6714,-0.6785,-0.6741,-0.6692,-0.6779,-0.6817,-0.6829,-0.6935,-0.6154,-0.5369,-0.5146,-0.5146,-0.479,-0.368,-0.4105,-0.408,-0.203,-0.1473,-0.104,-0.0155,0.0,0.0,0.0,0.0,0.0,0.0,0.0262,0.0423,0.0377,0.0594,0.0378,-0.0541,-0.2075,-0.3542,-0.4729,-0.6237,-0.7111,-0.7298,-0.754,-0.772,-0.7752,-0.785,-0.8021,-0.8147,-0.8187,-0.8301,-0.8421,-0.8519,-0.8573,-0.859,-0.859,-0.859,-0.859,-0.859,-0.859,-0.859,-0.859,-0.859,-0.859,-0.859,-0.859,-0.859,-1.0717,-1.0717,-1.0717,-1.0717,-1.0717,-1.0717,-1.0717,-1.0459,-1.0259,-1.0193,-0.9655,-0.925,-0.9117,-0.8654,-0.8258,-0.8236,-0.803,-0.796,-0.796,-0.7883,-0.7818,-0.7709,-0.7584,-0.7459,-0.7282,-0.722,-0.721,-0.721,-0.721,-0.721,-0.721,-0.721,-0.7199,-0.7182,-0.7182,-0.7172,-0.7155,-0.7155,-0.71,-0.6959,-0.6959,-0.6883,-0.6774,-0.6774,-0.6774,-0.6774,-0.6774,-0.6866,-0.698,-0.6964,-0.7035,-0.7161,-0.6991,-0.7008,-0.7089,-0.6855,-0.6861,-0.691,-0.6823,-0.6877,-0.6769,-0.5899,-0.5536,-0.5146,-0.4139,-0.386,-0.3801,-0.3622,-0.2899,-0.2208,-0.1819,-0.0956,-0.021,-0.0051,0.0,0.0,0.0,0.0,0.0,0.0,0.0218,0.039,0.0397,0.0455,0.04,0.0232,-0.1147,-0.258,-0.3905,-0.5208,-0.6437,-0.7557,-0.7671,-0.7796,-0.8059,-0.8081,-0.8089,-0.8209,-0.8225,-0.8301,-0.8416,-0.8437,-0.8497,-0.859,-0.859,-0.859,-0.859,-0.859,-0.859,-0.859,-0.859,-0.859,-0.859,-0.859,-0.859,-0.859,-1.0717,-1.0717,-1.0717,-1.0717,-1.0717,-1.0717,-1.0717,-1.0392,-1.0127,-0.9927,-0.9455,-0.905,-0.8851,-0.8443,-0.8172,-0.8172,-0.8013,-0.7872,-0.7872,-0.7872,-0.7818,-0.7709,-0.7649,-0.7529,-0.7282,-0.722,-0.721,-0.721,-0.721,-0.721,-0.721,-0.721,-0.721,-0.721,-0.721,-0.721,-0.721,-0.721,-0.7182,-0.7133,-0.7133,-0.7008,-0.6899,-0.6899,-0.6899,-0.6899,-0.6899,-0.6975,-0.7133,-0.7133,-0.7166,-0.7199,-0.715,-0.7122,-0.7111,-0.7008,-0.6986,-0.6975,-0.6915,-0.6552,-0.6038,-0.5528,-0.4418,-0.3301,-0.2742,-0.2648,-0.244,-0.1816,-0.1759,-0.1582,-0.0946,-0.038,0.0,0.0,0.0,0.0,0.0,0.0,0.0,0.0,0.0112,0.0172,0.0174,0.0175,0.0175,0.0177,-0.1052,-0.2109,-0.2797,-0.4711,-0.6111,-0.6837,-0.7521,-0.8004,-0.8114,-0.8122,-0.8214,-0.8334,-0.8334,-0.8394,-0.8508,-0.8508,-0.8535,-0.859,-0.859,-0.859,-0.859,-0.859,-0.859,-0.859,-0.859,-0.859,-0.859,-0.859,-0.859,-0.859,-1.0717,-1.0717,-1.0717,-1.0717,-1.0717,-1.0658,-1.0585,-1.0326,-0.9927,-0.9594,-0.9256,-0.8839,-0.8618,-0.8361,-0.8225,-0.8198,-0.7997,-0.7872,-0.7872,-0.7872,-0.7834,-0.7747,-0.7714,-0.7584,-0.7282,-0.7241,-0.7237,-0.721,-0.721,-0.721,-0.721,-0.721,-0.721,-0.721,-0.721,-0.721,-0.721,-0.721,-0.721,-0.721,-0.721,-0.7155,-0.7024,-0.6997,-0.7002,-0.7018,-0.6997,-0.7111,-0.721,-0.721,-0.721,-0.721,-0.721,-0.715,-0.7035,-0.715,-0.6887,-0.6606,-0.6632,-0.6019,-0.5234,-0.4693,-0.3143,-0.1746,-0.1464,-0.1369,-0.1098,-0.0173,-0.0751,-0.1096,-0.0173,0.0,0.0,0.0,0.0,0.0,0.0,0.0,0.0,0.0,0.0,0.0,0.0,0.0,0.0,0.0,-0.0833,-0.1557,-0.2008,-0.3873,-0.5353,-0.6063,-0.7398,-0.8111,-0.8138,-0.8231,-0.8339,-0.8459,-0.8459,-0.8503,-0.859,-0.859,-0.859,-0.859,-0.859,-0.859,-0.859,-0.859,-0.859,-0.859,-0.859,-0.859,-0.859,-0.859,-0.859,-0.859,-1.0717,-1.0717,-1.0717,-1.0717,-1.0717,-1.0585,-1.0259,-0.9927,-0.9594,-0.9183,-0.8851,-0.8546,-0.8443,-0.8312,-0.8187,-0.8141,-0.801,-0.7872,-0.7872,-0.7872,-0.7867,-0.7856,-0.7758,-0.7584,-0.7282,-0.7271,-0.7269,-0.721,-0.721,-0.721,-0.721,-0.721,-0.721,-0.721,-0.721,-0.721,-0.721,-0.721,-0.721,-0.721,-0.721,-0.7204,-0.7188,-0.7024,-0.7051,-0.7182,-0.7024,-0.7111,-0.721,-0.721,-0.721,-0.721,-0.721,-0.7204,-0.7177,-0.7024,-0.6226,-0.5364,-0.5507,-0.5359,-0.4717,-0.262,-0.1926,-0.149,-0.0401,-0.0116,-0.0118,0.0,-0.0059,-0.0117,0.0,0.0,0.0,0.0,0.0,0.0,0.0,0.0,0.0,0.0,0.0,0.0,0.0,0.0,0.0,0.0,-0.0062,-0.0681,-0.1944,-0.2199,-0.3478,-0.603,-0.7449,-0.8274,-0.8388,-0.8399,-0.8459,-0.8573,-0.8573,-0.8579,-0.859,-0.859,-0.859,-0.859,-0.859,-0.859,-0.859,-0.859,-0.859,-0.859,-0.859,-0.859,-0.859,-0.859,-0.859,-0.859,-1.0717,-1.0717,-1.0717,-1.0717,-1.0518,-1.0326,-1.0193,-0.9721,-0.9256,-0.9117,-0.8784,-0.8546,-0.8432,-0.8307,-0.8187,-0.813,-0.8004,-0.7872,-0.7872,-0.7872,-0.7872,-0.7872,-0.7763,-0.766,-0.7568,-0.7415,-0.735,-0.7377,-0.7307,-0.7269,-0.7269,-0.7269,-0.7225,-0.721,-0.721,-0.721,-0.721,-0.721,-0.721,-0.721,-0.721,-0.721,-0.7204,-0.7161,-0.7172,-0.7204,-0.7161,-0.7172,-0.721,-0.721,-0.721,-0.721,-0.721,-0.671,-0.5922,-0.5107,-0.4543,-0.4058,-0.3336,-0.3143,-0.2886,-0.2012,-0.1238,-0.0567,-0.0115,0.0,0.0,0.0,0.0,0.0,0.0,0.0,0.0,0.0,0.0,0.0,0.0,0.0,0.0,0.0,0.0,0.0,0.0,0.0,0.0,0.0,0.0,-0.0251,-0.0757,-0.1603,-0.3386,-0.6205,-0.6802,-0.752,-0.8416,-0.8486,-0.8546,-0.859,-0.859,-0.859,-0.859,-0.859,-0.859,-0.859,-0.859,-0.859,-0.859,-0.859,-0.859,-0.859,-0.859,-0.859,-0.859,-0.859,-0.859,-0.859,-1.0649,-1.0683,-1.0658,-1.0591,-1.0326,-1.0127,-0.9921,-0.9449,-0.905,-0.8984,-0.8717,-0.853,-0.8378,-0.8285,-0.8171,-0.807,-0.7982,-0.7872,-0.7872,-0.7872,-0.7872,-0.7872,-0.7796,-0.7736,-0.7703,-0.7497,-0.7415,-0.7459,-0.7339,-0.7279,-0.7279,-0.7279,-0.7236,-0.721,-0.721,-0.721,-0.721,-0.721,-0.721,-0.721,-0.721,-0.721,-0.721,-0.721,-0.721,-0.721,-0.721,-0.721,-0.721,-0.721,-0.721,-0.7154,-0.6765,-0.5815,-0.47,-0.386,-0.3314,-0.2828,-0.2002,-0.1543,-0.1251,-0.1251,-0.0629,0.0,0.0,0.0,0.0,0.0,0.0,0.0,0.0,0.0,0.0,0.0,0.0,0.0,0.0,0.0,0.0,0.0,0.0,0.0,0.0,0.0,0.0,0.0,0.0,0.0,0.0,-0.1309,-0.2992,-0.4967,-0.5503,-0.6144,-0.6946,-0.8082,-0.859,-0.859,-0.859,-0.859,-0.859,-0.859,-0.859,-0.859,-0.859,-0.859,-0.859,-0.859,-0.859,-0.859,-0.859,-0.859,-0.859,-0.859,-0.859,-0.859,-1.0493,-1.0616,-1.0585,-1.0259,-1.0193,-0.9921,-0.9183,-0.9117,-0.8984,-0.8651,-0.859,-0.8497,-0.8258,-0.8172,-0.8138,-0.7894,-0.7872,-0.7872,-0.7872,-0.7872,-0.7872,-0.7872,-0.7872,-0.7818,-0.7703,-0.7584,-0.7459,-0.7282,-0.7214,-0.721,-0.721,-0.721,-0.721,-0.721,-0.721,-0.721,-0.721,-0.721,-0.721,-0.721,-0.721,-0.721,-0.721,-0.721,-0.721,-0.721,-0.721,-0.721,-0.721,-0.721,-0.721,-0.6988,-0.5759,-0.4533,-0.358,-0.358,-0.2719,-0.1779,-0.178,-0.0931,0.0,0.0,0.0,0.0,0.0,0.0,0.0,0.0,0.0,0.0,0.0,0.0,0.0,0.0,0.0,0.0,0.0,0.0,0.0,0.0,0.0,0.0,0.0,0.0,0.0,0.0,0.0,0.0,0.0,-0.1334,-0.2084,-0.2084,-0.349,-0.4091,-0.3823,-0.6973,-0.859,-0.859,-0.859,-0.859,-0.859,-0.859,-0.859,-0.859,-0.859,-0.859,-0.859,-0.859,-0.859,-0.859,-0.859,-0.859,-0.859,-0.859,-0.859,-0.859,-1.0649,-1.069,-1.0585,-1.0259,-0.9994,-0.9661,-0.9183,-0.8917,-0.8717,-0.859,-0.859,-0.8497,-0.8258,-0.8172,-0.8138,-0.7894,-0.7872,-0.7872,-0.7872,-0.7872,-0.7872,-0.7872,-0.7872,-0.7856,-0.7823,-0.7622,-0.754,-0.7589,-0.7383,-0.7279,-0.7279,-0.7279,-0.7236,-0.721,-0.721,-0.721,-0.7215,-0.7247,-0.7279,-0.7279,-0.7279,-0.7279,-0.7274,-0.7243,-0.721,-0.721,-0.721,-0.721,-0.7099,-0.6209,-0.5926,-0.5592,-0.3525,-0.263,-0.2183,-0.1344,-0.0794,-0.0518,-0.0525,-0.0296,0.0,0.0,0.0,0.0,0.0,0.0,0.0,0.0,0.0,0.0,0.0,0.0,0.0,0.0,0.0,0.0,0.0,0.0,0.0,0.0,0.0,0.0,0.0,0.0,0.0,0.0,0.0,0.0132,0.0334,-0.0067,-0.0605,-0.1344,-0.1814,-0.2618,-0.3823,-0.5967,-0.6911,-0.6706,-0.7984,-0.859,-0.859,-0.859,-0.859,-0.859,-0.859,-0.859,-0.859,-0.859,-0.859,-0.859,-0.859,-0.859,-0.859,-0.859,-0.859,-0.859,-1.0629,-1.0677,-1.0585,-1.0259,-0.9927,-0.9594,-0.9183,-0.8784,-0.859,-0.859,-0.859,-0.8497,-0.8258,-0.8172,-0.8138,-0.7894,-0.7872,-0.7872,-0.7872,-0.7872,-0.7872,-0.7872,-0.7872,-0.7872,-0.7872,-0.7638,-0.7578,-0.7703,-0.7453,-0.7277,-0.7277,-0.7277,-0.7269,-0.7215,-0.7203,-0.7225,-0.7236,-0.7355,-0.741,-0.741,-0.741,-0.741,-0.7399,-0.7328,-0.7269,-0.723,-0.7279,-0.7292,-0.6993,-0.5859,-0.4799,-0.3729,-0.2261,-0.1478,-0.0971,-0.0229,0.0,0.0,0.0,0.0,0.0,0.0,0.0,0.0,0.0,0.0,0.0,0.0,0.0,0.0,0.0,0.0,0.0,0.0,0.0,0.0,0.0,0.0,0.0,0.0,0.0124,0.0188,0.0192,0.0321,0.0454,0.0464,0.0465,0.0533,0.074,0.0741,0.0471,-0.0202,-0.0202,-0.0672,-0.1678,-0.3423,-0.483,-0.5904,-0.6435,-0.6907,-0.7307,-0.704,-0.684,-0.6773,-0.7445,-0.7717,-0.7784,-0.8384,-0.8251,-0.7717,-0.7717,-0.7379,-0.6907,-0.6907,-0.6907,-0.6907,-1.0514,-1.0557,-1.0518,-1.0193,-0.9861,-0.9522,-0.9117,-0.8784,-0.859,-0.859,-0.859,-0.8503,-0.8274,-0.8188,-0.8155,-0.791,-0.7877,-0.7872,-0.7872,-0.7872,-0.7872,-0.7872,-0.7872,-0.7872,-0.7872,-0.7649,-0.7589,-0.7703,-0.7464,-0.7293,-0.7293,-0.7293,-0.729,-0.7248,-0.7301,-0.7293,-0.7304,-0.7486,-0.7535,-0.7535,-0.7535,-0.7535,-0.7535,-0.7524,-0.7448,-0.7309,-0.7481,-0.7315,-0.6862,-0.5597,-0.3618,-0.1612,-0.1612,-0.0872,0.0,0.0,0.0,0.0,0.0,0.0,0.0,0.0,0.0,0.0,0.0,0.0,0.0,0.0,0.0,0.0,0.0,0.0,0.0,0.0,0.0,0.0,0.0,0.0,0.0,0.0,0.0313,0.0505,0.0505,0.0843,0.1127,0.1076,0.1077,0.1144,0.1144,0.1144,0.1144,0.1212,0.1212,0.1346,0.1616,0.0,-0.235,-0.5432,-0.4292,-0.4292,-0.5162,-0.4492,-0.4024,-0.3823,-0.5432,-0.6105,-0.6239,-0.7579,-0.7379,-0.6172,-0.6176,-0.5436,-0.4294,-0.4294,-0.4294,-0.4294,-1.067,-1.0498,-1.0193,-0.9861,-0.9455,-0.9117,-0.8784,-0.8651,-0.859,-0.859,-0.859,-0.8535,-0.8394,-0.8378,-0.828,-0.8097,-0.7988,-0.7872,-0.7872,-0.7872,-0.7872,-0.7872,-0.7872,-0.7872,-0.7872,-0.7736,-0.7676,-0.7703,-0.7551,-0.7481,-0.7481,-0.7481,-0.7464,-0.7442,-0.7464,-0.7481,-0.7486,-0.7611,-0.766,-0.766,-0.766,-0.766,-0.7649,-0.7557,-0.7502,-0.7481,-0.7508,-0.6778,-0.552,-0.3325,-0.1638,-0.041,-0.041,-0.0235,0.0,0.0,0.0,0.0,0.0,0.0,0.0,0.0,0.0,0.0,0.0,0.0,0.0,0.0,0.0,0.0,0.0,0.0,0.0,0.0,0.0,0.0,0.0,0.0,0.0,0.0,0.031,0.0499,0.0505,0.0843,0.1061,0.1076,0.1077,0.1212,0.1481,0.1481,0.1616,0.1952,0.1952,0.1818,0.1616,0.1548,0.0403,-0.1679,-0.2816,-0.3419,-0.3687,-0.3486,-0.3419,-0.3352,-0.3754,-0.3887,-0.3957,-0.4559,-0.4626,-0.4359,-0.4629,-0.4562,-0.4294,-0.4294,-0.4294,-0.416,-1.0717,-1.0452,-1.0127,-0.9994,-0.9455,-0.905,-0.8851,-0.8717,-0.859,-0.859,-0.859,-0.8546,-0.8432,-0.8367,-0.8231,-0.8048,-0.7971,-0.7872,-0.7872,-0.7872,-0.7872,-0.7872,-0.7872,-0.7872,-0.7872,-0.7812,-0.778,-0.778,-0.7665,-0.7606,-0.7606,-0.7606,-0.7573,-0.7524,-0.7578,-0.7606,-0.7616,-0.7731,-0.778,-0.778,-0.778,-0.778,-0.7774,-0.7709,-0.753,-0.7251,-0.6708,-0.5134,-0.3142,-0.1768,-0.0532,0.0477,0.0298,0.024,0.0181,0.006,0.0,0.0,0.0,0.0,0.0,0.0,0.0,0.0,0.0,0.0,0.0,0.0,0.0,0.0,0.0,0.0,0.0,0.0,0.0,0.0,0.0,0.0123,0.0248,0.025,0.0691,0.1081,0.13,0.1444,0.1525,0.1614,0.1616,0.1683,0.1885,0.1885,0.1952,0.2223,0.2223,0.2087,0.1885,0.2087,0.175,0.0807,-0.0336,-0.1208,-0.1678,-0.1276,-0.1074,-0.094,-0.1812,-0.2214,-0.2281,-0.3153,-0.322,-0.2752,-0.2954,-0.2685,-0.2216,-0.2216,-0.2216,-0.215,-1.0591,-1.0319,-0.9987,-0.9987,-0.9455,-0.8984,-0.8984,-0.8784,-0.859,-0.859,-0.859,-0.8552,-0.8459,-0.8318,-0.8144,-0.7921,-0.7883,-0.7872,-0.7872,-0.7872,-0.7872,-0.7872,-0.7872,-0.7872,-0.7872,-0.7872,-0.7872,-0.7872,-0.7774,-0.7731,-0.7731,-0.7731,-0.7676,-0.7584,-0.7687,-0.7731,-0.7736,-0.7834,-0.7872,-0.7811,-0.7811,-0.7811,-0.775,-0.775,-0.7322,-0.6649,-0.5693,-0.3476,-0.0964,-0.0595,0.018,0.0969,0.0666,0.055,0.0432,0.0185,0.0062,0.0,0.0,0.0,0.0,0.0,0.0,0.0,0.0,0.0,0.0,0.0,0.0,0.0,0.0,0.0,0.0,0.0,0.0,0.0,0.0062,0.0311,0.05,0.0569,0.1217,0.176,0.2142,0.2124,0.2121,0.222,0.2223,0.2223,0.2223,0.2223,0.2223,0.2223,0.2223,0.2223,0.2223,0.2223,0.2223,0.2223,0.1885,0.1211,0.0403,0.1009,0.1414,0.1616,0.0134,-0.0538,-0.0605,-0.1879,-0.188,-0.1076,-0.1143,-0.0605,0.0067,0.0,0.0,0.0,-1.0259,-0.9721,-0.925,-0.925,-0.8917,-0.8656,-0.8656,-0.8651,-0.859,-0.859,-0.859,-0.8584,-0.8568,-0.8367,-0.8182,-0.8103,-0.7993,-0.7872,-0.7872,-0.7872,-0.7872,-0.7872,-0.7872,-0.7872,-0.7872,-0.7872,-0.7872,-0.7872,-0.7856,-0.785,-0.785,-0.785,-0.7839,-0.7823,-0.7839,-0.785,-0.785,-0.7861,-0.775,-0.7449,-0.7449,-0.7266,-0.7021,-0.7021,-0.6267,-0.5212,-0.5035,-0.3252,-0.0798,0.0368,0.086,0.0985,0.0924,0.074,0.0494,0.0432,0.0247,0.0,0.0,0.0,0.0,0.0,0.0,0.0,0.0,0.0,0.0,0.0,0.0,0.0,0.0,0.0,0.0,0.0,0.0,0.0129,0.0385,0.0449,0.0642,0.0964,0.1353,0.1753,0.2112,0.2112,0.2121,0.222,0.2223,0.2223,0.2223,0.2223,0.2223,0.2223,0.2223,0.2223,0.2223,0.2223,0.2223,0.2223,0.2154,0.2019,0.1885,0.2019,0.2087,0.2087,0.1885,0.175,0.1683,0.1144,0.1009,0.1144,0.0875,0.0606,0.0404,0.0135,0.0,0.0,-0.9927,-0.9455,-0.9117,-0.9117,-0.8851,-0.859,-0.859,-0.859,-0.859,-0.859,-0.859,-0.859,-0.859,-0.8437,-0.8263,-0.8136,-0.8065,-0.8004,-0.7877,-0.7872,-0.7872,-0.7872,-0.7872,-0.7872,-0.7872,-0.7872,-0.7872,-0.7872,-0.7872,-0.7872,-0.7872,-0.7872,-0.7872,-0.7872,-0.7872,-0.7872,-0.7872,-0.7872,-0.7689,-0.7388,-0.7388,-0.7204,-0.6903,-0.6903,-0.597,-0.4429,-0.2768,-0.0924,0.074,0.1358,0.1544,0.1543,0.1358,0.105,0.0741,0.0556,0.0247,0.0,0.0,0.0,0.0,0.0,0.0,0.0,0.0,0.0,0.0,0.0,0.0,0.0,0.0,0.0,0.0,0.0,0.0,0.013,0.0452,0.0646,0.0971,0.1566,0.1841,0.1987,0.2133,0.2135,0.214,0.2221,0.2223,0.2223,0.2223,0.2223,0.2223,0.2223,0.2223,0.2223,0.2223,0.2223,0.2223,0.2223,0.2223,0.2223,0.2223,0.2223,0.2223,0.2223,0.2223,0.2223,0.2155,0.2019,0.1818,0.1548,0.1212,0.0741,0.0202,0.0067,0.0,0.0]},{"header":{"parameterUnit":"m.s-1","parameterCategory":1,"la1":30.6,"la2":28.766,"lo1":-90.7593,"lo2":-88.6598,"dy":0.0162,"dx":0.0183,"nx":116,"ny":114,"refTime":"2023-09-18T00:00:00:Z","depth":0,"parameterNumber":3,"parameterNumberName":"V-component_of_WINDS"},"data":[0.0,0.0,0.0,0.0,0.0,0.0,0.0,0.0,0.0,0.0,0.0,0.0,0.0,0.0,0.0,0.0,0.0,0.0,0.0,0.0,0.0,0.0,0.0,0.0,0.0,0.0,0.0,0.0,0.0,0.0,0.0,0.0,0.0,0.0,0.0,0.0,0.0,0.0,0.0,0.0,0.0,0.0,0.0,0.0,0.0,0.0,0.0,0.0,0.0,0.0,0.0,0.0,0.0,0.0,0.0,0.0,0.0,0.0,0.0,0.0,0.0,0.0,0.0,0.0,0.0,0.0,0.0,0.0,0.0,0.0,0.0,0.0,0.0,0.0,0.0,0.0,0.0,0.0,0.0,0.0,0.0,0.0,0.0,0.0,0.0,0.0,0.0,0.0,0.0,0.0,0.0,0.0,0.0,0.0,0.0,0.0,0.0,0.0,0.0,0.0,0.0,0.0,0.0,0.0,0.0,0.0,0.0,0.0,0.0,0.0,0.0,0.0,0.0,0.0,0.0,0.0,0.0,0.0,0.0,0.0,0.0,0.0,0.0,0.0,0.0,0.0,0.0,0.0,0.0,0.0,0.0,0.0,0.0,0.0,0.0,0.0,0.0,0.0,0.0,0.0,0.0,0.0,0.0,0.0,0.0,0.0,0.0,0.0,0.0,0.0,0.0,0.0,0.0,0.0,0.0,0.0,0.0,0.0,0.0,0.0,0.0,0.0,0.0,0.0,0.0,0.0,0.0,0.0,0.0,0.0,0.0,0.0,0.0,0.0,0.0,0.0,0.0,0.0,0.0,0.0,0.0,0.0,0.0,0.0,0.0,0.0,0.0,0.0,0.0,0.0,0.0,0.0,0.0,0.0,0.0,0.0,0.0,0.0,0.0,0.0,0.0,0.0,0.0,0.0,0.0,0.0,0.0,0.0,0.0,0.0,0.0,0.0,0.0,0.0,0.0,0.0,0.0,0.0,0.0,0.0,0.0,0.0,0.0,0.0,0.0,0.0,0.0,0.0,0.0,0.0,0.0,0.0,0.0,0.0,0.0,0.0,0.0,0.0,0.0,0.0,0.0,0.0,0.0,0.0,0.0,0.0,0.0,0.0,0.0,0.0,0.0,0.0,0.0,0.0,0.0,0.0,0.0,0.0,0.0,0.0,0.0,0.0,0.0,0.0,0.0,0.0,0.0,0.0,0.0,0.0,0.0,0.0,0.0,0.0,0.0,0.0,0.0,0.0,0.0,0.0,0.0,0.0,0.0,0.0,0.0,0.0,0.0,0.0,0.0,0.0,0.0,0.0,0.0,0.0,0.0,0.0,0.0,0.0,0.0,0.0,0.0,0.0,0.0,0.0,0.0,0.0,0.0,0.0,0.0,0.0,0.0,0.0,0.0,0.0,0.0,0.0,0.0,0.0,0.0,0.0,0.0,0.0,0.0,0.0,0.0,0.0,0.0,0.0,0.0,0.0,0.0,0.0,0.0,0.0,0.0,0.0,0.0,0.0,0.0,0.0,0.0,0.0,0.0,0.0,0.0,0.0,0.0,0.0,0.0,0.0,0.0,0.0,0.0,0.0,0.0,0.0,0.0,0.0,0.0,0.0,0.0,0.0,0.0,0.0,0.0,0.0,0.0,0.0,0.0,0.0,0.0,0.0,0.0,0.0,0.0,0.0,0.0,0.0,0.0,0.0,0.0,0.0,0.0,0.0,0.0,0.0,0.0,0.0,0.0,0.0,0.0,0.0,0.0,0.0,0.0,0.0,0.0,0.0,0.0,0.0,0.0,0.0,0.0,0.0,0.0,0.0,0.0,0.0,0.0,0.0,0.0,0.0,0.0,0.0,0.0,0.0,0.0,0.0,0.0,0.0,0.0,0.0,0.0,0.0,0.0,0.0,0.0,0.0,0.0,0.0,0.0,0.0,0.0,0.0,0.0,0.0,0.0,0.0,0.0,0.0,0.0,0.0,0.0,0.0,0.0,0.0,0.0,0.0,0.0,0.0,0.0,0.0,0.0,0.0,0.0,0.0,0.0,0.0,0.0,0.0,0.0,0.0,0.0,0.0,0.0,0.0,0.0,0.0,0.0,0.0,0.0,0.0,0.0,0.0,0.0,0.0,0.0,0.0,0.0,0.0,0.0,0.0,0.0,0.0,0.0,0.0,0.0,0.0,0.0,0.0,0.0,0.0,0.0,0.0,0.0,0.0,0.0,0.0,0.0,0.0,0.0,0.0,0.0,0.0,0.0,0.0,0.0,0.0,0.0,0.0,0.0,0.0,0.0,0.0,0.0,0.0,0.0,0.0,0.0,0.0,0.0,0.0,0.0,0.0,0.0,0.0,0.0,0.0,0.0,0.0,0.0,0.0,0.0,0.0,0.0,0.0,0.0,0.0,0.0,0.0,0.0,0.0,0.0,0.0,0.0,0.0,0.0,0.0,0.0,0.0,0.0,0.0,0.0,0.0,0.0,0.0,0.0,0.0,0.0,0.0,0.0,0.0,0.0,0.0,0.0,0.0,0.0,0.0,0.0,0.0,0.0,0.0,0.0,0.0,0.0,0.0,0.0,0.0,0.0,0.0,0.0,0.0,0.0,0.0,0.0,0.0,0.0,0.0,0.0,0.0,0.0,0.0,0.0,0.0,0.0,0.0,0.0,0.0,0.0,0.0,0.0,0.0,0.0,0.0,0.0,0.0,0.0,0.0,0.0,0.0,0.0,0.0,0.0,0.0,0.0,0.0,0.0,0.0,0.0,0.0,0.0,0.0,0.0,0.0,0.0,0.0,0.0,0.0,0.0,0.0,0.0,0.0,0.0,0.0,0.0,0.0,0.0,0.0,0.0,0.0,0.0,0.0,0.0,0.0,0.0,0.0,0.0,0.0,0.0,0.0,0.0,0.0,0.0,0.0,0.0,0.0,0.0,0.0,0.0,0.0,0.0,0.0,0.0,0.0,0.0,0.0,0.0,0.0,0.0,0.0,0.0,0.0,0.0,0.0,0.0,0.0,0.0,0.0,0.0,0.0,0.0,0.0,0.0,0.0,0.0,0.0,0.0,0.0,0.0,0.0,0.0,0.0,0.0,0.0,0.0,0.0,0.0,0.0,0.0,0.0,0.0,0.0,0.0,0.0,0.0,0.0,0.0,0.0,0.0,0.0,0.0,0.0,0.0,0.0,0.0,0.0,0.0,0.0,0.0,0.0,0.0,0.0,0.0,0.0,0.0,0.0,0.0,0.0,0.0,0.0,0.0,0.0,0.0,0.0,0.0,0.0,0.0,0.0,0.0,0.0,0.0,0.0,0.0,0.0,0.0,0.0,0.0,0.0,0.0,0.0,0.0,0.0,0.0,0.0,0.0,0.0,0.0,0.0,0.0,0.0,0.0,0.0,0.0,0.0,0.0,0.0,0.0,0.0,0.0,0.0,0.0,0.0,0.0,0.0,0.0,0.0,0.0,0.0,0.0,0.0,0.0,0.0,0.0,0.0,0.0,0.0,0.0,0.0,0.0,0.0,0.0,0.0,0.0,0.0,0.0,0.0,0.0,0.0,0.0,0.0,0.0,0.0,0.0,0.0,0.0,0.0,0.0,0.0,0.0,0.0,0.0,0.0,0.0,0.0,0.0,0.0,0.0,0.0,0.0,0.0,0.0,0.0,0.0,0.0,0.0,0.0,0.0,0.0,0.0,0.0,0.0,0.0,0.0,0.0,0.0,0.0,0.0,0.0,0.0,0.0,0.0,0.0,0.0,0.0,0.0,0.0,0.0,0.0,0.0,0.0,0.0,0.0,0.0,0.0,0.0,0.0,0.0,0.0,0.0,0.0,0.0,0.0,0.0,0.0,0.0,0.0,0.0,0.0,0.0,0.0,0.0,0.0,0.0,0.0,0.0,0.0,0.0,0.0,0.0,0.0,0.0,0.0,0.0,0.0,0.0,0.0,0.0,0.0,0.0,0.0,0.0,0.0,0.0,0.0,0.0,0.0,0.0,0.0,0.0,0.0,0.0,0.0,0.0,0.0,0.0,0.0,0.0,0.0,0.0,0.0,0.0,0.0,0.0,0.0,0.0,0.0,0.0,0.0,0.0,0.0,0.0,0.0,0.0,0.0,0.0,0.0,0.0,0.0,0.0,0.0,0.0,0.0,0.0,0.0,0.0,0.0,0.0,0.0,0.0,0.0,0.0,0.0,0.0,0.0,0.0,0.0,0.0,0.0,0.0,0.0,0.0,0.0,0.0,0.0,0.0,0.0,0.0,0.0,0.0,0.0,0.0,0.0,0.0,0.0,0.0,0.0,0.0,0.0,0.0,0.0,0.0,0.0,0.0,0.0,0.0,0.0,0.0,0.0,0.0,0.0,0.0,0.0,0.0,0.0,0.0,0.0,0.0,0.0,0.0,0.0,0.0,0.0,0.0,0.0,0.0,0.0,0.0,0.0,0.0,0.0,0.0,0.0,0.0,0.0,0.0,0.0,0.0,0.0,0.0,0.0,0.0,0.0,0.0,0.0,0.0,0.0,0.0,0.0,0.0,0.0,0.0,0.0,0.0,0.0,0.0,0.0,0.0,0.0,0.0,0.0,0.0,0.0,0.0,0.0,0.0,0.0,0.0,0.0,0.0,0.0,0.0,0.0,0.0,0.0,0.0,0.0,0.0,0.0,0.0,0.0,0.0,0.0,0.0,0.0,0.0,0.0,0.0,0.0,0.0,0.0,0.0,0.0,0.0,0.0,0.0,0.0,0.0,0.0,0.0,0.0,0.0,0.0,0.0,0.0,0.0,0.0,0.0,0.0,0.0,0.0,0.0,0.0,0.0,0.0,0.0,0.0,0.0,0.0,0.0,0.0,0.0,0.0,0.0,0.0,0.0,0.0,0.0,0.0,0.0,0.0,0.0,0.0,0.0,0.0,0.0,0.0,0.0,0.0,0.0,0.0,0.0,0.0,0.0,0.0,0.0,0.0,0.0,0.0,0.0,0.0,0.0,0.0,0.0,0.0,0.0,0.0,0.0,0.0,0.0,0.0,0.0,0.0,0.0,0.0,0.0,0.0,0.0,0.0,0.0,0.0,0.0,0.0,0.0,0.0,0.0,0.0,0.0,0.0,0.0,0.0,0.0,0.0,0.0,0.0,0.0,0.0,0.0,0.0,0.0,0.0,0.0,0.0,0.0,0.0,0.0,0.0,0.0,0.0,0.0,0.0,0.0,0.0,0.0,0.0,0.0,0.0,0.0,0.0,0.0,0.0,0.0,0.0,0.0,0.0,0.0,0.0,0.0,0.0,0.0,0.0,0.0,0.0,0.0,0.0,0.0,0.0,0.0,0.0,0.0,0.0,0.0,0.0,0.0,0.0,0.0,0.0,0.0,0.0,0.0,0.0,0.0,0.0,0.0,0.0,0.0,0.0,0.0,0.0,0.0,0.0,0.0,0.0,0.0,0.0,0.0,0.0,0.0,0.0,0.0,0.0,0.0,0.0,0.0,0.0,0.0,0.0,0.0,0.0,0.0,0.0,0.0,0.0,0.0,0.0,0.0,0.0,0.0,0.0,0.0,0.0,0.0,0.0,0.0,0.0,0.0,0.0,0.0,0.0,0.0,0.0,0.0,0.0,0.0,0.0,0.0,0.0,0.0,0.0,0.0,0.0,0.0,0.0,0.0,0.0,0.0,0.0,0.0,0.0,0.0,0.0,0.0,0.0,0.0,0.0,0.0,0.0,0.0,0.0,0.0,0.0,0.0,0.0,0.0,0.0,0.0,0.0,0.0,0.0,0.0,0.0,0.0,0.0,0.0,0.0,0.0,0.0,0.0,0.0,0.0,0.0,0.0,0.0,0.0,0.0,0.0,0.0,0.0,0.0,0.0,0.0,0.0,0.0,0.0,0.0,0.0,0.0,0.0,0.0,0.0,0.0,0.0,0.0,0.0,0.0,0.0,0.0,0.0,0.0,0.0,0.0,0.0,0.0,0.0,0.0,0.0,0.0,0.0,0.0,0.0,0.0,0.0,0.0,0.0,0.0,0.0,0.0,0.0,0.0,0.0,0.0,0.0,0.0,0.0,0.0,0.0,0.0,0.0,0.0,0.0,0.0,0.0,0.0,0.0,0.0,0.0,0.0,0.0,0.0,0.0,0.0,3.5596,3.457,0.0,0.0,0.0,0.0,0.0,0.0,0.0,0.0,0.0,0.0,0.0,0.0,0.0,0.0,0.0,0.0,0.0,0.0,0.0,0.0,0.0,0.0,0.0,0.0,0.0,0.0,0.0,0.0,0.0,0.0,0.0,0.0,0.0,0.0,0.0,0.0,0.0,0.0,3.6831,3.7717,3.9364,3.9648,3.8661,3.6706,0.0,0.0,0.0,0.0,0.0,0.0,0.0,0.0,0.0,0.0,0.0,0.0,0.0,0.0,0.0,0.0,0.0,0.0,0.0,0.0,0.0,0.0,0.0,0.0,0.0,0.0,0.0,0.0,0.0,0.0,0.0,0.0,0.0,0.0,0.0,0.0,0.0,0.0,0.0,0.0,0.0,0.0,0.0,0.0,0.0,0.0,0.0,0.0,0.0,0.0,0.0,0.0,0.0,0.0,0.0,0.0,0.0,0.0,0.0,0.0,0.0,0.0,0.0,0.0,0.0,0.0,0.0,0.0,0.0,0.0,3.9478,3.7754,0.0,0.0,0.0,0.0,0.0,0.0,0.0,0.0,0.0,0.0,0.0,0.0,0.0,0.0,0.0,0.0,0.0,0.0,0.0,0.0,0.0,0.0,0.0,0.0,3.5825,3.5825,3.5938,0.0,0.0,0.0,0.0,0.0,0.0,0.0,0.0,3.7066,3.718,3.7103,3.8008,3.9704,4.2062,4.2604,4.1385,3.8699,3.7401,0.0,0.0,0.0,0.0,0.0,0.0,0.0,0.0,0.0,0.0,0.0,0.0,0.0,0.0,0.0,0.0,0.0,0.0,0.0,0.0,0.0,0.0,0.0,0.0,0.0,0.0,0.0,0.0,0.0,0.0,0.0,0.0,0.0,0.0,0.0,0.0,0.0,0.0,0.0,0.0,0.0,0.0,0.0,0.0,0.0,0.0,0.0,0.0,0.0,0.0,0.0,0.0,0.0,0.0,0.0,0.0,0.0,0.0,0.0,0.0,0.0,0.0,0.0,4.7161,4.7929,4.7782,4.7929,4.8114,4.8117,4.5369,4.3122,4.1406,4.042,0.0,0.0,0.0,0.0,0.0,0.0,0.0,0.0,0.0,0.0,0.0,0.0,0.0,0.0,0.0,0.0,0.0,0.0,0.0,0.0,0.0,3.6333,3.6718,3.666,3.7212,3.7652,0.0,0.0,0.0,0.0,0.0,0.0,3.6795,3.8048,3.8601,3.8377,4.1208,4.318,4.4307,4.5086,4.5365,4.5132,4.2063,4.1324,4.2299,0.0,0.0,0.0,0.0,0.0,0.0,0.0,0.0,0.0,0.0,0.0,0.0,0.0,0.0,0.0,0.0,0.0,0.0,0.0,0.0,0.0,0.0,0.0,0.0,0.0,0.0,0.0,0.0,0.0,0.0,0.0,0.0,0.0,0.0,0.0,0.0,0.0,0.0,0.0,0.0,0.0,3.5395,3.4703,0.0,0.0,0.0,0.0,0.0,0.0,0.0,0.0,0.0,0.0,0.0,0.0,0.0,4.5624,4.7219,4.8829,4.9382,4.8874,5.1238,5.2009,5.1369,5.2045,5.2763,5.3387,5.2983,0.0,4.398,4.2479,0.0,0.0,0.0,0.0,0.0,0.0,0.0,0.0,0.0,0.0,0.0,0.0,0.0,0.0,0.0,0.0,0.0,0.0,0.0,0.0,0.0,3.7592,3.8444,3.884,4.0362,4.0891,4.0,0.0,0.0,0.0,0.0,3.6795,3.6795,3.7438,3.8813,4.0961,4.3975,4.6233,4.7753,4.9014,4.9934,5.0452,4.8518,4.5936,4.2965,4.2145,0.0,0.0,0.0,0.0,0.0,0.0,0.0,0.0,0.0,0.0,0.0,0.0,0.0,0.0,0.0,0.0,0.0,0.0,0.0,0.0,0.0,0.0,0.0,0.0,0.0,0.0,0.0,0.0,0.0,0.0,0.0,0.0,0.0,0.0,0.0,0.0,0.0,0.0,0.0,3.6307,3.7213,3.6884,3.8287,3.8761,0.0,0.0,0.0,0.0,0.0,0.0,0.0,0.0,0.0,4.7294,4.8173,4.9345,5.0998,5.2632,5.3497,5.3628,5.5625,5.6396,5.6051,5.6396,5.6763,5.7079,5.6638,5.4268,5.0578,4.8065,4.592,4.4071,0.0,0.0,0.0,0.0,4.268,4.3046,0.0,0.0,0.0,0.0,0.0,0.0,0.0,0.0,0.0,0.0,0.0,0.0,3.7649,3.9292,4.0739,4.1868,4.351,4.397,4.2773,4.1614,0.0,0.0,0.0,3.6661,3.6841,3.8048,4.0527,4.4263,4.7075,4.9555,5.1679,5.3047,5.417,5.4955,5.452,5.1149,4.5599,4.4983,4.3244,4.0854,0.0,0.0,0.0,0.0,0.0,0.0,0.0,0.0,0.0,0.0,0.0,0.0,0.0,0.0,0.0,0.0,0.0,0.0,0.0,0.0,0.0,0.0,0.0,0.0,0.0,0.0,0.0,0.0,0.0,0.0,0.0,0.0,0.0,0.0,0.0,0.0,0.0,3.8282,3.9467,3.8846,4.1165,4.1913,0.0,0.0,0.0,0.0,0.0,0.0,4.6544,4.8306,5.0141,5.1977,5.2821,5.4032,5.5625,5.6859,5.7629,5.8033,5.9245,5.9832,5.9832,5.9832,5.9918,6.0065,5.9501,5.8327,5.6528,5.2894,4.9848,4.7352,4.6104,4.5516,4.5369,4.5553,4.5755,4.6067,0.0,0.0,0.0,0.0,0.0,0.0,0.0,0.0,0.0,0.0,0.0,3.7103,3.925,4.1494,4.364,4.5727,4.6007,4.6075,4.5979,4.1911,3.946,3.9392,3.724,3.6285,3.6865,4.1461,4.5281,4.8191,5.1054,5.3608,5.5898,5.6647,5.7481,5.838,5.9096,5.712,5.2878,4.8315,4.5852,4.4729,4.1687,0.0,0.0,0.0,0.0,0.0,0.0,0.0,0.0,0.0,0.0,0.0,0.0,0.0,0.0,0.0,0.0,0.0,0.0,0.0,0.0,0.0,0.0,0.0,0.0,0.0,0.0,0.0,0.0,0.0,0.0,0.0,0.0,0.0,0.0,0.0,0.0,0.0,0.0,4.012,4.4618,0.0,0.0,0.0,0.0,4.5663,4.86,5.0802,5.1573,5.3885,5.6271,5.8634,5.9501,6.0713,6.2303,6.2401,6.2071,6.1337,6.1447,6.1484,6.1484,6.1484,6.1887,6.2622,6.256,6.1667,5.9795,5.506,5.2527,5.1463,4.904,4.9077,5.0251,4.871,4.86,4.915,0.0,0.0,0.0,0.0,0.0,0.0,0.0,0.0,3.6284,3.6284,3.7146,3.8836,4.1605,4.4819,4.7651,4.9894,5.0965,5.0695,4.8649,4.515,4.2663,4.1629,3.9382,3.9628,4.269,4.5559,4.9046,5.3195,5.5025,5.6842,5.8664,5.9415,5.9936,6.0278,6.057,5.9597,5.7498,5.3681,4.9785,4.5989,4.3734,4.1615,0.0,0.0,0.0,0.0,0.0,0.0,0.0,0.0,0.0,0.0,0.0,0.0,0.0,0.0,0.0,0.0,0.0,0.0,0.0,0.0,0.0,0.0,0.0,0.0,0.0,0.0,0.0,0.0,0.0,0.0,0.0,0.0,0.0,0.0,0.0,0.0,0.0,4.8379,5.161,0.0,5.0325,5.1132,5.1683,5.1389,5.3885,5.6014,5.7336,5.9208,6.1374,6.3833,6.3686,6.409,6.5191,6.4677,6.4273,6.398,6.398,6.398,6.398,6.3429,6.3062,6.2743,6.2254,6.141,6.0236,5.7973,5.5978,5.4179,5.2784,5.227,5.227,5.1662,5.1646,5.183,0.0,0.0,0.0,0.0,0.0,0.0,0.0,0.0,3.6387,3.6663,3.8249,4.0756,4.432,4.7872,5.1154,5.4253,5.4287,5.3256,5.1133,4.7176,4.4302,4.2988,4.2157,4.3262,4.6658,4.9851,5.3277,5.6963,5.8276,5.9761,6.1306,6.1511,6.1912,6.2511,6.2511,6.2073,6.116,5.8677,5.4219,4.8618,4.663,4.4795,4.285,0.0,0.0,0.0,0.0,0.0,0.0,0.0,0.0,0.0,0.0,0.0,0.0,0.0,0.0,0.0,0.0,0.0,0.0,0.0,0.0,0.0,0.0,0.0,0.0,0.0,0.0,0.0,0.0,0.0,0.0,0.0,0.0,0.0,0.0,4.8673,5.205,5.3445,5.6455,5.7593,5.5427,5.6455,5.7116,5.6859,5.9355,6.1337,6.2401,6.398,6.5632,6.7247,6.7063,6.7173,6.7724,6.6916,6.6402,6.6109,6.5852,6.5558,6.5264,6.4457,6.3759,6.3209,6.2365,6.1557,6.075,5.9942,5.851,5.6712,5.5647,5.506,5.4803,5.4509,5.4414,5.4363,0.0,0.0,0.0,0.0,0.0,0.0,0.0,3.6402,3.6594,3.7409,3.9549,4.2733,4.7286,5.0533,5.4218,5.8737,5.5667,5.346,5.3391,4.77,4.4035,4.3404,4.5271,4.7026,4.854,5.4279,5.7984,5.9368,6.0811,6.2336,6.3847,6.2913,6.345,6.5118,6.5118,6.4679,6.3873,6.3105,5.9079,5.2996,5.0441,4.8908,4.7614,0.0,0.0,0.0,0.0,0.0,0.0,0.0,0.0,0.0,0.0,0.0,0.0,0.0,0.0,0.0,0.0,0.0,0.0,0.0,0.0,0.0,0.0,0.0,0.0,0.0,0.0,0.0,0.0,0.0,0.0,0.0,0.0,0.0,4.748,5.2234,5.5537,5.484,5.8914,6.0566,5.7483,6.075,6.2695,6.1887,6.4824,6.6659,6.6659,6.8128,6.9009,6.9009,6.9743,7.011,7.011,6.9302,6.8495,6.7687,6.6916,6.6145,6.5375,6.453,6.4163,6.409,6.3209,6.2401,6.1557,6.0786,5.9979,5.9074,5.7483,5.7299,5.7923,5.7116,5.6822,5.6565,0.0,0.0,0.0,0.0,0.0,0.0,0.0,3.6464,3.67,3.7409,4.0929,4.4898,4.8941,5.3563,5.7322,5.9702,5.6909,5.4563,5.346,4.8183,4.5693,4.7076,4.8526,5.1585,5.6439,5.8495,6.0884,6.3624,6.4039,6.4442,6.4856,6.461,6.4757,6.5249,6.5249,6.5139,6.4919,6.4699,6.284,5.9626,5.4121,5.0775,4.8643,0.0,0.0,0.0,0.0,0.0,0.0,0.0,0.0,0.0,0.0,0.0,0.0,0.0,0.0,0.0,0.0,0.0,0.0,0.0,0.0,0.0,0.0,0.0,0.0,0.0,0.0,0.0,0.0,0.0,0.0,0.0,5.1206,5.4179,5.3371,5.7116,6.075,6.2915,6.4861,6.5888,6.5595,6.71,6.776,6.6953,6.8825,7.0,7.0,7.0403,7.0917,7.1505,7.1174,7.0697,7.011,6.9302,6.8495,6.7687,6.7467,6.7247,6.699,6.6219,6.5521,6.4934,6.409,6.3246,6.2401,6.1594,6.0786,5.9905,5.829,5.7813,5.796,5.774,5.6932,5.5794,0.0,0.0,0.0,0.0,0.0,0.0,0.0,3.6541,3.6859,3.7823,4.1654,4.576,4.9597,5.3322,5.6391,5.8564,5.5081,5.239,5.1528,4.8258,4.7034,4.8609,5.2067,5.5604,5.9186,6.1708,6.3906,6.5815,6.6145,6.6476,6.6806,6.6806,6.6806,6.6806,6.6806,6.6623,6.6292,6.5962,6.5264,6.3881,5.8626,5.533,5.303,4.8776,4.6724,4.5919,4.3723,4.2809,4.2389,4.1016,0.0,0.0,0.0,0.0,0.0,0.0,0.0,0.0,0.0,0.0,0.0,0.0,0.0,0.0,0.0,0.0,0.0,0.0,0.0,0.0,0.0,0.0,0.0,0.0,5.528,5.8731,5.9979,6.2475,6.4971,6.7247,6.8201,6.9009,6.9853,7.033,7.055,7.044,7.1578,7.2018,7.1329,7.1945,7.2202,7.2018,7.1872,7.1578,7.1101,7.033,6.9669,6.9192,6.8531,6.8201,6.8164,6.7026,6.6256,6.5742,6.4604,6.4016,6.3723,6.2218,6.152,6.1227,0.0,0.0,0.0,0.0,5.7189,5.6051,0.0,0.0,0.0,0.0,0.0,0.0,0.0,3.6623,3.704,3.8432,4.193,4.5657,4.9217,5.1154,5.3322,5.6046,5.1632,4.8637,4.8568,4.8086,4.8383,4.9614,5.5398,5.8859,5.9465,6.4085,6.6606,6.6769,6.7577,6.8348,6.9045,6.9045,6.9045,6.9045,6.8935,6.8568,6.7907,6.7026,6.6623,6.6366,6.3246,6.0896,5.8597,5.3371,5.1573,5.1389,4.7645,4.5406,4.4139,4.3772,0.0,0.0,0.0,0.0,0.0,0.0,0.0,0.0,0.0,0.0,0.0,0.0,0.0,0.0,0.0,0.0,0.0,0.0,0.0,0.0,0.0,0.0,0.0,0.0,5.9061,6.2585,6.6476,6.7724,6.8458,6.9119,6.9963,7.0734,7.1394,7.1688,7.2055,7.2606,7.3377,7.3156,7.1651,7.2826,0.0,0.0,0.0,7.2459,7.2386,7.1578,7.1138,7.0999,6.9486,6.8752,6.8715,6.7283,6.6586,6.6402,6.4897,6.4604,6.5007,6.2695,6.2108,6.2438,6.0102,5.8731,5.7997,5.7997,5.7483,5.6822,0.0,0.0,0.0,0.0,0.0,0.0,0.0,3.6751,3.7227,3.8599,4.2085,4.5183,4.7044,5.0223,5.2429,5.3015,4.9913,4.7638,4.7079,4.8017,5.0518,5.4904,5.6897,5.9823,6.4007,6.5757,6.7255,6.8458,6.9229,6.9706,6.9853,6.9853,6.9853,6.9853,6.9192,6.9155,6.9522,6.8054,6.7467,6.7283,6.5375,6.2438,5.8854,5.5831,5.3151,5.0839,4.9407,4.8692,4.8031,4.5369,4.5039,4.5241,4.2653,0.0,0.0,0.0,0.0,0.0,0.0,0.0,0.0,0.0,0.0,0.0,0.0,0.0,0.0,0.0,0.0,0.0,0.0,0.0,0.0,5.9869,6.3723,6.7247,7.0,7.1064,7.1394,7.0917,7.2129,7.2789,7.2312,7.4037,7.4698,7.356,7.4221,7.4258,7.3303,7.2936,7.2606,7.2275,7.2422,7.2202,7.1541,7.0845,7.011,6.9376,6.8519,0.0,6.7907,6.7614,6.71,6.6439,6.5485,6.4787,6.4237,6.3062,6.2291,6.1667,5.9905,5.8731,5.7997,5.7997,5.7483,5.6822,0.0,0.0,0.0,0.0,0.0,0.0,0.0,3.6546,3.7149,3.8187,4.0643,4.2989,4.4768,4.6297,4.7479,4.8183,4.6148,4.5182,4.5949,4.8757,5.2094,5.5853,5.8869,6.1803,6.4794,6.6013,6.735,6.8898,6.9706,7.0293,7.0697,7.1101,7.1101,7.0697,7.0293,6.9889,6.9449,6.8641,6.8054,6.754,6.5962,6.3551,6.0725,5.8327,5.5647,5.3078,5.227,5.0969,4.9427,4.8159,4.7205,4.6214,4.4599,4.3277,4.2139,0.0,0.0,0.0,0.0,0.0,0.0,0.0,0.0,0.0,0.0,0.0,0.0,0.0,0.0,5.3445,5.4216,0.0,6.152,6.4714,6.732,6.9743,7.2165,7.2863,7.2936,7.2569,7.2863,7.3442,7.4375,7.4412,7.4625,7.5117,7.4785,7.438,7.3975,7.3448,7.3043,7.276,7.2638,7.2271,7.1508,7.1591,7.1222,7.0293,6.9563,6.9194,6.9078,6.8268,6.7679,6.7237,6.6022,6.5506,6.5396,6.4144,6.2843,6.1581,6.0367,5.9365,5.8547,5.8143,5.774,5.7409,0.0,0.0,0.0,0.0,0.0,0.0,0.0,0.0,3.6896,3.7715,3.8995,4.0515,4.2237,4.2005,4.213,4.3103,4.262,4.3232,4.5615,4.9827,5.3465,5.62,6.0705,6.3558,6.4468,6.6144,6.7689,6.9119,7.011,7.0917,7.1578,7.2202,7.2092,7.1293,7.1293,7.0587,6.9376,6.9192,6.8678,6.7797,6.6182,6.4347,6.2365,6.0212,5.785,5.5464,5.4509,5.2197,4.9647,4.9958,4.8306,4.6104,4.5957,4.4892,4.3571,4.2763,4.1846,0.0,0.0,0.0,0.0,0.0,0.0,0.0,0.0,0.0,5.0582,5.2711,5.5317,5.7886,5.9992,6.294,6.6014,6.8953,7.0266,7.1654,7.3721,7.3868,7.3794,7.3794,7.3324,7.375,7.5551,7.4335,7.4208,7.5982,7.5087,7.4386,7.4201,7.3904,7.3499,7.3019,7.2687,7.2254,7.1726,7.2123,7.1938,7.1209,7.046,7.0054,6.999,6.8698,6.8021,6.78,6.6149,6.5743,6.6075,6.4709,6.3234,6.1737,6.095,6.007,5.9145,5.8313,5.7997,5.7997,0.0,0.0,0.0,0.0,0.0,0.0,0.0,0.0,0.0,3.7804,3.8607,3.909,3.9257,3.9721,3.979,3.9284,4.1585,4.4252,4.7011,5.0875,5.4903,5.9057,6.1837,6.3885,6.5236,6.7599,6.9194,6.9963,7.1505,7.2275,7.2386,7.2459,7.2092,7.1293,7.1293,7.1183,7.0962,7.0257,6.9486,6.8641,6.7026,6.4494,6.163,6.0639,5.8327,5.539,5.3885,5.172,4.939,4.8012,4.7259,4.6819,4.614,4.5296,4.4415,4.3608,0.0,4.1242,4.1992,4.2763,4.4286,4.7995,4.8012,4.9131,0.0,0.0,5.6932,6.0676,6.2365,6.3429,6.4457,6.6765,6.9151,7.0928,7.265,7.4099,7.5059,7.4616,7.4145,7.4145,7.4548,7.4409,7.3471,7.5059,7.5687,7.4542,7.4976,7.4976,7.4238,7.3471,7.3093,7.2982,7.2216,7.1773,7.1689,7.0502,6.9762,6.9584,6.8874,6.8467,6.8365,6.8206,6.7726,6.6925,6.5263,6.4192,6.3601,6.3416,6.2801,6.1915,6.1066,6.0291,5.9434,5.8382,5.7997,5.7997,0.0,0.0,0.0,0.0,0.0,0.0,0.0,0.0,0.0,0.0,3.7341,3.7944,3.8272,3.8413,3.835,3.7996,4.0342,4.3444,4.7181,5.135,5.5482,5.9492,6.2304,6.4466,6.5989,6.7075,6.8393,7.011,7.077,7.1358,7.1835,7.2275,7.2312,7.2018,7.2018,7.1762,7.1219,7.044,6.9633,6.8678,6.6109,6.398,6.2034,5.9318,5.6308,5.3429,5.2747,5.0618,0.0,0.0,4.6397,4.6361,4.5993,4.5663,4.5259,4.4415,4.3718,0.0,4.4728,4.6397,4.8379,5.1022,5.2564,5.4656,5.9355,5.9979,6.0493,6.3613,6.5668,6.7016,6.7426,6.9135,7.1057,7.2798,7.3702,7.4644,7.59,7.457,7.312,7.2277,7.1558,7.1854,7.3636,7.3831,7.4218,7.5078,7.4559,7.43,7.4411,7.3616,7.3145,7.3252,7.2775,7.2146,7.1261,7.1127,7.0534,6.952,6.9236,6.9088,6.9001,6.8037,6.6925,6.5628,6.4924,6.4183,6.3442,6.3442,6.2914,6.2054,6.124,6.0381,5.9501,5.8577,5.8238,5.8238,0.0,0.0,0.0,0.0,0.0,0.0,0.0,0.0,0.0,0.0,3.6424,3.6891,3.7574,3.7422,3.7274,3.7245,3.92,4.2207,4.6412,5.0843,5.5047,5.9012,6.2091,6.4494,6.6145,6.6586,6.7797,6.9779,7.0,7.0403,7.0991,7.1578,7.1725,7.1505,7.1725,7.1394,7.0624,7.0257,6.9376,6.8017,6.5448,6.3246,6.108,5.7519,5.3995,5.0949,5.0729,4.8563,0.0,0.0,4.4599,4.4599,4.4856,4.5039,4.5149,4.4819,4.5021,4.5608,4.6782,4.9241,5.194,5.4032,5.6785,5.9575,6.1887,6.2842,6.3906,6.6145,6.7861,6.898,6.9088,7.0126,7.1534,7.3268,7.3803,7.446,7.5828,7.3905,7.1786,7.0261,6.847,6.8581,7.1806,7.1843,7.2526,7.4635,7.393,7.3658,7.4227,7.3628,7.3305,7.3372,7.286,7.2043,7.0895,7.1106,7.0586,6.9373,6.9373,6.9373,6.9298,6.7948,6.6537,6.5139,6.4879,6.4322,6.3602,6.3379,6.274,6.1834,6.1018,6.0159,5.9257,5.8702,5.8459,5.8393,0.0,0.0,0.0,0.0,0.0,0.0,0.0,0.0,0.0,0.0,0.0,0.0,0.0,3.6617,3.652,3.652,3.8182,4.0856,4.4635,4.8923,5.329,5.784,6.1129,6.3613,6.5301,6.688,6.8091,6.8935,6.9706,7.011,7.0146,7.0146,6.9743,6.9045,6.9816,6.9743,6.9009,6.9779,6.8715,6.6512,6.5632,6.2401,5.7886,5.5427,5.194,4.8306,4.7516,0.0,0.0,4.1499,4.1242,4.1389,4.2176,4.2947,0.0,4.4488,4.5792,4.7039,4.7076,5.0048,5.3885,5.7042,5.9685,6.2548,6.6549,6.7504,6.7981,6.9596,6.9485,6.9115,6.9115,6.9362,7.0098,7.1691,7.2785,7.3707,7.4561,7.2529,7.0375,6.8741,6.6402,6.5287,6.6253,6.9113,7.1304,7.2246,7.299,7.3435,7.3435,7.341,7.3372,7.3398,7.1812,7.0932,7.0895,6.9373,6.8593,6.8543,6.8543,6.8543,6.8506,6.7688,6.6871,6.6017,6.5162,6.4322,6.3565,6.2784,6.1967,6.115,6.0274,5.942,5.8714,5.8714,5.8588,5.8393,0.0,0.0,0.0,0.0,0.0,0.0,0.0,0.0,0.0,0.0,0.0,0.0,0.0,0.0,0.0,0.0,3.8091,4.0326,4.2982,4.7204,5.0947,5.3864,5.8143,6.0909,6.2034,6.42,6.5705,6.6512,6.732,6.7724,6.7724,6.8238,6.8348,6.8128,6.8385,6.8348,6.8091,6.7797,6.6916,6.5448,6.245,5.9942,5.7446,5.2307,4.8857,4.6397,0.0,0.0,4.1279,3.9958,3.9863,4.0341,4.0598,4.1625,4.3057,4.4966,4.7058,4.9224,5.1353,5.4913,5.8767,6.2034,6.4273,6.6402,6.9412,6.9669,6.9477,7.011,6.8325,6.6379,6.5484,6.536,6.6197,6.8482,7.0462,7.2221,7.3595,7.3075,7.0958,6.655,6.629,6.5719,6.3825,6.6128,6.8506,7.04,7.1292,7.1998,7.2581,7.3101,7.3398,7.3398,7.2852,7.2035,7.0895,7.0338,6.9558,6.8481,6.8481,6.7948,6.6908,6.6648,6.5756,6.4419,6.4122,6.3862,6.3565,6.2747,6.193,6.1113,6.0258,5.9383,5.8698,5.8698,5.8635,5.8609,0.0,0.0,0.0,0.0,0.0,0.0,0.0,0.0,0.0,0.0,0.0,0.0,0.0,0.0,0.0,0.0,0.0,3.9624,4.1528,4.493,4.7922,5.0158,5.3812,5.6271,5.7373,5.8951,6.0162,6.1006,6.2071,6.2622,6.2622,6.3723,6.4237,6.4237,6.4237,6.4237,6.42,6.3686,6.2842,6.1557,5.8364,5.6051,5.3959,4.86,4.559,0.0,0.0,0.0,4.0068,3.9056,3.9056,3.9533,3.979,4.1405,4.3644,4.6067,4.893,5.2013,5.5244,5.9061,6.2879,6.593,6.7878,6.9485,7.1094,7.0827,6.9907,6.8847,6.6061,6.3368,6.1906,6.0715,6.1003,6.4136,6.5956,6.806,7.1218,7.0883,6.9397,6.6871,6.6476,6.5719,0.0,6.5162,6.6982,6.9113,7.0264,7.1292,7.2172,7.2952,7.3398,7.3398,7.3138,7.2444,7.1403,7.0747,6.9818,6.8481,6.8481,6.7837,6.6537,6.6537,6.5608,6.4048,6.4048,6.3899,6.3527,6.2413,6.167,6.1076,5.9924,5.9181,5.8698,5.8698,5.8698,5.8698,0.0,0.0,0.0,0.0,0.0,0.0,0.0,0.0,0.0,0.0,0.0,0.0,0.0,0.0,0.0,0.0,0.0,0.0,4.0292,4.2245,4.4415,4.6672,4.8453,5.0124,5.1646,5.1793,5.2234,5.2983,5.4583,5.5376,5.539,5.6932,5.7629,5.7629,5.7629,5.7629,5.7629,5.7629,5.6712,5.5133,5.3555,5.1022,4.7829,4.4599,0.0,0.0,0.0,0.0,3.8726,3.8762,3.8872,3.9166,3.9953,4.2396,4.5443,4.7902,5.1499,5.5427,5.8657,6.2511,6.6234,6.8673,7.0467,7.16,7.1589,7.0914,6.9326,6.5977,6.2711,5.9967,5.8397,5.5738,5.5131,5.9181,6.0147,6.2279,6.7911,6.6797,6.6439,0.0,0.0,0.0,0.0,0.0,6.6945,6.8468,6.9967,7.1255,7.2172,7.2952,7.3398,7.3398,7.2655,7.2246,7.2135,7.0475,6.9261,6.8481,6.8481,6.806,6.7243,6.7243,6.629,6.473,6.473,6.4285,6.3416,6.1856,6.1187,6.0964,5.9329,5.8698,5.8698,5.8698,5.8698,5.8698,0.0,0.0,0.0,0.0,0.0,0.0,0.0,0.0,0.0,0.0,0.0,0.0,0.0,0.0,0.0,0.0,0.0,0.0,3.8681,4.0583,4.1976,4.2599,4.5333,4.7021,4.7462,4.928,5.0308,5.0435,5.1499,5.2013,5.2013,5.2454,5.2637,5.2637,5.2637,5.2637,5.2637,5.2637,5.205,5.0969,0.0,4.7773,4.6177,0.0,0.0,0.0,0.0,0.0,3.8929,3.9433,4.125,4.347,4.428,4.6304,4.9009,5.1961,5.5721,5.9599,6.299,6.6843,7.0256,7.1645,7.23,7.2142,7.0333,6.8303,6.578,6.1971,5.7651,5.4101,5.2567,5.3144,5.4946,5.8438,6.3119,0.0,7.0772,7.2258,0.0,7.0784,0.0,6.9657,6.806,6.8407,6.8927,6.9335,6.9744,7.066,7.2135,7.2952,7.3398,7.3398,7.3212,7.2481,7.1255,6.962,6.8704,6.8481,6.8481,6.7763,6.6425,6.6425,6.5496,6.3936,6.3936,6.3453,6.2636,6.1633,6.0815,6.0147,5.9107,5.8698,5.8698,5.8698,5.8698,5.8698,0.0,0.0,0.0,0.0,0.0,0.0,0.0,0.0,0.0,0.0,0.0,0.0,0.0,0.0,0.0,0.0,0.0,0.0,0.0,3.9202,4.0031,4.0031,4.1772,4.2727,4.2727,4.4085,4.4782,4.4745,4.5957,4.6544,4.6581,4.7278,4.7609,4.7609,4.7609,4.7609,4.7609,4.7609,0.0,0.0,0.0,0.0,0.0,0.0,0.0,0.0,0.0,0.0,0.0,0.0,0.0,4.6816,4.8311,5.0708,5.3605,5.686,6.013,6.3469,6.6787,6.9885,7.2327,7.3135,7.2804,7.1429,6.8366,6.5799,6.263,5.7633,5.3608,5.0651,4.9353,5.0228,5.2197,0.0,0.0,0.0,6.9955,7.2035,7.3261,0.0,7.341,0.0,7.1292,7.1589,7.1701,7.1366,7.0995,7.1218,7.2172,7.2952,7.3398,7.3398,7.3398,7.2592,7.0895,6.9633,6.8853,6.8481,6.8134,6.7317,6.6091,6.5719,6.4828,6.3602,6.3602,6.3342,6.2859,6.167,6.0927,6.037,5.9181,5.8698,5.8698,5.8698,5.8698,5.8698,0.0,0.0,0.0,0.0,0.0,0.0,0.0,0.0,0.0,0.0,0.0,0.0,0.0,0.0,0.0,0.0,0.0,0.0,0.0,0.0,3.8689,3.8689,3.8689,3.8689,3.8689,3.8689,3.8689,3.8704,4.01,4.0797,4.0834,4.2246,4.2871,4.2871,4.2871,0.0,0.0,0.0,0.0,0.0,0.0,0.0,0.0,0.0,0.0,0.0,0.0,0.0,0.0,0.0,4.7999,5.0082,5.2447,5.5611,5.9069,6.2234,6.4657,6.7049,7.0258,7.2129,7.331,7.3864,7.2562,7.0114,6.607,6.3238,5.9636,5.3255,5.0264,4.8487,4.7396,4.7478,4.8853,5.2345,0.0,6.1336,6.7911,6.9595,7.1923,7.653,7.5713,7.4784,7.4896,7.471,7.4301,7.3621,7.2804,7.2358,7.2358,7.3027,7.3398,7.3398,7.3187,7.2369,7.0895,7.0004,6.9187,6.8481,6.7688,6.6871,6.6091,6.5199,6.4382,6.3602,6.3602,6.349,6.3193,6.1781,6.1076,6.0741,5.9292,5.8698,5.8698,5.8698,5.8698,5.8698,0.0,0.0,0.0,0.0,0.0,0.0,0.0,0.0,0.0,0.0,0.0,0.0,0.0,0.0,0.0,0.0,0.0,0.0,0.0,0.0,0.0,3.8689,3.8689,3.8689,3.8689,3.8689,3.8719,3.8758,3.9053,3.923,3.929,3.9586,3.9696,3.9696,3.9696,0.0,0.0,0.0,0.0,0.0,0.0,0.0,0.0,0.0,0.0,0.0,0.0,0.0,0.0,0.0,5.1021,5.5178,5.7698,6.1406,6.5405,6.7875,6.9124,7.0332,7.3479,7.4246,7.4296,7.4908,7.2716,6.9169,6.4495,6.0634,0.0,4.9864,4.733,4.5896,4.4829,4.6327,4.9224,5.3831,5.8066,6.3044,6.9558,7.1812,7.3818,0.0,7.6196,7.5861,7.6594,7.5416,7.4524,7.4375,7.3658,7.3212,7.3212,7.3324,7.3398,7.3398,7.2072,7.1192,7.0895,6.9447,6.863,6.8481,6.7688,6.6871,6.6091,6.5199,6.4382,6.3602,6.3602,6.2859,6.1596,6.1336,6.037,5.9107,5.8809,5.8698,5.8698,5.8698,5.8698,5.8698,0.0,0.0,0.0,0.0,0.0,0.0,0.0,0.0,0.0,0.0,3.4587,0.0,0.0,0.0,0.0,0.0,0.0,0.0,0.0,0.0,0.0,0.0,0.0,0.0,3.8689,3.8689,3.8704,3.875,0.0,3.8765,3.881,3.8818,3.8855,3.881,3.8848,3.8862,3.8833,0.0,0.0,0.0,0.0,0.0,0.0,0.0,0.0,0.0,0.0,0.0,0.0,0.0,5.043,5.5309,5.9588,6.3845,6.7696,7.0084,7.1395,7.258,7.514,7.5839,7.5868,7.5948,7.2752,6.8186,6.285,0.0,0.0,4.7405,4.5744,4.5142,4.4368,4.6345,4.9049,5.1991,5.5676,6.041,6.6834,6.9174,7.1775,7.5936,7.6047,7.6121,7.704,7.5936,7.5044,7.4635,7.4227,7.3818,7.3435,7.3027,7.2555,7.2109,7.092,7.0078,6.967,6.889,6.8296,6.7874,6.7057,6.6462,6.6054,6.4753,6.3973,6.3602,6.3602,6.3156,6.2376,6.1558,6.0741,5.9924,5.9032,5.8698,5.8698,5.8698,5.8698,5.8698,0.0,0.0,0.0,0.0,0.0,0.0,0.0,3.4179,3.4179,3.4179,3.4822,3.4971,3.4253,3.4971,0.0,0.0,0.0,0.0,0.0,0.0,0.0,0.0,0.0,0.0,0.0,0.0,0.0,3.8735,3.875,0.0,0.0,0.0,0.0,0.0,3.8892,3.8906,3.8862,3.8921,3.8979,0.0,0.0,3.9452,0.0,0.0,0.0,0.0,0.0,0.0,0.0,0.0,4.8316,5.2591,5.7908,6.3156,6.7799,7.0244,7.2171,7.402,7.6391,7.7263,7.7369,7.6939,7.2618,6.7041,6.1639,5.6402,0.0,4.5896,4.5,4.5033,4.4572,4.6207,4.8135,0.0,5.2375,5.65,6.2844,6.5473,6.884,0.0,7.5304,0.0,7.7003,7.6159,7.5267,7.4635,7.4413,7.3967,7.3212,7.2544,7.1812,7.0932,7.0115,6.9298,6.8506,6.8357,6.7837,6.7057,6.6202,6.5831,6.5794,6.4308,6.3602,6.3602,6.3602,6.3527,6.323,6.1781,6.1113,6.0778,5.9292,5.8698,5.8698,5.8698,5.8698,5.8698,0.0,0.0,0.0,0.0,0.0,0.0,0.0,3.4179,3.4179,3.4179,3.4253,3.429,3.4216,3.4971,0.0,0.0,0.0,0.0,0.0,0.0,0.0,0.0,0.0,0.0,0.0,0.0,0.0,3.8862,3.8935,0.0,0.0,0.0,0.0,0.0,0.0,3.9092,3.9055,3.9092,0.0,0.0,0.0,0.0,0.0,0.0,0.0,0.0,0.0,0.0,0.0,0.0,0.0,4.7277,5.0659,5.8042,6.5944,6.8515,0.0,0.0,7.7875,7.8575,7.8183,7.7798,7.2181,6.5612,6.1371,0.0,4.9747,4.563,4.5,4.5126,4.4812,4.4774,4.5787,4.8849,5.0081,5.2865,5.9441,6.3022,6.6908,7.1949,0.0,0.0,7.6966,7.5639,7.4673,7.4598,7.3919,7.3175,7.2358,7.2246,7.1812,7.0932,7.0115,6.9298,6.8506,6.78,6.702,6.6202,6.5348,6.4916,6.4879,6.401,6.3602,6.3602,6.3602,6.3193,6.245,6.1558,6.0741,5.9903,5.9069,5.8698,5.8698,5.8698,5.8698,5.8698,0.0,0.0,0.0,0.0,0.0,0.0,0.0,3.3881,3.4179,3.4179,3.4674,3.4773,3.4253,3.4971,0.0,0.0,0.0,0.0,0.0,0.0,0.0,0.0,0.0,0.0,0.0,0.0,3.7649,3.7829,3.7854,0.0,0.0,0.0,0.0,0.0,0.0,3.8787,3.8725,0.0,0.0,0.0,0.0,0.0,0.0,0.0,0.0,0.0,0.0,0.0,4.0543,0.0,0.0,0.0,4.5109,4.9729,0.0,0.0,6.7652,7.1997,7.5789,7.8382,7.9636,7.7933,7.2134,6.5649,6.0929,0.0,4.9048,4.5926,4.5381,4.5371,4.5105,4.4943,4.5431,4.7041,0.0,0.0,5.424,5.6439,6.0221,6.7651,6.9509,7.1626,7.523,7.4524,7.3881,7.3881,7.3584,7.2815,7.1478,7.1441,7.0586,6.8778,6.8431,6.7614,6.629,6.65,6.6165,6.5287,6.4953,6.4805,6.4768,6.3973,6.3602,6.3602,6.3602,6.3416,6.3082,6.2264,6.1744,6.1261,5.9961,5.9441,5.9367,5.8884,5.8698,5.8698,0.0,0.0,0.0,0.0,0.0,0.0,3.3001,3.3473,3.3918,3.4179,3.4748,3.4897,3.4253,3.4748,3.4847,3.4253,0.0,0.0,0.0,0.0,0.0,0.0,0.0,0.0,0.0,0.0,3.6941,3.7133,3.7419,3.7818,0.0,0.0,3.8488,3.8395,0.0,0.0,0.0,0.0,0.0,0.0,0.0,0.0,0.0,0.0,0.0,0.0,0.0,0.0,0.0,0.0,0.0,0.0,0.0,0.0,0.0,0.0,6.263,6.7922,7.1819,7.5602,7.7977,7.5899,7.0283,6.4089,0.0,0.0,4.8086,4.6018,4.5594,4.555,4.5371,4.5253,4.5339,4.568,0.0,4.6309,5.0456,5.1999,5.5508,6.3007,6.4865,6.7428,7.2332,7.3149,7.3398,7.3398,7.3398,7.2666,7.097,7.0895,6.9781,6.7391,6.7317,6.65,6.4805,6.5422,6.5311,6.4433,6.4433,6.4433,6.4433,6.3839,6.3602,6.3602,6.3602,6.3624,6.361,6.2792,6.2479,6.2352,6.0938,6.0252,5.9992,5.9657,5.9396,5.9173,0.0,0.0,0.0,0.0,0.0,0.0,0.0,3.3001,3.3287,3.4104,3.4216,3.4216,3.4179,3.4216,3.4216,3.4179,0.0,0.0,0.0,0.0,0.0,0.0,0.0,0.0,0.0,0.0,3.6986,3.7209,3.8115,3.8601,3.8601,3.8601,3.8601,3.8563,0.0,0.0,0.0,0.0,0.0,0.0,0.0,0.0,0.0,0.0,0.0,0.0,0.0,0.0,0.0,0.0,0.0,0.0,0.0,0.0,0.0,0.0,5.6231,6.182,6.6051,6.9667,7.2091,7.1206,6.5859,6.0204,5.7599,5.1779,4.6663,4.5787,4.5594,4.5594,4.5586,4.539,4.5201,4.5201,4.5627,0.0,4.9002,5.1453,5.4424,0.0,6.0258,6.3193,6.8097,7.1515,7.3398,7.3398,7.3398,7.2666,7.097,7.0895,6.9781,6.7391,6.7317,6.65,6.4805,6.4805,6.4396,6.3602,6.3602,6.3602,6.3602,6.3602,6.3602,6.3602,6.3602,6.3669,6.3742,6.2923,6.2652,6.2645,6.1786,6.1002,6.0367,6.1188,6.0964,6.0292,0.0,0.0,0.0,0.0,0.0,0.0,0.0,3.1849,3.2258,3.2518,3.2555,3.2555,3.2555,3.3027,3.3361,3.3361,0.0,0.0,0.0,0.0,0.0,0.0,0.0,0.0,0.0,0.0,3.5825,3.6042,3.6908,3.7606,3.8189,3.8189,3.8189,3.815,3.7299,3.687,0.0,0.0,0.0,0.0,0.0,0.0,0.0,0.0,0.0,0.0,0.0,0.0,0.0,0.0,0.0,0.0,0.0,0.0,0.0,4.4192,5.0048,0.0,5.9358,6.3089,6.5782,6.4359,6.0627,5.6665,5.4087,5.0087,4.6663,4.5787,4.5594,4.5594,4.5594,4.539,4.5444,4.6235,4.6641,0.0,0.0,0.0,5.5108,5.9731,6.5991,7.0578,7.2089,7.2932,7.3175,7.2618,7.2581,7.1849,7.0152,7.0078,6.8964,6.6574,6.65,6.5682,6.401,6.3988,6.3862,6.3602,6.3602,6.3647,6.3714,6.3118,6.2901,6.2966,6.2966,6.271,6.2284,6.3126,6.3185,6.2683,6.2421,6.216,6.1823,6.1002,6.0852,6.1039,0.0,0.0,0.0,0.0,0.0,0.0,0.0,3.1032,3.1478,3.1775,3.1812,3.1812,3.1812,3.2598,3.3101,3.3101,0.0,0.0,0.0,0.0,0.0,0.0,0.0,0.0,0.0,3.5441,3.5461,3.5962,3.7123,3.7969,3.8507,3.8815,3.8623,3.7969,3.7084,3.6538,0.0,0.0,0.0,0.0,0.0,0.0,3.9361,0.0,0.0,0.0,0.0,0.0,0.0,0.0,0.0,0.0,0.0,0.0,0.0,0.0,4.4893,4.9586,0.0,5.6742,5.9665,5.828,5.5857,0.0,5.1395,4.8586,4.624,4.571,4.5594,4.5594,4.5594,4.5457,4.5563,4.6299,4.6529,4.7018,4.8056,5.1129,5.5351,6.0855,6.7293,7.1388,7.1666,7.2173,7.2258,7.1738,7.1701,7.1106,6.9744,6.941,6.8258,6.6165,6.6091,6.5311,6.3616,6.3647,6.352,6.3201,6.3245,6.3125,6.2913,6.2369,6.2337,6.272,6.272,6.2629,0.0,6.3568,6.3701,6.3293,6.3293,6.2919,6.2283,6.1609,6.1459,6.1534,0.0,0.0,0.0,0.0,0.0,0.0,0.0,0.0,0.0,0.0,0.0,3.1649,3.166,3.2612,0.0,0.0,0.0,0.0,0.0,0.0,0.0,0.0,0.0,0.0,0.0,3.5182,3.5668,3.6615,3.843,3.9284,3.9323,4.0131,3.9631,3.8046,3.7123,3.6231,0.0,0.0,0.0,0.0,0.0,0.0,0.0,0.0,0.0,0.0,0.0,0.0,0.0,0.0,0.0,0.0,0.0,0.0,0.0,0.0,0.0,0.0,0.0,5.0625,5.351,5.2741,5.1395,5.0058,4.9279,4.7287,0.0,4.5594,4.5594,4.5633,4.5671,4.5633,4.5633,4.5748,4.5864,4.6714,4.8837,5.1694,5.5835,6.2002,6.5331,6.7379,6.8019,6.9818,7.0871,7.076,7.0735,7.0338,6.9484,6.8729,6.7614,6.6054,6.604,6.5259,6.3639,6.3676,6.3295,6.2491,6.2582,6.2234,6.1508,6.147,6.1844,6.2554,6.2554,6.3065,6.3859,6.3896,6.4016,6.4154,6.4172,6.3233,6.1919,6.2782,6.2557,6.1806,0.0,0.0,0.0,0.0,0.0,0.0,0.0,0.0,0.0,0.0,0.0,3.0161,3.0273,3.1684,0.0,0.0,0.0,0.0,0.0,0.0,0.0,0.0,0.0,0.0,0.0,3.5405,3.5542,3.5769,3.8123,3.9284,3.9323,4.0131,3.9977,3.8931,3.7392,3.6231,3.55,0.0,0.0,0.0,0.0,0.0,0.0,0.0,0.0,0.0,3.9785,3.9977,0.0,0.0,0.0,0.0,0.0,0.0,0.0,0.0,4.1123,4.2,4.3,0.0,4.5893,4.6278,4.6086,4.5932,0.0,4.6018,4.5594,4.5594,4.5594,4.5787,4.6471,4.6047,4.6018,4.7317,4.8625,4.9692,5.022,5.6395,6.2106,6.56,6.918,7.0926,6.986,7.0759,7.09,6.9627,6.9243,6.8444,6.702,6.6793,6.6304,6.5299,6.5352,6.4889,6.3773,6.3125,6.2758,6.2678,6.2064,6.1715,6.1572,6.0935,6.0825,6.1091,6.1091,6.1203,6.1467,6.2105,6.235,6.2444,6.312,6.2745,6.1919,6.2782,6.2557,6.1806,0.0,0.0,0.0,0.0,0.0,0.0,0.0,0.0,0.0,0.0,0.0,0.0,0.0,0.0,0.0,0.0,0.0,0.0,0.0,0.0,0.0,0.0,0.0,0.0,3.5434,3.5493,3.5885,3.6654,3.843,3.9477,3.9861,4.07,4.0239,3.8623,3.693,3.5923,3.55,3.55,3.5692,0.0,3.6115,0.0,0.0,0.0,0.0,0.0,4.0015,4.0131,0.0,4.0516,4.0516,4.0516,0.0,0.0,0.0,0.0,4.0816,4.1277,4.1692,4.2701,4.3778,4.4201,4.4586,4.5017,4.5479,4.5594,4.5594,4.5594,4.5594,4.5748,4.6201,4.5932,4.6018,4.7355,4.8663,5.0587,5.3741,5.9127,6.4128,6.7859,6.9957,7.1052,7.0899,7.0782,7.0152,6.8763,6.845,6.7703,6.6313,6.5538,6.4964,6.4516,6.3835,6.3446,6.3307,6.2902,6.2309,6.1623,6.1272,6.092,6.0509,6.0115,6.0135,6.0604,6.0604,6.083,6.1168,6.1618,6.1806,6.1844,6.2332,6.1994,6.1355,6.2181,6.1956,6.1318,0.0,0.0,0.0,0.0,0.0,0.0,0.0,0.0,0.0,0.0,0.0,0.0,0.0,0.0,0.0,0.0,0.0,0.0,0.0,0.0,0.0,0.0,0.0,3.5412,3.5412,3.5486,3.6269,3.7815,3.8931,3.99,4.0708,4.1585,4.0585,3.793,3.6385,3.5615,3.55,3.55,3.5962,0.0,3.5962,0.0,0.0,0.0,0.0,0.0,0.0,0.0,0.0,4.0523,4.0523,4.0523,4.0523,0.0,0.0,0.0,0.0,0.0,4.1739,4.3124,4.4316,4.4316,4.4855,4.5441,4.5556,4.5594,4.5594,4.5594,4.5594,4.5642,4.5787,4.5796,4.6142,4.7124,4.8394,5.1548,5.8127,6.1166,6.432,6.8783,6.9342,6.9865,7.1013,7.0199,6.919,6.8146,6.7917,6.7225,6.5988,6.4582,6.3738,6.3542,6.2238,6.179,6.2388,6.247,6.1819,6.0432,6.0416,6.0004,5.929,5.929,5.9703,6.0417,6.0417,6.0867,6.1618,6.1468,6.1506,6.1618,6.1618,6.113,6.0529,6.143,6.1205,6.0492,0.0,0.0,0.0,0.0,0.0,0.0,0.0,0.0,0.0,0.0,0.0,0.0,0.0,0.0,0.0,0.0,0.0,0.0,0.0,0.0,0.0,0.0,3.5479,3.5493,3.5493,3.55,3.5962,3.6885,3.92,4.0739,4.1623,4.2508,4.1162,3.7969,3.6962,3.6154,3.55,3.55,3.5962,3.6692,3.6577,0.0,0.0,0.0,0.0,0.0,0.0,0.0,0.0,4.06,4.06,4.06,4.06,0.0,0.0,0.0,0.0,0.0,4.247,4.3585,4.4316,4.4316,4.4393,4.4701,4.5441,4.5594,4.5594,4.5594,4.5659,4.5907,4.6556,4.6733,4.7259,4.8759,5.2125,5.6395,6.1781,6.4128,6.5859,6.7321,6.9411,7.0233,6.9078,6.9165,6.8924,6.8067,6.7017,6.5609,6.3766,6.3559,6.2994,6.2003,6.1821,6.1504,6.0922,6.0827,6.0714,6.0585,5.9853,5.944,5.929,5.929,5.9365,5.9515,5.9515,6.0004,6.0717,6.0004,6.0116,6.0792,6.0792,6.0266,5.9703,6.1243,6.083,5.9515,0.0,0.0,0.0,0.0,0.0,0.0,0.0,0.0,0.0,0.0,0.0,0.0,0.0,0.0,0.0,0.0,0.0,0.0,0.0,0.0,0.0,3.55,3.55,3.5692,3.6154,3.6154,3.7,3.8738,3.9938,4.0931,4.1777,4.0853,3.9578,3.7996,3.6691,3.6157,3.6267,3.6188,3.693,3.8053,0.0,0.0,0.0,0.0,0.0,0.0,0.0,0.0,0.0,0.0,4.0605,4.0605,4.0605,0.0,0.0,0.0,0.0,0.0,4.211,4.3073,4.3813,4.4267,4.5043,4.571,4.5659,4.5667,4.5791,4.6279,4.6381,4.6651,4.7512,4.8433,5.0186,5.3697,5.5884,5.8802,6.3438,6.439,6.5238,6.701,6.8268,6.8858,6.8601,6.8732,6.8473,6.7494,6.6418,6.5215,6.3693,6.2835,6.214,6.154,6.0987,6.0539,6.0161,5.9909,5.9834,5.9891,5.9478,5.929,5.929,5.929,5.929,5.929,5.929,5.9515,5.9853,5.9478,5.9553,5.9891,5.9891,5.9666,5.944,6.068,6.0942,6.0604,0.0,0.0,0.0,0.0,0.0,0.0,0.0,0.0,0.0,0.0,0.0,0.0,0.0,0.0,0.0,0.0,0.0,0.0,0.0,0.0,3.5398,3.55,3.5692,3.6077,3.6692,3.6885,3.8046,4.0208,4.0631,4.1147,4.1794,3.9689,3.8512,3.8092,3.6825,3.6482,3.6941,3.7043,3.7964,3.9321,0.0,0.0,0.0,0.0,0.0,0.0,0.0,0.0,0.0,0.0,0.0,0.0,0.0,0.0,0.0,4.0595,4.0595,4.0781,4.1661,4.2555,4.3404,4.4207,4.5508,4.663,4.6596,4.6604,4.6959,4.8227,4.8359,4.8367,4.8814,5.028,5.2866,5.74,5.8934,6.0892,6.4558,6.4867,6.5434,6.7375,6.7618,6.7888,6.8583,6.8286,6.7687,6.6808,6.5756,6.4693,6.3604,6.2289,6.1496,6.1196,6.0365,5.9899,5.9899,5.9575,5.9382,5.929,5.929,5.929,5.929,5.929,5.929,5.929,5.929,5.929,5.929,5.929,5.929,5.929,5.929,5.9403,5.9666,6.0116,6.0792,6.1393,0.0,0.0,0.0,0.0,0.0,0.0,0.0,0.0,0.0,0.0,0.0,0.0,0.0,0.0,0.0,0.0,0.0,0.0,0.0,0.0,3.5493,3.55,3.6231,3.6654,3.6692,3.7507,3.8392,3.94,4.0931,4.1778,4.188,4.102,3.9796,3.8296,3.814,3.7679,3.7061,3.7838,3.8727,3.9573,3.9504,0.0,0.0,0.0,0.0,0.0,0.0,0.0,0.0,0.0,0.0,0.0,0.0,0.0,4.0595,4.0595,4.0595,4.0781,4.1661,4.2548,4.3397,4.4207,4.5094,4.6375,4.869,4.923,4.9933,5.2412,5.2331,5.1567,5.0752,5.2055,5.411,5.685,6.0565,6.3775,6.5666,6.7248,6.8289,6.8482,6.8567,6.8602,6.8679,6.7304,6.632,6.6271,6.4763,6.3327,6.2192,6.2026,6.1454,6.0332,6.0189,6.0189,6.0189,5.9899,5.9609,5.929,5.929,5.929,5.929,5.929,5.929,5.929,5.929,5.929,5.929,5.929,5.929,5.929,5.929,5.9778,6.0417,5.9666,5.9929,6.0567,0.0,0.0,0.0,0.0,0.0,0.0,0.0,0.0,0.0,0.0,0.0,0.0,0.0,0.0,0.0,0.0,0.0,0.0,0.0,0.0,3.5412,3.55,3.5808,3.6423,3.7507,3.8354,3.9483,4.0924,4.1628,4.1999,4.2006,4.071,3.9777,3.9162,3.8581,3.8465,3.8695,3.8999,3.9596,4.0334,4.0443,4.0659,0.0,0.0,0.0,0.0,0.0,0.0,0.0,0.0,4.0752,4.0752,4.0752,4.0746,4.0739,4.0739,4.0739,4.0817,4.1119,4.224,4.3354,4.3624,4.4752,4.6414,4.8971,4.9542,5.0292,5.2906,5.3666,5.3859,5.3997,5.5032,5.6857,5.992,6.224,6.4577,6.736,6.7862,6.7708,6.7166,6.7139,6.6735,6.5691,6.5015,6.4638,6.4638,6.3555,6.2704,6.2274,6.1734,6.1229,6.0757,6.0606,6.052,6.052,6.0203,5.9915,5.9609,5.94,5.929,5.929,5.929,5.929,5.929,5.929,5.929,5.9309,5.9505,5.9609,5.9609,5.9609,6.0138,6.0765,6.0285,6.0342,6.0567,0.0,0.0,0.0,0.0,0.0,0.0,0.0,0.0,0.0,0.0,0.0,0.0,0.0,0.0,0.0,0.0,0.0,0.0,0.0,3.533,3.5405,3.55,3.5778,3.6498,3.7616,3.8781,4.0063,4.1506,4.166,4.1764,4.1725,4.0367,3.9736,3.9697,3.9114,3.9153,3.9733,3.9965,4.0376,4.0889,4.0986,4.1044,0.0,0.0,0.0,0.0,0.0,0.0,0.0,0.0,4.0816,4.0816,4.0816,4.0816,4.0816,4.0816,4.0816,4.0816,4.0816,4.1816,4.2976,4.3247,4.4755,4.7038,5.014,5.0827,5.1802,5.5191,5.5741,5.5857,5.667,5.6863,5.8014,6.1427,6.3168,6.5025,6.7617,6.7462,6.6766,6.5915,6.5566,6.4948,6.3797,6.3449,6.3284,6.3284,6.2472,6.2008,6.2008,6.1427,6.1118,6.1118,6.0941,6.0817,6.0817,6.0494,6.0259,6.0082,5.9739,5.9488,5.929,5.9418,5.9472,5.9452,5.9558,5.9571,5.9588,5.9836,5.9931,5.9931,5.9931,6.0425,6.1099,6.064,6.0667,6.0821,0.0,0.0,0.0,0.0,0.0,0.0,0.0,0.0,0.0,0.0,0.0,0.0,0.0,0.0,0.0,0.0,0.0,0.0,3.5308,3.542,3.55,3.55,3.6407,3.6903,3.6903,3.8603,3.9883,4.07,4.0917,4.0994,4.0994,4.019,3.9819,3.9819,3.9819,3.9819,3.9858,4.0719,4.1112,4.1117,4.1119,4.1083,4.1088,0.0,0.0,0.0,0.0,0.0,0.0,0.0,4.0816,4.0816,4.0816,4.0816,4.0816,4.0816,4.0816,4.0816,4.0816,4.139,4.2202,4.3092,4.522,4.8237,5.2531,5.3498,5.4967,6.0035,5.9106,5.7598,5.8449,5.7211,5.7172,6.0538,6.3284,6.5257,6.6069,6.6185,6.5876,6.5064,6.4222,6.3681,6.3681,6.2897,6.2394,6.2394,6.1582,6.1118,6.1118,6.1118,6.1118,6.1118,6.1079,6.1079,6.1118,6.0828,6.0704,6.0704,6.0353,5.9893,5.9309,5.966,5.9809,5.9842,6.0089,6.0217,6.0217,6.0217,6.0217,6.0231,6.0217,6.0752,6.1387,6.0523,6.0738,6.1329,0.0,0.0,0.0,0.0,0.0,0.0,0.0,0.0,0.0,0.0,0.0,0.0,0.0,0.0,0.0,0.0,0.0,0.0,3.5308,3.5398,3.5434,3.55,3.5789,3.6555,3.7721,3.8982,4.0054,4.0925,4.102,4.1053,4.1053,4.083,4.0717,4.0717,4.0717,4.0717,4.0719,4.0992,4.1112,4.1119,4.1084,4.1088,4.1091,0.0,0.0,0.0,0.0,0.0,0.0,0.0,0.0,0.0,4.0816,4.0816,4.0816,4.0816,4.0816,4.0932,4.1506,4.1816,4.2473,4.4562,4.6535,4.8972,5.2647,5.3962,5.5702,6.019,6.0035,5.9223,5.9455,5.9106,5.9068,6.0074,6.1892,6.3478,6.4329,6.4454,6.4135,6.3284,6.2936,6.2549,6.193,6.166,6.1505,6.1505,6.1234,6.1118,6.1118,6.1118,6.1118,6.1118,6.0538,6.0538,6.1079,6.0481,6.0331,6.0704,6.0594,6.0326,5.9939,6.0044,6.0089,6.0089,6.0175,6.0217,6.0231,6.0431,6.0654,6.079,6.0618,6.0699,6.0866,6.0362,6.037,6.0547,0.0,0.0,0.0,0.0,0.0,0.0,0.0,0.0,0.0,0.0,0.0,0.0,0.0,0.0,0.0,0.0,0.0,0.0,0.0,0.0,3.5622,3.6061,3.6107,3.6978,3.8723,3.9396,4.017,4.103,4.0746,4.0758,4.1109,4.1109,4.1109,4.1109,4.1109,4.1109,4.1109,4.1112,4.1116,4.1083,4.1088,4.113,4.1132,0.0,0.0,0.0,0.0,0.0,0.0,0.0,0.0,0.0,4.0816,4.0816,4.0816,4.0816,4.0816,4.0971,4.1777,4.2512,4.3556,4.5761,4.8392,5.1331,5.4735,5.6437,5.8139,6.1041,6.0692,6.0112,6.077,6.0074,5.9725,6.0731,6.1737,6.2704,6.3565,6.34,6.2975,6.2472,6.2085,6.1698,6.1157,6.1118,6.0963,6.0654,6.0615,6.046,6.0112,6.0112,6.0112,6.0112,5.9648,5.9764,6.0615,6.0151,6.021,6.085,6.085,6.0734,6.0544,6.0444,6.0393,6.0393,6.0507,6.0544,6.0556,6.0784,6.0962,6.107,6.0941,6.085,6.0828,6.0642,6.0544,6.0531,0.0,0.0,0.0,0.0,0.0,0.0,0.0,0.0,0.0,0.0,0.0,0.0,0.0,0.0,0.0,0.0,0.0,0.0,0.0,0.0,3.5939,3.6859,3.7117,3.805,3.9779,3.9819,4.0249,4.1109,4.0327,4.0327,4.1109,4.1109,4.1109,4.1109,4.1109,4.1109,4.1111,4.1116,4.1083,4.1088,4.1091,4.1132,4.1211,4.1211,0.0,0.0,0.0,0.0,0.0,0.0,0.0,0.0,4.0816,4.0816,4.0816,4.0816,4.0816,4.1009,4.1893,4.3324,4.5026,4.6883,5.0635,5.4735,5.8062,5.9996,6.1311,6.2124,6.1118,6.0576,6.2124,6.0422,5.9571,6.193,6.2278,6.2549,6.3371,6.2781,6.2278,6.2278,6.1505,6.1002,6.1002,6.0925,6.0576,5.9841,5.9764,5.9455,5.8651,5.8613,5.8613,5.8613,5.8526,5.8913,5.9764,5.9687,6.0074,6.0886,6.0886,6.0886,6.0877,6.08,6.0739,6.075,6.0992,6.1118,6.1118,6.1118,6.1118,6.1118,6.1118,6.1118,6.1118,6.1118,6.1118,6.1051,0.0,0.0,0.0,0.0,0.0,0.0,0.0,0.0,0.0,0.0,0.0,0.0,0.0,0.0,0.0,0.0,0.0,0.0,0.0,0.0,3.5996,3.6923,3.8337,3.934,3.9779,3.9819,4.0249,4.1109,4.0914,4.0914,4.1109,4.1109,4.1109,4.1109,4.1109,4.1112,4.1116,4.1117,4.1085,4.1091,4.1092,4.1132,4.1211,4.1211,4.1211,0.0,0.0,0.0,0.0,0.0,0.0,0.0,4.0816,4.0816,4.0816,4.0816,4.0816,4.1126,4.2628,4.3788,4.5329,4.8392,5.284,5.7211,5.9957,6.0847,6.1157,6.135,6.166,6.1969,6.2317,6.1389,6.0731,6.1273,6.1389,6.1466,6.1621,6.1505,6.1389,6.1389,6.0654,6.0151,6.0151,5.9532,5.9068,5.8874,5.8874,5.8806,5.8613,5.8613,5.8613,5.8613,5.7946,5.7985,5.8874,5.8217,5.8294,5.9145,5.9145,5.9145,5.9184,6.0452,6.1012,6.1012,6.106,6.1118,6.1118,6.1118,6.1118,6.1118,6.1118,6.1118,6.1118,6.1118,6.1118,6.107,0.0,0.0,0.0,0.0,0.0,0.0,0.0,0.0,0.0,0.0,0.0,0.0,0.0,0.0,0.0,0.0,0.0,0.0,0.0,0.0,0.0,3.7591,3.9416,4.0389,4.0405,4.0405,4.0639,4.1109,4.1109,0.0,0.0,0.0,0.0,4.1109,0.0,4.1112,4.1119,4.1083,4.1087,4.1092,4.1132,4.1172,4.1211,4.1211,4.1211,4.1171,4.1035,0.0,0.0,0.0,0.0,0.0,0.0,0.0,4.0816,4.0816,4.0816,4.1087,4.2357,4.3904,4.638,5.1447,5.5354,5.8488,6.0615,6.1118,6.1118,6.1118,6.1466,6.1776,6.1776,6.1427,6.1118,6.1118,6.077,6.0538,6.0538,6.0151,5.988,5.988,5.9532,5.9261,5.9261,5.8874,5.841,5.8023,5.7985,5.7791,5.7366,5.7366,5.7366,5.7366,5.6902,5.7095,5.7985,5.7521,5.7753,5.8613,5.8613,5.8613,5.8651,5.9493,6.0344,6.1079,6.0692,6.0731,6.1118,6.1118,6.1118,6.1118,6.1118,6.1118,6.1118,6.1118,6.1118,6.1118,0.0,0.0,0.0,0.0,0.0,0.0,0.0,0.0,0.0,0.0,0.0,0.0,0.0,0.0,0.0,0.0,0.0,0.0,0.0,0.0,0.0,0.0,4.0235,4.1109,4.1109,4.1109,4.1109,4.1109,0.0,0.0,0.0,0.0,0.0,4.1109,0.0,4.1112,4.1119,4.1086,4.109,4.1092,4.1172,4.1211,4.1211,4.1211,4.1172,4.1169,4.1042,4.1035,4.1042,4.0873,0.0,0.0,0.0,0.0,4.0816,4.0816,4.0816,4.0971,4.1777,4.4059,4.7773,5.4194,5.6979,5.8642,6.046,6.077,6.0692,6.0847,6.0886,6.0925,6.1079,6.0847,6.0731,6.0886,6.019,5.9687,5.9687,5.9029,5.8613,5.8613,5.8449,5.8372,5.8372,5.8255,5.783,5.7125,5.6932,5.6545,5.5818,5.5664,5.5586,5.5586,5.5586,5.6012,5.6854,5.6699,5.7134,5.8139,5.8139,5.8217,5.8372,5.8217,5.9145,6.0847,6.019,6.0344,6.1118,6.1118,6.1118,6.1118,6.1118,6.1118,6.1118,6.1118,6.1118,6.1118,0.0,0.0,0.0,0.0,0.0,0.0,0.0,0.0,0.0,0.0,0.0,0.0,0.0,0.0,0.0,0.0,0.0,0.0,3.5748,0.0,0.0,3.9579,4.056,4.1109,4.1109,4.1109,4.1109,4.1109,0.0,0.0,0.0,0.0,0.0,4.1109,0.0,0.0,4.1119,4.1086,4.109,4.1092,4.1172,4.1211,4.1211,4.1211,4.1169,4.1114,4.1104,4.1042,4.0994,4.093,4.0898,0.0,0.0,0.0,4.0816,4.0816,4.0816,4.0971,4.1777,4.4949,4.9165,5.3807,5.5664,5.7018,5.9493,5.9493,5.9145,5.988,6.0074,6.0267,6.0963,5.9919,5.9184,5.9919,5.9339,5.8758,5.8758,5.869,5.8613,5.8613,5.7946,5.7473,5.7473,5.6786,5.6321,5.6158,5.5548,5.5084,5.4967,5.4233,5.3846,5.3846,5.3846,5.4233,5.5122,5.4387,5.4774,5.636,5.636,5.6747,5.7434,5.6708,5.7714,6.0035,5.9957,6.0344,6.1118,6.1118,6.1118,6.1118,6.1118,6.1118,6.1118,6.1118,6.1118,6.1118,0.0,0.0,0.0,0.0,0.0,0.0,0.0,0.0,0.0,0.0,0.0,0.0,0.0,0.0,0.0,3.5513,3.556,3.5825,3.6495,3.8237,3.9429,3.978,4.0639,4.1109,4.1109,4.1109,4.1109,0.0,0.0,0.0,0.0,4.2006,4.2084,0.0,0.0,0.0,0.0,4.1265,4.1031,4.1038,4.1123,4.1126,0.0,0.0,0.0,0.0,0.0,0.0,4.1104,4.0984,4.0945,4.0929,4.0873,0.0,0.0,0.0,4.0816,4.1203,4.2976,4.5142,4.7966,5.226,5.4349,5.5857,5.7985,5.8526,5.8729,5.9068,5.8797,5.872,5.9532,5.9106,5.8729,5.9106,5.8449,5.7869,5.7869,5.7443,5.7134,5.7134,5.6786,5.6583,5.6583,5.6197,5.5818,5.5354,5.5006,5.4581,5.4116,5.3691,5.3498,5.3498,5.3498,5.3691,5.4078,5.3691,5.4116,5.5316,5.5316,5.578,5.6545,5.6158,5.7172,5.9184,5.9184,5.9648,6.046,6.0925,6.0847,6.046,6.0925,6.0809,6.046,6.0925,6.1118,6.1118,0.0,0.0,0.0,0.0,0.0,0.0,0.0,0.0,0.0,0.0,0.0,0.0,0.0,0.0,0.0,0.0,3.6239,3.6695,3.7737,3.9062,3.9897,4.0132,4.0758,4.1109,4.1109,4.1304,0.0,0.0,0.0,0.0,4.2747,4.2513,4.2976,0.0,4.3082,0.0,0.0,0.0,0.0,0.0,0.0,0.0,0.0,0.0,0.0,0.0,0.0,0.0,0.0,0.0,4.1003,4.1,4.0917,4.0832,0.0,0.0,0.0,4.128,4.3363,4.4717,4.638,4.9985,5.2221,5.4,5.5896,5.667,5.7181,5.7791,5.725,5.694,5.7791,5.7946,5.8023,5.8217,5.7559,5.697,5.697,5.639,5.6012,5.6012,5.6012,5.5935,5.5702,5.5702,5.5354,5.4542,5.4271,5.3846,5.3188,5.2956,5.284,5.284,5.284,5.2956,5.3149,5.3382,5.3846,5.4465,5.4697,5.5238,5.6012,5.6012,5.6824,5.8294,5.8488,5.9068,5.9957,6.077,6.0731,6.0267,6.0886,6.0731,6.0267,6.0886,6.1118,6.1118,0.0,0.0,0.0,0.0,0.0,0.0,0.0,0.0,0.0,0.0,0.0,0.0,3.6337,3.6451,3.6865,3.7879,3.7959,3.8447,3.9577,3.974,4.0171,4.0992,4.107,0.0,4.1109,4.1927,0.0,0.0,0.0,0.0,4.3606,4.2786,4.3231,4.4695,4.3838,4.3029,4.2298,0.0,0.0,0.0,0.0,0.0,0.0,0.0,0.0,0.0,0.0,0.0,0.0,0.0,0.0,0.0,0.0,4.0859,4.0878,0.0,0.0,0.0,4.1893,4.3363,4.5104,4.6922,4.8662,5.0635,5.3111,5.3072,5.3227,5.5625,5.5509,5.52,5.6012,5.6128,5.6399,5.7241,5.6622,5.6089,5.6089,5.6051,5.6012,5.6012,5.6012,5.5702,5.4929,5.4851,5.4503,5.3614,5.2801,5.2306,5.2268,5.1486,5.1053,5.1053,5.1053,5.1447,5.2268,5.3072,5.3536,5.3575,5.4426,5.5238,5.6012,5.6012,5.6506,5.7396,5.8255,5.9068,5.9957,6.077,6.1079,6.1041,6.1079,6.1079,6.1041,6.1079,6.1118,6.1118,0.0,0.0,0.0,0.0,0.0,0.0,0.0,0.0,0.0,0.0,0.0,0.0,0.0,3.744,3.763,3.8057,3.8723,3.9309,3.9777,4.0327,4.0758,4.1109,4.1109,4.1109,4.1109,4.1967,0.0,0.0,0.0,4.2864,4.3686,4.2825,4.2685,4.3215,4.3406,4.3622,4.3778,4.2622,0.0,0.0,0.0,0.0,0.0,0.0,0.0,0.0,0.0,0.0,0.0,0.0,0.0,0.0,0.0,0.0,0.0,0.0,4.0816,4.0971,4.1777,4.2473,4.3324,4.5065,4.6767,4.843,4.99,5.0828,5.1796,5.3265,5.3343,5.3382,5.4233,5.4851,5.5316,5.5625,5.5432,5.5045,5.4465,5.489,5.5006,5.4465,5.4387,5.4271,5.4,5.3962,5.3614,5.2724,5.2384,5.195,5.1409,5.1053,5.0898,5.0898,5.0898,5.1053,5.137,5.1679,5.2105,5.2655,5.2995,5.3884,5.5238,5.5238,5.5664,5.6545,5.7985,5.9068,5.9957,6.077,6.0809,6.0383,6.0886,6.077,6.0383,6.0925,6.1118,6.1118,0.0,0.0,0.0,0.0,0.0,0.0,0.0,0.0,0.0,0.0,0.0,0.0,0.0,0.0,3.8551,3.8961,3.966,4.0151,4.0246,4.0797,4.1109,4.1109,4.1109,4.1109,4.1109,0.0,0.0,0.0,0.0,0.0,0.0,4.2348,4.2042,4.2291,4.284,4.3518,0.0,0.0,0.0,4.381,0.0,0.0,4.3023,0.0,0.0,0.0,0.0,0.0,0.0,0.0,0.0,0.0,0.0,0.0,0.0,0.0,0.0,0.0,4.1777,4.2009,4.2434,4.4168,4.5452,4.6573,4.7695,4.8817,4.9939,5.1099,5.137,5.1602,5.2453,5.2879,5.3382,5.4233,5.4349,5.4155,5.3575,5.4,5.4155,5.3575,5.3498,5.3382,5.3072,5.3072,5.2685,5.1834,5.1757,5.1409,5.055,5.0511,5.0511,5.0511,5.0511,5.0627,5.0898,5.0898,5.1331,5.219,5.219,5.2956,5.4349,5.4349,5.4967,5.6051,5.7211,5.8372,5.9532,6.0654,6.0809,6.0344,6.0886,6.077,6.0383,6.0886,6.1118,6.1118,0.0,0.0,0.0,0.0,0.0,0.0,0.0,0.0,0.0,0.0,0.0,0.0,0.0,0.0,0.0,4.0703,4.0866,4.0948,4.1106,4.1109,4.1109,4.1109,4.1109,4.1109,4.1109,0.0,0.0,0.0,0.0,0.0,0.0,0.0,4.1409,4.2183,4.2201,4.268,4.3497,0.0,4.4605,4.4752,0.0,4.3873,4.4809,0.0,0.0,0.0,4.5071,4.4763,0.0,4.3734,0.0,0.0,0.0,0.0,0.0,0.0,0.0,0.0,0.0,0.0,0.0,4.413,4.4594,4.5026,4.6651,4.7038,4.754,4.9281,4.9629,4.9861,5.0666,5.0202,5.048,5.2956,5.3382,5.342,5.3343,5.3382,5.3382,5.3343,5.3382,5.3072,5.2229,5.2152,5.1796,5.0937,5.0859,5.0511,4.9707,4.9707,4.9707,4.9707,4.9707,5.0132,5.0898,5.0898,5.1331,5.2152,5.2152,5.2608,5.3459,5.3498,5.4387,5.5973,5.6012,5.7018,5.8681,6.0383,6.1079,6.1118,6.1118,6.1118,6.1118,6.1118,6.1118,6.1118,0.0,0.0,0.0,0.0,0.0,0.0,0.0,0.0,0.0,0.0,0.0,0.0,0.0,4.01,4.0378,4.0898,4.097,4.1011,4.1106,4.1109,4.1109,4.1109,4.1109,4.1109,4.1109,0.0,0.0,0.0,0.0,0.0,0.0,0.0,0.0,0.0,4.1881,4.2304,4.2556,4.2698,0.0,4.5488,4.3245,4.3707,0.0,0.0,0.0,0.0,0.0,4.4145,4.4681,0.0,4.4388,4.4281,0.0,0.0,0.0,0.0,0.0,0.0,4.2899,0.0,0.0,0.0,0.0,0.0,4.5181,4.5722,4.6464,4.7579,4.7811,4.8082,4.8933,4.8894,4.8972,4.9707,5.0828,5.1215,4.9977,5.0867,5.1177,4.9977,5.0364,5.0674,5.0403,5.0906,5.0906,5.0094,5.0016,4.9668,4.8817,4.9359,4.9707,4.9707,5.0241,5.0666,5.0898,5.0898,5.1014,5.1254,5.1254,5.1718,5.2577,5.3188,5.4116,5.52,5.639,5.7202,5.7791,5.9532,6.0576,6.1118,6.1118,6.1118,6.1118,6.1118,6.1118,6.1118,0.0,0.0,0.0,0.0,0.0,0.0,0.0,0.0,0.0,0.0,0.0,0.0,0.0,0.0,4.0636,4.0878,4.0852,4.0945,4.104,4.1044,4.1053,4.1108,4.1109,4.1109,4.1109,0.0,0.0,0.0,0.0,0.0,0.0,0.0,0.0,0.0,0.0,0.0,0.0,0.0,0.0,0.0,4.4079,0.0,0.0,4.5318,4.515,0.0,0.0,0.0,4.6185,4.5398,4.4955,0.0,0.0,0.0,0.0,0.0,0.0,0.0,0.0,0.0,0.0,0.0,0.0,0.0,4.5047,4.5465,4.5923,4.6464,4.6581,4.6689,4.7231,4.7308,4.7308,4.7308,4.843,4.9088,4.8508,4.9243,4.9475,4.8508,4.8856,4.9165,4.9165,4.9591,4.9668,4.9204,4.9165,4.8778,4.7889,4.8005,4.8237,4.8585,4.9436,5.0008,5.0395,5.0743,5.0898,5.0898,5.0898,5.1169,5.1679,5.2569,5.342,5.431,5.5664,5.6661,5.7396,5.841,5.9532,6.0615,6.0615,6.0809,6.1118,6.1118,6.1118,6.1118,0.0,0.0,0.0,0.0,0.0,0.0,0.0,0.0,0.0,0.0,0.0,0.0,0.0,0.0,0.0,0.0,4.0757,4.0809,4.097,4.0987,4.1017,4.1101,4.1184,4.1226,0.0,0.0,0.0,0.0,0.0,0.0,0.0,0.0,0.0,0.0,0.0,0.0,0.0,0.0,0.0,4.4611,4.5351,4.6274,0.0,0.0,4.7517,4.8167,4.7295,4.7475,4.795,4.6358,4.5336,0.0,0.0,0.0,0.0,0.0,4.3595,0.0,0.0,0.0,0.0,0.0,0.0,0.0,4.5699,4.5841,4.5814,4.5814,4.5807,4.5807,4.5807,4.5807,4.5807,4.5807,4.6464,4.7231,4.8005,4.8198,4.8237,4.8121,4.8198,4.8275,4.8275,4.8353,4.8353,4.8275,4.8159,4.7773,4.6999,4.631,4.631,4.7076,4.7966,4.8817,4.9707,5.0395,5.0821,5.0898,5.0898,5.0898,5.0937,5.1796,5.2693,5.3536,5.4426,5.5702,5.7164,5.7164,5.8178,5.9764,5.9841,6.0344,6.0963,6.1079,6.1118,6.1118,0.0,0.0,0.0,0.0,0.0,0.0,0.0,0.0,0.0,0.0,0.0,0.0,0.0,0.0,0.0,0.0,4.1184,4.0815,4.0852,4.096,4.0997,4.1011,4.1755,4.2162,4.2162,0.0,0.0,0.0,0.0,0.0,0.0,0.0,0.0,0.0,0.0,0.0,0.0,0.0,0.0,4.3634,4.4491,0.0,4.7048,4.6317,4.6189,4.6313,4.6137,4.6176,4.6274,4.593,4.5691,4.5568,0.0,0.0,0.0,4.5304,0.0,0.0,0.0,0.0,0.0,0.0,0.0,0.0,4.586,4.5874,4.5886,4.5886,4.5827,4.5807,4.5807,4.5807,4.5807,4.5807,4.5923,4.6116,4.6271,4.6922,4.7076,4.6387,4.6922,4.7347,4.7347,4.8005,4.8121,4.7424,4.6689,4.6232,4.6078,4.6581,4.6922,4.7076,4.7966,4.8817,4.9707,4.9861,5.0241,5.0898,5.0898,5.0898,5.0937,5.1796,5.2693,5.3536,5.4426,5.5354,5.6235,5.6235,5.7288,5.8913,5.9609,5.9996,6.019,6.0847,6.1118,6.1118,0.0,0.0,0.0,0.0,0.0,0.0,0.0,0.0,0.0,0.0,0.0,0.0,0.0,0.0,0.0,0.0,0.0,0.0,0.0,0.0,4.2144,4.2234,4.2696,4.2997,4.306,4.306,0.0,0.0,0.0,0.0,0.0,0.0,0.0,0.0,0.0,0.0,0.0,0.0,4.3943,4.402,4.4871,0.0,4.6387,4.5962,4.5807,4.5807,4.5807,4.5807,4.5884,4.631,4.6155,0.0,4.5807,4.5807,4.5821,0.0,4.5911,4.5923,0.0,0.0,0.0,4.5975,0.0,0.0,0.0,4.5911,4.5886,4.5886,4.5874,4.5861,4.5861,4.5861,4.5861,4.5861,4.5841,4.5841,4.5854,4.6215,4.631,4.5845,4.6194,4.6464,4.6464,4.6844,4.6922,4.6464,4.6039,4.5807,4.5807,4.6194,4.6464,4.6464,4.7308,4.8159,4.9049,4.9475,5.0094,5.0898,5.0898,5.0898,5.0937,5.1796,5.2461,5.2917,5.4233,5.5045,5.5432,5.5818,5.6515,5.7443,5.872,5.9764,6.0538,6.0963,6.1118,6.1118,0.0,0.0,0.0,0.0,0.0,0.0,0.0,0.0,0.0,0.0,0.0,0.0,0.0,0.0,0.0,0.0,0.0,0.0,0.0,0.0,0.0,0.0,4.3622,4.3782,4.3905,4.3956,0.0,0.0,0.0,0.0,0.0,0.0,0.0,0.0,0.0,0.0,0.0,0.0,0.0,4.4671,0.0,4.5807,4.5807,4.5807,4.5807,4.5807,4.5807,4.5807,4.5923,4.6612,4.6387,4.5807,4.5807,4.5807,0.0,0.0,0.0,0.0,0.0,0.0,0.0,0.0,0.0,4.5935,0.0,0.0,0.0,4.5917,4.5911,4.5911,4.5911,4.5911,4.5834,4.5679,4.5809,4.5841,4.5673,4.5745,4.5821,4.5814,4.5807,4.5807,4.5807,4.5807,4.5807,4.5807,4.5807,4.5807,4.5807,4.5807,4.5807,4.5807,4.6658,4.7502,4.8392,4.9243,5.0094,5.0898,5.0898,5.0898,5.0937,5.1641,5.2028,5.2306,5.3884,5.4658,5.4851,5.5664,5.6089,5.6399,5.7985,5.9416,6.0654,6.0963,6.1118,6.1118,4.0301,4.0301,0.0,0.0,0.0,0.0,0.0,0.0,0.0,0.0,0.0,0.0,0.0,0.0,0.0,0.0,0.0,0.0,4.4111,0.0,0.0,0.0,0.0,0.0,4.4663,4.4805,4.4788,0.0,0.0,0.0,0.0,0.0,0.0,0.0,4.2163,0.0,0.0,0.0,4.4594,0.0,4.549,4.5807,0.0,4.5807,4.5807,4.5807,4.5807,4.5807,4.5807,0.0,4.5884,4.5807,0.0,4.5807,4.5807,4.5827,0.0,0.0,0.0,0.0,0.0,0.0,4.6037,0.0,0.0,0.0,4.5991,4.5991,0.0,4.5911,4.5911,0.0,0.0,4.4936,4.544,4.5634,4.4936,4.5434,4.5886,4.5893,4.5827,4.5807,4.5807,4.5807,4.5807,4.5807,4.5807,4.5807,4.5807,4.5807,4.5807,4.5807,4.6658,4.7502,4.8392,4.9243,5.0094,5.0898,5.0898,5.0898,5.0898,5.1014,5.1486,5.2268,5.3227,5.4078,5.4851,5.5664,5.6467,5.7241,5.8217,5.8729,5.9068,6.0538,6.1118,6.1118,0.0,4.0301,0.0,0.0,0.0,0.0,0.0,0.0,0.0,0.0,0.0,0.0,0.0,0.0,0.0,0.0,0.0,4.5975,0.0,0.0,0.0,0.0,0.0,0.0,0.0,4.5716,0.0,0.0,4.4254,0.0,0.0,0.0,0.0,0.0,4.3484,0.0,4.4098,0.0,4.5297,0.0,0.0,0.0,0.0,4.5807,4.5807,4.5807,4.5807,4.5807,4.5807,0.0,4.5807,0.0,0.0,0.0,0.0,4.5923,0.0,0.0,0.0,0.0,0.0,0.0,0.0,0.0,4.5997,0.0,4.598,0.0,0.0,0.0,0.0,0.0,0.0,0.0,4.5753,4.5825,4.5492,4.5697,4.5905,4.5893,4.5874,4.5861,4.588,4.5821,4.5807,4.5807,4.5807,4.5807,4.5807,4.5807,4.5807,4.5807,4.6658,4.7502,4.8392,4.9243,5.0094,5.0898,5.0898,5.0898,5.0898,5.0898,5.137,5.2268,5.3111,5.4,5.4851,5.5664,5.6197,5.6622,5.7521,5.8449,5.9455,6.0151,6.0692,6.1118,0.0,0.0,0.0,0.0,0.0,0.0,4.2235,4.4235,4.5364,4.4739,0.0,0.0,4.8355,4.8856,0.0,0.0,4.9779,4.8834,0.0,0.0,4.6299,0.0,0.0,0.0,0.0,0.0,0.0,0.0,0.0,0.0,0.0,0.0,0.0,0.0,0.0,4.4836,4.4987,0.0,4.5807,4.5807,4.5807,4.5807,4.5807,4.5807,4.5807,4.5807,4.5807,4.5807,4.5807,4.5807,4.5807,4.5807,4.5807,4.5874,4.5953,0.0,0.0,0.0,4.6087,0.0,0.0,0.0,0.0,0.0,0.0,0.0,0.0,0.0,0.0,0.0,0.0,0.0,0.0,0.0,0.0,4.5936,4.5686,4.5809,4.5935,4.5923,4.5917,4.5899,4.5912,4.5848,4.5834,4.5821,4.5821,4.5814,4.5807,4.5807,4.5807,4.5807,4.6658,4.7502,4.8392,4.9243,5.0094,5.0898,5.0898,5.0898,5.0898,5.0898,5.1254,5.1873,5.2763,5.3652,5.4503,5.5316,5.5818,5.6042,5.6699,5.8023,5.9571,5.9803,6.0422,6.1118,4.1388,4.0917,0.0,0.0,0.0,0.0,4.393,4.4982,4.5594,4.5556,0.0,0.0,0.0,0.0,0.0,0.0,0.0,5.1433,5.0635,0.0,4.7296,0.0,0.0,4.5929,0.0,0.0,0.0,0.0,0.0,0.0,0.0,0.0,0.0,0.0,0.0,4.5115,4.5768,4.5807,4.5807,4.5807,4.5807,4.5807,4.5807,0.0,4.5807,4.5807,4.5807,4.5807,4.5807,4.5807,4.5807,4.5807,4.5807,4.5807,4.5814,0.0,0.0,0.0,0.0,4.6056,4.6031,4.6167,4.6148,0.0,0.0,0.0,4.7007,0.0,0.0,0.0,0.0,0.0,0.0,0.0,0.0,0.0,0.0,4.5491,4.5986,4.5997,4.5929,4.5911,4.5905,4.5905,4.5893,4.59,4.59,4.588,4.5807,4.5807,4.5807,4.5807,4.6658,4.7502,4.8392,4.9243,5.0094,5.0898,5.0898,5.0898,5.0898,5.0898,5.0937,5.0975,5.1873,5.2732,5.3614,5.4465,5.5316,5.6012,5.6051,5.7095,5.8729,5.9571,6.0422,6.1118,0.0,0.0,0.0,0.0,0.0,4.3133,4.4906,4.5432,4.6586,0.0,4.9817,0.0,0.0,5.4434,5.4664,0.0,0.0,5.3368,5.0915,5.0229,0.0,0.0,0.0,4.7189,0.0,0.0,0.0,0.0,0.0,0.0,0.0,0.0,0.0,0.0,0.0,4.5658,0.0,0.0,0.0,0.0,0.0,4.6155,4.6619,0.0,4.5807,4.5807,4.5807,4.5807,4.5807,4.5807,4.5807,4.5807,4.5807,4.5867,4.5923,4.5834,4.5874,4.5941,4.5902,4.5879,4.5896,4.6031,4.6008,4.5983,4.6098,0.0,0.0,0.0,0.0,0.0,0.0,0.0,0.0,0.0,0.0,0.0,0.0,4.5846,4.5997,4.5986,4.5997,4.598,4.598,4.5923,4.5899,4.59,4.59,4.588,4.5807,4.5807,4.5807,4.5807,4.6658,4.7502,4.8392,4.9243,5.0094,5.0898,5.0898,5.0898,5.0898,5.0898,5.1215,5.1796,5.2066,5.2685,5.3575,5.4426,5.4967,5.5316,5.6429,5.7559,5.8651,5.8913,5.9919,6.1118,4.2556,0.0,0.0,0.0,0.0,4.3944,4.5393,4.6364,0.0,0.0,5.2241,0.0,5.7088,0.0,5.7396,0.0,5.7319,5.5833,5.1901,5.164,0.0,4.7622,4.7878,0.0,0.0,0.0,0.0,0.0,0.0,4.6509,0.0,0.0,0.0,0.0,0.0,4.5893,4.5807,4.5807,4.5807,0.0,0.0,4.6155,0.0,4.6,4.6,4.6232,4.5923,4.5807,4.5807,4.5807,4.5807,4.5807,4.5807,4.5867,4.5923,4.5834,4.5874,4.5929,4.5893,4.588,4.5911,4.5978,4.5963,4.5968,4.6115,4.6349,4.6442,0.0,0.0,0.0,0.0,0.0,0.0,0.0,0.0,0.0,0.0,4.6002,4.6002,4.6002,4.5986,4.6014,4.6014,4.5953,4.5929,4.5938,4.5925,4.5861,4.5827,4.5814,4.5807,4.5807,4.6348,4.7192,4.8392,4.8972,4.9784,5.0898,5.0898,5.0898,5.0898,5.0898,5.1215,5.1757,5.1757,5.2414,5.3536,5.4116,5.4697,5.5354,5.6738,5.783,5.8651,5.8952,5.9919,6.1118,0.0,0.0,0.0,0.0,4.3893,0.0,0.0,0.0,5.0125,0.0,5.4357,5.6588,5.8396,5.9973,6.0512,5.9627,6.0319,5.8704,5.3703,5.3395,0.0,0.0,4.7634,4.7178,4.6992,0.0,0.0,0.0,0.0,0.0,0.0,0.0,0.0,0.0,4.5867,0.0,4.5807,4.5807,4.5807,4.5807,4.5807,4.5845,4.5845,4.5807,4.6348,4.6999,4.6116,4.5807,4.5807,4.5807,4.5807,4.5807,4.5807,4.5807,4.5807,4.5807,4.5807,4.5834,4.5964,4.5991,4.6002,4.5993,4.5998,4.6008,4.6064,4.6691,4.7003,4.6251,0.0,0.0,0.0,0.0,0.0,0.0,0.0,0.0,0.0,0.0,4.6002,4.6002,4.6002,4.6002,4.6002,4.6002,4.5986,4.5997,4.5929,4.5899,4.59,4.5827,4.5807,4.5807,4.5807,4.6651,4.8392,4.8392,4.9243,5.0898,5.0898,5.0898,5.0898,5.0898,5.0937,5.0975,5.0937,5.1912,5.3498,5.3498,5.4465,5.6051,5.6932,5.7869,5.8767,5.9648,6.0422,6.1118,4.4252,4.5346,4.6163,0.0,4.5547,4.5979,0.0,0.0,0.0,0.0,5.7742,5.9665,6.2666,6.2243,6.1408,6.055,6.0666,0.0,0.0,0.0,0.0,5.1077,5.0838,4.9591,4.7066,4.7822,0.0,4.5982,0.0,0.0,4.6098,0.0,0.0,0.0,0.0,0.0,4.5807,4.5807,4.5807,4.5807,4.5807,4.6194,4.6689,4.6039,4.6348,4.6999,4.6116,4.5807,4.5807,4.5807,4.5807,4.5807,4.5807,4.5807,4.5807,4.5807,4.5807,4.5814,4.5848,4.5861,4.5886,4.5986,4.5964,4.5964,4.6084,4.6236,4.6286,4.6111,4.629,4.6375,4.6115,4.6142,0.0,0.0,0.0,0.0,0.0,0.0,0.0,4.6002,4.6002,4.6002,4.6002,4.6002,4.5986,4.5997,4.5991,4.5962,4.59,4.5893,4.5834,4.5807,4.5807,4.6651,4.8392,4.8392,4.9243,5.0898,5.0898,5.0898,5.0898,5.0898,5.1254,5.1834,5.1169,5.1912,5.3498,5.3498,5.4155,5.5238,5.6738,5.8217,5.9648,6.0499,6.0925,6.1118,4.5346,0.0,0.0,4.8009,0.0,0.0,5.0779,5.1164,0.0,5.7665,5.9319,0.0,6.2743,6.3089,6.2551,6.0935,6.0781,0.0,5.7176,0.0,0.0,5.2577,5.1847,5.022,4.7534,4.8146,0.0,4.5881,0.0,0.0,4.5978,0.0,0.0,0.0,0.0,4.5807,4.5807,4.5807,4.5807,4.5807,4.5807,4.6078,0.0,4.6,4.6116,4.6464,4.6,4.5807,4.5807,4.5807,4.5807,4.5807,4.5807,4.5807,4.5807,4.5807,4.5807,4.5807,4.5807,4.5807,4.5827,4.5905,4.588,4.5899,4.6044,4.6013,4.6031,4.6052,4.6091,4.6105,4.6044,4.6153,0.0,0.0,0.0,0.0,0.0,0.0,0.0,0.0,4.6002,4.6002,4.6002,4.6002,4.5991,4.6014,4.6003,4.598,4.5944,4.5912,4.5886,4.5827,4.6549,4.7424,4.8392,4.9126,4.997,5.0898,5.0898,5.0898,5.0898,5.0898,5.137,5.219,5.1679,5.2453,5.4078,5.4078,5.4542,5.5509,5.7211,5.8681,5.9996,6.0809,6.1118,6.1118,4.6894,0.0,0.0,0.0,0.0,0.0,0.0,5.3154,0.0,5.8127,0.0,6.1243,6.1127,6.3012,6.332,6.1012,0.0,5.9511,5.733,5.6357,5.5126,5.3433,5.1856,5.0096,4.8172,4.8223,4.7463,0.0,0.0,0.0,0.0,0.0,0.0,0.0,0.0,0.0,0.0,4.5807,4.5807,4.5807,4.5807,4.5807,4.5807,4.5807,4.5807,4.5807,4.5807,4.5807,4.5807,4.5807,4.5807,4.5807,4.5807,4.5807,4.5807,4.5807,4.5807,4.5807,4.5807,4.5807,4.5807,4.5807,4.5807,4.5848,4.5947,4.5973,4.5983,4.6008,4.6013,4.6073,4.6012,4.6111,0.0,0.0,0.0,0.0,0.0,0.0,0.0,0.0,0.0,0.0,4.6002,4.6002,4.6002,4.6002,4.6014,4.5997,4.5991,4.5938,4.59,4.5893,4.7407,4.8353,4.8585,5.0008,5.0859,5.1053,5.0937,5.0898,5.0898,5.1014,5.1563,5.2384,5.2384,5.3343,5.4967,5.4851,5.5277,5.6167,5.7907,5.9068,5.9841,6.077,6.1041,6.0963,0.0,0.0,0.0,0.0,0.0,5.3741,5.5983,5.6819,5.7934,6.0089,6.2435,6.3666,6.2935,6.2666,6.205,6.0896,5.955,0.0,0.0,0.0,0.0,5.4357,5.3318,5.1337,4.8256,4.827,4.7472,0.0,0.0,0.0,0.0,0.0,0.0,0.0,0.0,0.0,4.5807,4.5807,0.0,4.5807,4.5807,4.5807,4.5807,4.5807,4.5807,4.5807,4.5807,4.5807,4.5807,4.5807,4.5807,4.5807,4.5807,4.5807,4.5807,4.5807,4.5807,4.5807,4.5807,4.5807,4.5807,4.5807,4.5807,4.5814,4.5848,4.5854,4.5861,4.5899,4.5923,4.598,4.6069,4.6145,4.6191,0.0,0.0,0.0,0.0,0.0,0.0,0.0,0.0,4.6002,4.6002,4.6002,4.6002,4.6002,4.5997,4.5969,4.5923,4.5905,4.5874,4.5814,4.6813,4.8005,4.9475,4.9745,5.0596,5.195,5.1254,5.0898,5.0937,5.1641,5.2453,5.3265,5.3265,5.4233,5.5741,5.5084,5.5277,5.6167,5.7907,5.869,5.899,6.0538,6.0692,6.019,0.0,0.0,0.0,0.0,0.0,0.0,0.0,5.905,5.9704,6.0089,6.1204,6.1627,6.0819,6.1127,6.105,6.0204,5.8588,5.7819,5.828,5.7049,5.578,5.4549,5.3664,5.1645,4.8265,4.827,4.7472,4.5788,0.0,0.0,0.0,0.0,0.0,0.0,0.0,4.5807,0.0,0.0,4.5807,4.5807,4.5807,4.5807,4.5807,4.5807,4.5807,4.5807,4.5807,4.5807,4.5807,4.5807,4.5807,4.5807,4.5807,4.5807,4.5807,4.5807,4.5807,4.5807,4.5807,4.5807,4.5807,4.5807,4.5807,4.5807,4.5807,4.5807,4.5807,4.5827,4.5886,4.5923,4.6087,4.6142,4.6177,4.6153,4.6188,0.0,0.0,0.0,0.0,0.0,0.0,0.0,0.0,4.6002,4.6002,4.6002,4.6002,4.5986,4.5958,4.5929,4.5893,4.5861,4.7523,4.8624,4.901,5.0326,5.1177,5.1525,5.1091,5.0898,5.0937,5.1796,5.2693,5.3536,5.3962,5.4851,5.6012,5.6089,5.6321,5.6854,5.8604,5.9261,5.9416,6.0654,6.0847,6.0576,0.0,5.2587,0.0,0.0,5.6165,5.7703,5.905,6.0127,6.0627,6.0127,5.9896,5.9473,5.8627,5.9742,6.0165,5.9319,5.7857,5.728,5.7973,5.6549,5.5241,5.428,5.3587,5.1722,4.8552,4.8356,4.7557,0.0,0.0,4.5807,4.5807,0.0,0.0,0.0,0.0,0.0,4.5807,4.5807,4.5807,4.5807,4.5807,4.5807,4.5807,4.5807,4.5807,4.5807,4.5807,4.5807,4.5807,4.5807,4.5807,4.5807,4.5807,4.5807,4.5807,4.5807,4.5807,4.5807,4.5807,4.5807,4.5807,4.5807,4.5807,4.5807,4.5807,4.5807,4.5807,4.5807,4.5834,4.5923,4.6099,4.6125,4.6147,4.6139,4.6204,4.6208,0.0,0.0,0.0,0.0,0.0,0.0,4.6047,4.6032,4.6027,4.6002,4.6002,4.5997,4.5991,4.5947,4.5917,4.5911,4.8203,4.9173,4.8677,5.0836,5.1679,5.1169,5.0975,5.1014,5.1215,5.2066,5.2956,5.3807,5.4697,5.5393,5.6089,5.6932,5.728,5.7473,5.9223,5.988,5.9996,6.0809,6.1002,6.0886,0.0,0.0,0.0,0.0,0.0,5.8242,5.8396,5.9781,6.105,6.1755,6.1166,6.0358,5.9473,5.9511,5.9319,5.8473,5.755,5.7022,5.7137,5.6242,5.4972,5.3395,5.3241,5.2011,4.9444,4.8681,4.7874,0.0,0.0,4.5807,4.5807,0.0,0.0,4.5807,4.5807,4.5807,4.5807,4.5807,4.5807,4.5807,4.5807,4.5807,4.5807,4.5807,4.5807,4.5807,4.5807,4.5807,4.5807,4.5807,4.5807,4.5807,4.5807,4.5807,4.5807,4.5807,4.5807,4.5807,4.5807,4.5807,4.5807,4.5807,4.5807,4.5807,4.5807,4.5807,4.5807,4.5807,4.5834,4.5941,4.6095,4.6039,4.6044,4.6158,4.6136,4.6139,0.0,0.0,4.6184,4.6173,0.0,0.0,4.6098,4.6087,4.6056,4.6007,4.6002,4.5991,4.6003,4.5997,4.598,4.5911,4.7611,4.8868,4.9558,5.0534,5.137,5.2066,5.1293,5.1331,5.2105,5.2995,5.3846,5.4735,5.5548,5.5935,5.6089,5.6932,5.728,5.7473,5.9223,5.988,5.9996,6.0809,6.0654,6.0112,0.0,0.0,5.6434,5.7742,5.8165,5.8627,5.9665,6.0358,6.0935,6.1281,6.1012,6.0666,6.0319,5.9819,5.9358,5.905,5.778,5.6983,5.6983,5.5742,5.4493,5.333,5.2752,5.1558,4.9611,4.8731,4.7905,0.0,0.0,0.0,4.5807,4.6348,4.631,4.5807,4.5807,4.5807,4.5807,4.5807,4.5807,4.5807,4.5807,4.5807,4.5807,4.5807,4.5807,4.5807,4.5807,4.5807,4.5807,4.5807,4.5807,4.5807,4.5807,4.5807,4.5807,4.5807,4.5807,4.5807,4.5807,4.5807,4.5807,4.5807,4.5807,4.5807,4.5807,4.5807,4.5807,4.5807,4.5834,4.5917,4.6035,4.6035,4.6107,4.6181,4.6192,4.6152,4.6184,0.0,0.0,4.6188,0.0,4.6153,4.6112,4.6098,4.6298,4.6745,4.6307,4.5997,4.5986,4.6008,4.5991,4.598,4.7546,4.8558,4.8907,5.0225,5.1053,5.1409,5.1602,5.1873,5.2268,5.3652,5.4735,5.5548,5.5857,5.6313,5.6854,5.7714,5.8372,5.899,6.0151,6.0615,6.0654,6.0963,6.0886,6.0654,5.7703,5.7742,5.8204,5.9627,5.9396,5.9435,6.0627,6.0781,6.0781,6.0781,6.0781,6.0704,6.0435,5.9858,5.9511,5.9511,5.8204,5.7368,5.739,5.557,5.4139,5.335,5.2492,0.0,4.9992,4.9142,4.8392,4.785,4.7347,4.6806,4.6194,4.6542,4.6387,4.5807,4.5807,4.5807,4.5807,4.5807,4.5807,4.5807,4.5807,4.5807,4.5807,4.5807,4.5807,4.5807,4.5807,4.5807,4.5807,4.5807,4.5807,4.5807,4.5807,4.5807,4.5807,4.5807,4.5807,4.5807,4.5807,4.5807,4.5807,4.5807,4.5807,4.5807,4.5807,4.5807,4.5814,4.5861,4.5886,4.5941,4.6017,4.6064,4.6112,4.621,4.6203,4.621,4.6245,4.6285,0.0,4.6248,4.6211,4.6209,4.6142,4.6131,4.6364,4.6862,4.6346,4.6118,4.6385,4.6136,4.6119,4.6385,4.7721,4.8533,4.8791,5.0457,5.1293,5.1293,5.2182,5.2732,5.2995,5.4465,5.547,5.6012,5.6274,5.6738,5.7396,5.8526,5.9339,5.9996,6.0809,6.1118,6.1118,6.1118,6.1118,6.1118,5.9319,5.9473,5.9742,6.0627,6.0781,6.0781,6.0781,6.0781,6.0781,6.0781,6.0781,6.0473,5.9627,5.9511,5.9511,5.9511,5.8742,5.8264,5.828,5.5892,5.415,5.332,5.2548,5.1717,5.0919,5.003,4.9629,4.9668,0.0,4.7076,4.7076,4.6194,4.5807,4.5807,4.5807,4.5807,4.5807,4.5807,4.5807,4.5807,4.5807,4.5807,4.5807,4.5807,4.5807,4.5807,4.5807,4.5807,4.5807,4.5807,4.5807,4.5807,4.5807,4.5807,4.5807,4.5807,4.5807,4.5807,4.5807,4.5807,4.5807,4.5807,4.5807,4.5807,4.5807,4.5807,4.5848,4.5975,4.5997,4.6032,4.6084,4.6115,4.6106,4.6191,4.6205,4.6211,4.6278,4.6306,0.0,4.6302,4.6302,4.6283,4.6228,4.6183,4.6142,4.6017,4.6002,4.6385,4.724,4.6463,4.6374,4.7272,4.805,4.8864,4.9681,5.1355,5.219,5.219,5.3072,5.3923,5.4813,5.5625,5.6012,5.6051,5.6893,5.728,5.7434,5.9184,5.988,5.9996,6.0809,6.1118,6.1118,6.1118,6.1118,6.1118,6.0319,6.0396,6.0473,6.0742,6.0781,6.0781,6.0781,6.0781,6.0781,6.0781,6.0781,6.0704,6.0435,6.0396,6.0419,6.0453,5.9144,5.8319,5.8371,5.5991,5.4477,5.4253,5.2863,5.2,5.178,5.0387,4.9691,4.9707,4.9126,4.8585,4.7966,4.6503,4.5807,4.5807,4.5807,4.5807,4.5807,4.5807,4.5807,4.5807,4.5807,4.5807,4.5807,4.5807,4.5807,4.5807,4.5807,4.5807,4.5807,4.5807,4.5807,4.5807,4.5807,4.5807,4.5807,4.5807,4.5807,4.5807,4.5807,4.5807,4.5807,4.5807,4.5807,4.5962,4.6542,4.6689,4.6704,4.6752,4.63,4.5911,4.5993,4.6031,4.6052,4.6186,4.6202,4.621,4.6283,4.6313,4.6309,4.6309,4.6305,4.6277,4.6209,4.6196,4.6405,4.6919,4.6351,4.6118,4.6385,4.6718,4.7012,4.7272,4.8606,4.9734,5.0572,5.1664,5.25,5.3111,5.3962,5.4813,5.5625,5.5896,5.6313,5.6893,5.7164,5.7985,5.9106,5.9687,6.0228,6.0731,6.1002,6.1118,6.1118,6.1118,6.1118,6.1118,6.0781,6.0781,6.0781,6.0781,6.0781,6.0781,6.0781,6.0781,6.0781,6.0781,6.0781,6.0793,6.0816,6.0854,6.0827,6.0911,5.9342,5.8382,5.8432,5.6049,5.4687,5.4731,5.3069,5.2158,5.219,5.0867,5.0171,5.0171,4.9861,4.9243,4.8392,4.727,4.6619,4.631,4.631,4.6116,4.5807,4.5807,4.5807,4.5807,4.5807,4.5807,4.5807,4.5807,4.5807,4.5807,4.5807,4.6,4.6232,4.5923,4.6039,4.6232,4.5884,4.5807,4.5807,4.5807,4.5807,4.5807,4.5807,4.6039,4.631,4.631,4.6542,4.6922,4.7463,4.7579,4.7478,4.7184,4.6694,4.6272,4.6081,4.606,4.6118,4.6184,4.6204,4.625,4.6286,4.6281,4.6316,4.6316,4.6311,4.6278,4.6211,4.6206,4.6386,4.6862,4.6656,4.6494,4.6491,4.7012,4.7416,4.7701,4.9315,5.0603,5.144,5.2585,5.3459,5.4,5.52,5.6012,5.6506,5.6824,5.7288,5.783,5.8139,5.8874,5.9919,6.0228,6.0654,6.1118,6.1118,6.1118,6.1118,6.1118,6.1118,6.1118,6.0781,6.0781,6.0781,6.0781,6.0781,6.0781,6.0781,6.0781,6.0781,6.0781,6.0793,6.0816,6.09,6.0834,6.0806,6.0806,5.9346,5.8394,5.8404,5.6134,5.48,5.4813,5.3188,5.2268,5.219,5.137,5.0898,5.0898,5.0094,4.9281,4.8508,4.843,4.7966,4.7192,4.7192,4.6728,4.6,4.6,4.5962,4.5884,4.5884,4.5845,4.5807,4.5884,4.5845,4.5807,4.5884,4.6426,4.696,4.6155,4.6464,4.7038,4.6155,4.5923,4.5962,4.5845,4.5807,4.5807,4.5884,4.6464,4.7115,4.7192,4.785,4.8508,4.8508,4.8508,4.8273,4.755,4.7345,4.7077,4.631,4.6228,4.6261,4.6222,4.6247,4.6288,4.6288,4.6285,4.6283,4.6283,4.6356,4.636,4.6289,4.6289,4.6282,4.6287,4.6902,4.731,4.7373,4.7505,4.7856,4.8565,5.0223,5.1478,5.2384,5.4,5.4813,5.489,5.6467,5.7241,5.7318,5.8139,5.8565,5.8729,5.9532,5.9919,6.0035,6.0809,6.1118,6.1118,6.1118,6.1118,6.1118,6.1118,6.1118,6.1118,6.0781,6.0781,6.0781,6.0781,6.0781,6.0781,6.0781,6.0781,6.0781,6.0781,6.0827,6.09,6.0911,6.0408,6.0084,6.0084,5.908,5.822,5.761,5.642,5.5415,5.4813,5.3768,5.2879,5.2229,5.137,5.0898,5.0898,5.0094,4.9591,4.9397,4.8701,4.8275,4.8082,4.8082,4.7966,4.7773,4.7773,4.7386,4.6806,4.6806,4.6387,4.5884,4.6542,4.6387,4.5884,4.6542,4.6922,4.7076,4.6844,4.7386,4.7927,4.7076,4.7231,4.7502,4.6194,4.5807,4.5962,4.6612,4.6922,4.727,4.7927,4.874,4.9397,4.9397,4.9397,4.9327,4.9132,4.8612,4.795,4.7077,4.7096,4.6965,4.63,4.6245,4.6289,4.6289,4.6288,4.6286,4.6286,4.6904,4.729,4.7256,4.7226,4.7461,4.8163,4.7672,4.757,4.8265,4.947,5.0199,5.0378,5.1401,5.2655,5.4155,5.4581,5.5122,5.5741,5.6128,5.6661,5.7318,5.7512,5.8333,5.9609,5.9803,6.0267,6.0847,6.1041,6.1118,6.1118,6.1118,6.1118,6.1118,6.1118,6.1118,6.1118,6.0781,6.0781,6.0781,6.0781,6.0781,6.0781,6.0781,6.0781,6.0793,6.0816,6.0888,6.0894,6.0948,6.0277,5.9669,5.9263,5.8442,5.7755,5.7318,5.6467,5.5625,5.4851,5.3962,5.3072,5.2229,5.137,5.0898,5.0898,5.0473,5.0241,5.0241,4.9745,4.9359,4.8972,4.8972,4.8778,4.8392,4.8392,4.8121,4.7695,4.7695,4.7154,4.6464,4.6922,4.6806,4.6464,4.6922,4.7618,4.8237,4.7811,4.8275,4.8856,4.7966,4.7734,4.7695,4.7154,4.6689,4.6573,4.7463,4.7695,4.8005,4.9243,4.9952,5.035,5.035,5.035,5.0254,4.9858,4.9415,4.887,4.8067,4.7711,4.7361,4.6904,4.6522,4.6289,4.6289,4.6289,4.6445,4.6835,4.7301,4.7765,4.8156,4.8162,4.8359,4.8827,4.8623,4.8876,4.969,5.0869,5.1362,5.0968,5.2539,5.3846,5.4774,5.5161,5.578,5.6583,5.7018,5.7637,5.8488,5.8874,5.9571,6.046,6.046,6.0692,6.1118,6.1118,6.1118,6.1118,6.1118,6.1118,6.1118,6.1118,6.1118,6.1118,6.0781,6.0781,6.0781,6.0781,6.0781,6.0781,6.0781,6.0793,6.0854,6.09,6.0922,6.0938,6.0992,6.0162,5.934,5.8642,5.7675,5.7086,5.7086,5.639,5.5625,5.4851,5.3962,5.3072,5.2229,5.137,5.0898,5.0898,5.0898,5.0898,5.0898,5.0898,5.055,4.99,4.99,4.9475,4.8778,4.8778,4.8701,4.8585,4.8585,4.8082,4.7308,4.7308,4.7308,4.7308,4.7308,4.8314,4.9591,4.8856,4.9165,4.9745,4.8856,4.8159,4.7773,4.8275,4.7966,4.7618,4.8237,4.8508,4.8979,5.0542,5.1037,5.1086,5.1109,5.1109,5.0908,5.0256,5.0066,4.9755,4.8942,4.822,4.7645,4.7422,4.6797,4.6289,4.6289,4.6406,4.6836,4.7695,4.8007,4.8514,4.9373,4.9489,4.9491,4.9567,5.0035,5.0657,5.1463,5.2207,5.2253,5.1517,5.3652,5.4929,5.5161,5.5857,5.6622,5.7512,5.8255,5.9068,5.9919,6.0615,6.1002,6.1118,6.1118,6.1118,6.1118,6.1118,6.1118,6.1118,6.1118,6.1118,6.1118,6.1118,6.1118,6.1118,6.0781,6.0781,6.0781,6.0781,6.0781,6.0781,6.0781,6.0866,6.09,6.0911,6.0959,6.0982,6.1002,5.9688,5.8758,5.8604,5.7134,5.6197,5.6197,5.6089,5.5625,5.4851,5.3962,5.3072,5.2229,5.137,5.0898,5.0898,5.0898,5.0898,5.0898,5.0898,5.0821,5.0705,5.0705,5.0627,5.0511,5.0511,5.0124,4.9513,4.9513,4.8972,4.8198,4.8198,4.8198,4.8198,4.8198,4.8856,4.9668,4.9552,5.0055,5.055,4.9745,4.9861,5.0047,4.8778,4.8817,4.9165,4.8546,4.8933,4.9737,5.0791,5.1068,5.1109,5.1161,5.1183,5.1148,5.1004,5.105,5.0577,4.9029,4.8701,4.8203,4.6758,4.6406,4.6289,4.6289,4.6914,4.7734,4.8594,4.996,5.1131,5.203,5.2107,5.242,5.3124,5.2565,5.2515,5.3334,5.4086,5.4386,5.4202,5.4581,5.547,5.6893,5.7048,5.7559,5.841,5.8526,5.9068,5.988,6.0035,6.046,6.1118,6.1118,6.1118,6.1118,6.1118,6.1118,6.1118,6.1118,6.1118,6.1118,6.1118,6.1118,6.1118,6.0781,6.0781,6.0781,6.0781,6.0781,6.0781,6.0781,6.0877,6.0922,6.0955,6.099,6.1012,6.1041,5.96,5.8613,5.8613,5.7018,5.6012,5.6012,5.6012,5.5625,5.4851,5.4426,5.3575,5.2229,5.137,5.0898,5.0898,5.0898,5.0898,5.0898,5.0898,5.0898,5.0898,5.0898,5.0898,5.0898,5.0898,5.0705,5.0357,5.0357,4.9861,4.9088,4.9088,4.9088,4.9088,4.9088,4.9629,5.0357,5.0357,5.0589,5.0821,5.0473,5.0279,5.0202,4.9861,4.9707,4.9629,4.9204,4.9766,5.0539,5.099,5.1138,5.1222,5.1255,5.1612,5.1974,5.1999,5.2001,5.1773,5.1007,4.9764,4.8789,4.8476,4.7226,4.6641,4.7578,4.8047,4.8789,5.0078,5.1328,5.2421,5.332,5.3398,5.3554,5.3984,5.3583,5.3669,5.4498,5.5229,5.5799,5.6187,5.6178,5.6506,5.728,5.7791,5.8449,5.93,5.93,5.9725,6.0538,6.0538,6.0731,6.1118,6.1118,6.1118,6.1118,6.1118,6.1118,6.1118,6.1118,6.1118,6.1118,6.1118,6.1118,6.1118,6.0781,6.0781,6.0781,6.0781,6.0781,6.0831,6.0804,6.0888,6.0955,6.1008,6.1021,6.0964,6.0838,5.9493,5.8526,5.8333,5.6902,5.6012,5.6012,5.6012,5.5741,5.5122,5.489,5.3962,5.2229,5.1525,5.1091,5.0898,5.0898,5.0898,5.0898,5.0898,5.0898,5.0898,5.0898,5.0898,5.0898,5.0898,5.0898,5.0898,5.0898,5.0511,4.9977,4.9784,4.9823,4.9939,4.9784,5.0202,5.0898,5.0898,5.0898,5.0898,5.0898,5.0473,5.0055,5.0473,5.0194,4.9759,4.9952,5.0384,5.0864,5.1074,5.1388,5.1611,5.162,5.2287,5.2957,5.3007,5.2963,5.2879,5.2734,5.0937,4.9648,5.0117,4.8359,4.7422,4.8984,4.9375,5.0117,5.1797,5.2773,5.3633,5.4531,5.4609,5.4609,5.4609,5.4564,5.49,5.5745,5.6273,5.6897,5.769,5.7652,5.7714,5.7907,5.8565,5.9339,6.019,6.019,6.0499,6.1118,6.1118,6.1118,6.1118,6.1118,6.1118,6.1118,6.1118,6.1118,6.1118,6.1118,6.1118,6.1118,6.1118,6.1118,6.1118,6.0781,6.0781,6.0781,6.0781,6.0781,6.0804,6.09,6.0955,6.1008,6.0992,6.1041,6.0809,6.0074,5.9145,5.8255,5.7473,5.6545,5.6012,5.6012,5.6012,5.5973,5.5896,5.52,5.3962,5.2229,5.2152,5.1718,5.0898,5.0898,5.0898,5.0898,5.0898,5.0898,5.0898,5.0898,5.0898,5.0898,5.0898,5.0898,5.0898,5.0898,5.0859,5.0743,4.9977,5.0171,5.0705,4.9977,5.0202,5.0898,5.0898,5.0898,5.0898,5.0898,5.0859,5.0666,4.9977,4.9808,4.9986,5.0796,5.0458,5.013,5.1066,5.1917,5.2518,5.2576,5.3281,5.3906,5.3906,5.3906,5.3633,5.2851,5.1875,5.0976,5.0312,4.9375,4.9023,4.9961,5.0742,5.1875,5.3594,5.457,5.5469,5.6328,5.6406,5.6406,5.6406,5.6406,5.6715,5.7467,5.7575,5.7903,5.8597,5.8551,5.8874,5.9687,5.9764,6.019,6.1002,6.1002,6.1041,6.1118,6.1118,6.1118,6.1118,6.1118,6.1118,6.1118,6.1118,6.1118,6.1118,6.1118,6.1118,6.1118,6.1118,6.1118,6.1118,6.0781,6.0781,6.0781,6.0781,6.0816,6.0888,6.0911,6.0948,6.1021,6.1002,6.1051,6.0809,5.9996,5.9106,5.8255,5.7396,5.6506,5.6012,5.6012,5.6012,5.6012,5.6012,5.5238,5.4503,5.3846,5.2763,5.2298,5.2492,5.1989,5.1718,5.1718,5.1718,5.1409,5.0898,5.0898,5.0898,5.0898,5.0898,5.0898,5.0898,5.0898,5.0898,5.0859,5.055,5.0627,5.0859,5.055,5.0627,5.0898,5.0898,5.0898,5.0898,5.0898,5.0966,5.0985,5.072,5.0656,5.0854,5.1767,5.1388,5.0816,5.121,5.1587,5.1989,5.2578,5.3359,5.4141,5.4687,5.4805,5.4726,5.4375,5.3164,5.2266,5.2539,5.1367,5.0937,5.2344,5.2812,5.3476,5.4648,5.5586,5.6445,5.7305,5.6914,5.6836,5.7383,5.7422,5.7538,5.7807,5.8767,5.963,6.0306,6.0281,6.0157,5.988,6.0383,6.0809,6.1118,6.1118,6.1118,6.1118,6.1118,6.1118,6.1118,6.1118,6.1118,6.1118,6.1118,6.1118,6.1118,6.1118,6.1118,6.1118,6.1118,6.1118,6.1118,6.0396,6.0589,6.0831,6.0843,6.0888,6.0922,6.0916,6.0951,6.1012,6.1022,6.106,6.0692,5.9609,5.8952,5.8139,5.697,5.6351,5.6012,5.6012,5.6012,5.6012,5.6012,5.547,5.5045,5.4813,5.3343,5.2763,5.3072,5.2221,5.1796,5.1796,5.1796,5.1486,5.0898,5.0898,5.0898,5.0898,5.0898,5.0898,5.0898,5.0898,5.0898,5.0898,5.0898,5.0898,5.0898,5.0898,5.0898,5.0898,5.0898,5.0898,5.0906,5.0959,5.1037,5.1152,5.1183,5.1417,5.1798,5.2423,5.236,5.2133,5.2133,5.2379,5.2773,5.3398,5.418,5.5,5.5586,5.5703,5.5703,5.5703,5.4492,5.3711,5.4297,5.3164,5.2734,5.4219,5.4414,5.4726,5.5586,5.625,5.6953,5.7812,5.7344,5.7383,5.8242,5.832,5.8437,5.8672,5.9986,6.0903,6.1401,6.1355,6.1019,6.0383,6.0872,6.1118,6.1118,6.1118,6.1118,6.1118,6.1118,6.1118,6.1118,6.1118,6.1118,6.1118,6.1118,6.1118,6.1118,6.1118,6.1118,6.1118,6.1118,6.1118,6.1118,5.9511,6.0204,6.0804,6.09,6.0911,6.0916,6.0992,6.1002,6.1022,6.107,6.1118,6.046,5.8758,5.8613,5.7907,5.6167,5.6012,5.6012,5.6012,5.6012,5.6012,5.6012,5.6012,5.5625,5.4813,5.3962,5.3072,5.2229,5.1331,5.0898,5.0898,5.0898,5.0898,5.0898,5.0898,5.0898,5.0898,5.0898,5.0898,5.0898,5.0898,5.0898,5.0898,5.0898,5.0898,5.0898,5.0898,5.0898,5.0898,5.0898,5.0898,5.0929,5.1043,5.1167,5.1203,5.1203,5.1882,5.2587,5.2626,5.3312,5.4023,5.3984,5.4648,5.5273,5.5312,5.5976,5.6601,5.6601,5.6601,5.6601,5.6601,5.5898,5.5312,5.5312,5.457,5.4336,5.5195,5.5312,5.5625,5.6484,5.6601,5.6953,5.7812,5.789,5.8242,5.914,5.9219,5.957,6.0351,6.1157,6.1605,6.1605,6.1463,6.1387,6.1404,6.1205,6.1118,6.1118,6.1118,6.1118,6.1118,6.1118,6.1118,6.1118,6.1118,6.1118,6.1118,6.1118,6.1118,6.1118,6.1118,6.1118,6.1118,6.1118,6.1118,6.1118,6.0396,6.0627,6.0804,6.09,6.0944,6.0997,6.0992,6.1032,6.106,6.1118,6.1118,6.046,5.8758,5.8613,5.7907,5.6167,5.6012,5.6012,5.6012,5.6012,5.6012,5.6012,5.6012,5.5896,5.5664,5.4233,5.3652,5.4,5.2531,5.1796,5.1796,5.1796,5.1486,5.0898,5.0898,5.0898,5.0937,5.1563,5.1796,5.1796,5.1796,5.1796,5.1757,5.113,5.0898,5.0898,5.0898,5.0898,5.0914,5.103,5.1024,5.1062,5.1207,5.1261,5.1282,5.131,5.1986,5.281,5.3435,5.4218,5.4765,5.4141,5.4219,5.4531,5.5156,5.5508,5.5859,5.6484,5.6601,5.6601,5.6601,5.6406,5.6211,5.6211,5.5976,5.5937,5.6172,5.6211,5.6328,5.6562,5.6601,5.7187,5.8672,5.8242,5.8515,5.9922,6.0039,6.039,6.1288,6.1523,6.1638,6.1587,6.1575,6.1507,6.1404,6.1272,6.1252,6.1235,6.1161,6.1118,6.1118,6.1118,6.1118,6.1118,6.1118,6.1118,6.1118,6.1118,6.1118,6.1118,6.1118,6.1118,6.1118,6.1118,6.1118,6.1118,6.0281,6.055,6.0804,6.09,6.0955,6.1008,6.0992,6.1051,6.1118,6.1118,6.1118,6.046,5.8758,5.8613,5.7907,5.6167,5.6012,5.6012,5.6012,5.6012,5.6012,5.6012,5.6012,5.6012,5.6012,5.4349,5.3923,5.4813,5.3033,5.219,5.219,5.219,5.1718,5.0937,5.1254,5.1409,5.1486,5.2337,5.2724,5.2724,5.2724,5.2724,5.2647,5.2144,5.1718,5.1447,5.1796,5.1478,5.0968,5.1425,5.1613,5.1702,5.1786,5.2088,5.2374,5.2421,5.3047,5.3828,5.4375,5.5156,5.5703,5.5156,5.5039,5.5156,5.5703,5.582,5.5976,5.6484,5.6601,5.6601,5.6601,5.6601,5.6601,5.6601,5.6601,5.6601,5.6601,5.6601,5.6601,5.6601,5.6914,5.7539,5.8593,5.8827,5.9451,6.0818,6.0897,6.113,6.1675,6.1714,6.1678,6.164,6.164,6.1598,6.15,6.1467,6.1373,6.1318,6.1225,6.1213,6.1166,6.1198,6.1221,6.1228,6.1189,6.1195,6.1186,6.1107,6.1125,6.1195,6.1195,6.1197,6.1213,6.1213,6.1213,6.1213,5.9627,6.0254,6.0816,6.0911,6.0965,6.098,6.1002,6.1051,6.1118,6.1118,6.1118,6.0499,5.8874,5.8729,5.8023,5.6283,5.6051,5.6012,5.6012,5.6012,5.6012,5.6012,5.6012,5.6012,5.6012,5.4426,5.4,5.4813,5.3111,5.2306,5.2306,5.2306,5.1873,5.1169,5.195,5.2306,5.2384,5.3265,5.3614,5.3614,5.3614,5.3614,5.3614,5.3536,5.2995,5.2422,5.3227,5.2461,5.1261,5.2161,5.2571,5.2749,5.2749,5.3313,5.3984,5.3984,5.4609,5.5312,5.5312,5.5937,5.6601,5.6601,5.6601,5.6601,5.6601,5.6601,5.6601,5.6601,5.6601,5.6601,5.6601,5.6601,5.6601,5.6601,5.6601,5.6601,5.6601,5.6601,5.6601,5.6601,5.7304,5.781,5.7888,5.9408,6.0771,6.1631,6.1709,6.1708,6.1708,6.1708,6.1708,6.1707,6.1707,6.1704,6.1697,6.164,6.1517,6.1322,6.1373,6.1373,6.1306,6.1359,6.1392,6.1404,6.1322,6.1298,6.1285,6.1173,6.1197,6.1291,6.133,6.1361,6.1412,6.1412,6.1412,6.1412,6.0512,6.07,6.0911,6.0965,6.099,6.1002,6.1051,6.107,6.1118,6.1118,6.1118,6.0731,5.9725,5.9609,5.8913,5.7164,5.639,5.6012,5.6012,5.6012,5.6012,5.6012,5.6012,5.6012,5.6012,5.5045,5.4619,5.4813,5.373,5.3227,5.3227,5.3227,5.3111,5.2956,5.3111,5.3227,5.3265,5.4155,5.4503,5.4503,5.4503,5.4503,5.4426,5.3768,5.3382,5.3227,5.342,5.3281,5.3073,5.3412,5.3608,5.3709,5.3709,5.3827,5.3984,5.3984,5.4609,5.5312,5.5312,5.5937,5.6601,5.6601,5.6601,5.6601,5.6601,5.6601,5.6601,5.6601,5.6601,5.6601,5.6601,5.6601,5.6601,5.6601,5.6601,5.6601,5.6601,5.6601,5.6601,5.6601,5.6757,5.7146,5.7849,5.9408,6.0772,6.1631,6.1709,6.1707,6.1701,6.1701,6.1697,6.1688,6.1688,6.1692,6.1697,6.1699,6.1639,6.1539,6.142,6.1389,6.1374,6.1385,6.1389,6.1393,6.137,6.1361,6.1396,6.1354,6.1349,6.1369,6.1388,6.1393,6.1412,6.1412,6.1412,6.1422,6.0781,6.0827,6.0922,6.0944,6.099,6.1012,6.1041,6.106,6.1118,6.1118,6.1118,6.0809,5.9996,5.9532,5.8565,5.6815,5.6274,5.6012,5.6012,5.6012,5.6012,5.6012,5.6012,5.6012,5.6012,5.5586,5.5354,5.5354,5.4542,5.4116,5.4116,5.4116,5.3884,5.3536,5.3923,5.4116,5.4194,5.5006,5.5354,5.5354,5.5354,5.5354,5.5316,5.4851,5.4442,5.4165,5.4629,5.4564,5.4284,5.3994,5.4216,5.4607,5.4608,5.4921,5.5234,5.5234,5.5547,5.5937,5.5937,5.625,5.6601,5.6601,5.6601,5.6601,5.6601,5.6601,5.6601,5.6601,5.6601,5.6601,5.6601,5.6953,5.707,5.668,5.6953,5.707,5.664,5.6601,5.6757,5.7187,5.7574,5.831,5.9595,6.0139,6.0762,6.1619,6.1697,6.1696,6.169,6.169,6.1688,6.1718,6.1718,6.1683,6.169,6.1683,6.1694,6.1635,6.1561,6.1511,6.15,6.1549,6.1553,6.1555,6.1497,6.1483,6.1481,6.1442,6.1439,6.1501,6.1491,6.1504,6.1522,6.1522,6.1522,6.1564,6.0843,6.085,6.0905,6.0905,6.099,6.1022,6.1022,6.1051,6.1118,6.1118,6.1118,6.0847,6.019,5.9184,5.7946,5.636,5.6089,5.6012,5.6012,5.6012,5.6012,5.6012,5.6012,5.6012,5.6012,5.6012,5.6012,5.6012,5.5316,5.5006,5.5006,5.5006,5.4619,5.3962,5.4697,5.5006,5.5045,5.5741,5.6012,5.602,5.602,5.602,5.6029,5.6029,5.5614,5.5147,5.5922,5.5829,5.5226,5.4567,5.4882,5.5538,5.5504,5.6013,5.66,5.6601,5.6601,5.6601,5.6601,5.6601,5.6601,5.6601,5.6601,5.6601,5.6601,5.6601,5.6601,5.6601,5.6719,5.6836,5.6836,5.7539,5.789,5.7148,5.7656,5.7851,5.7148,5.703,5.7302,5.8005,5.8698,5.974,6.133,6.0822,6.0744,6.164,6.1718,6.1718,6.1718,6.1718,6.1718,6.1718,6.1718,6.1718,6.1718,6.1718,6.1718,6.1718,6.169,6.1668,6.1639,6.1671,6.1702,6.1697,6.164,6.1638,6.1598,6.1495,6.1534,6.1631,6.163,6.1638,6.1719,6.1719,6.1719,6.1719,6.09,6.0948,6.0982,6.0982,6.1032,6.1109,6.1109,6.107,6.1118,6.1118,6.1118,6.1079,6.0963,5.9532,5.8217,5.7202,5.6429,5.6012,5.6012,5.6012,5.6012,5.6012,5.6012,5.6012,5.6012,5.6012,5.6012,5.6012,5.5896,5.5857,5.5857,5.5857,5.578,5.5664,5.578,5.5857,5.5857,5.5935,5.6029,5.6109,5.6109,5.6133,5.6164,5.6164,5.6096,5.6047,5.6142,5.6195,5.6244,5.6249,5.6321,5.6437,5.6438,5.6518,5.6599,5.66,5.6601,5.6601,5.6601,5.6601,5.6601,5.6601,5.6601,5.6601,5.6601,5.6601,5.6601,5.6601,5.7187,5.7734,5.7734,5.8437,5.8984,5.8867,5.8945,5.8984,5.8866,5.8865,5.8864,5.8937,5.9047,5.9505,6.0471,6.0471,6.0744,6.164,6.1718,6.1718,6.1718,6.1718,6.1718,6.1718,6.1718,6.1718,6.1718,6.1718,6.1718,6.1718,6.1681,6.1686,6.169,6.1686,6.1683,6.1683,6.169,6.1694,6.1696,6.1669,6.1671,6.1708,6.1673,6.1677,6.1717,6.1718,6.1719,6.1719,6.0955,6.099,6.1002,6.1002,6.1041,6.1118,6.1118,6.1118,6.1118,6.1118,6.1118,6.1118,6.1118,6.0035,5.8797,5.7434,5.6932,5.6506,5.6051,5.6012,5.6012,5.6012,5.6012,5.6012,5.6012,5.6012,5.6012,5.6012,5.6012,5.6012,5.6012,5.6012,5.6012,5.6012,5.6012,5.6012,5.6012,5.6012,5.6037,5.6117,5.6117,5.6141,5.6218,5.6218,5.6207,5.6271,5.6338,5.6438,5.6518,5.6585,5.6619,5.658,5.6585,5.6592,5.6597,5.6599,5.6601,5.6601,5.6601,5.6953,5.7344,5.7344,5.7695,5.8047,5.8047,5.8047,5.789,5.7422,5.7617,5.8047,5.8555,5.9297,5.9726,5.9258,5.957,5.9726,5.9256,5.9176,5.9328,5.9784,6.0245,6.071,6.1095,6.1134,6.1291,6.1679,6.1718,6.1718,6.1718,6.1718,6.1718,6.1718,6.1718,6.1718,6.1718,6.1718,6.1718,6.1718,6.1718,6.1718,6.1718,6.1718,6.1718,6.1718,6.1718,6.1718,6.172,6.1686,6.1692,6.1699,6.1707,6.1714,6.1718,6.1719,6.1719,6.1719]}]]